[[{"header":{"parameterUnit":"m.s-1","parameterCategory":1,"la1":31.0,"la2":29.5877,"lo1":-88.7671,"lo2":-86.6584,"dy":0.0162,"dx":0.0185,"nx":115,"ny":88,"refTime":"2026-05-23T00:00:00:Z","depth":0,"parameterNumber":2,"parameterNumberName":"U-component_of_WINDS"},"data":[0.0,0.0,0.0,0.0,0.0,0.0,0.0,0.0,0.0,0.0,0.0,0.0,0.0,0.0,0.0,0.0,0.0,0.0,0.0,0.0,0.0,0.0,0.0,0.0,0.0,0.0,0.0,0.0,0.0,0.0,0.0,0.0,0.0,0.0,0.0,0.0,0.0,0.0,0.0,0.0,0.0,0.0,0.0,0.0,0.0,0.0,0.0,0.0,0.0,0.0,0.0,0.0,0.0,0.0,0.0,0.0,0.0,0.0,0.0,0.0,0.0,0.0,0.0,0.0,0.0,0.0,0.0,0.0,0.0,0.0,0.0,0.0,0.0,0.0,0.0,0.0,0.0,0.0,0.0,0.0,0.0,0.0,0.0,0.0,0.0,0.0,0.0,0.0,0.0,0.0,0.0,0.0,0.0,0.0,0.0,0.0,0.0,0.0,0.0,0.0,0.0,0.0,0.0,0.0,0.0,0.0,0.0,0.0,0.0,0.0,0.0,0.0,0.0,0.0,0.0,0.0,0.0,0.0,0.0,0.0,0.0,0.0,0.0,0.0,0.0,0.0,0.0,0.0,0.0,0.0,0.0,0.0,0.0,0.0,0.0,0.0,0.0,0.0,0.0,0.0,0.0,0.0,0.0,0.0,0.0,0.0,0.0,0.0,0.0,0.0,0.0,0.0,0.0,0.0,0.0,0.0,0.0,0.0,0.0,0.0,0.0,0.0,0.0,0.0,0.0,0.0,0.0,0.0,0.0,0.0,0.0,0.0,0.0,0.0,0.0,0.0,0.0,0.0,0.0,0.0,0.0,0.0,0.0,0.0,0.0,0.0,0.0,0.0,0.0,0.0,0.0,0.0,0.0,0.0,0.0,0.0,0.0,0.0,0.0,0.0,0.0,0.0,0.0,0.0,0.0,0.0,0.0,0.0,0.0,0.0,0.0,0.0,0.0,0.0,0.0,0.0,0.0,0.0,0.0,0.0,0.0,0.0,0.0,0.0,0.0,0.0,0.0,0.0,0.0,0.0,0.0,0.0,0.0,0.0,0.0,0.0,0.0,0.0,0.0,0.0,0.0,0.0,0.0,0.0,0.0,0.0,0.0,0.0,0.0,0.0,0.0,0.0,0.0,0.0,0.0,0.0,0.0,0.0,0.0,0.0,0.0,0.0,0.0,0.0,0.0,0.0,0.0,0.0,0.0,0.0,0.0,0.0,0.0,0.0,0.0,0.0,0.0,0.0,0.0,0.0,0.0,0.0,0.0,0.0,0.0,0.0,0.0,0.0,0.0,0.0,0.0,0.0,0.0,0.0,0.0,0.0,0.0,0.0,0.0,0.0,0.0,0.0,0.0,0.0,0.0,0.0,0.0,0.0,0.0,0.0,0.0,0.0,0.0,0.0,0.0,0.0,0.0,0.0,0.0,0.0,0.0,0.0,0.0,0.0,0.0,0.0,0.0,0.0,0.0,0.0,0.0,0.0,0.0,0.0,0.0,0.0,0.0,0.0,0.0,0.0,0.0,0.0,0.0,0.0,0.0,0.0,0.0,0.0,0.0,0.0,0.0,0.0,0.0,0.0,0.0,0.0,0.0,0.0,0.0,0.0,0.0,0.0,0.0,0.0,0.0,0.0,0.0,0.0,0.0,0.0,0.0,0.0,0.0,0.0,0.0,0.0,0.0,0.0,0.0,0.0,0.0,0.0,0.0,0.0,0.0,0.0,0.0,0.0,0.0,0.0,0.0,0.0,0.0,0.0,0.0,0.0,0.0,0.0,0.0,0.0,0.0,0.0,0.0,0.0,0.0,0.0,0.0,0.0,0.0,0.0,0.0,0.0,0.0,0.0,0.0,0.0,0.0,0.0,0.0,0.0,0.0,0.0,0.0,0.0,0.0,0.0,0.0,0.0,0.0,0.0,0.0,0.0,0.0,0.0,0.0,0.0,0.0,0.0,0.0,0.0,0.0,0.0,0.0,0.0,0.0,0.0,0.0,0.0,0.0,0.0,0.0,0.0,0.0,0.0,0.0,0.0,0.0,0.0,0.0,0.0,0.0,0.0,0.0,0.0,0.0,0.0,0.0,0.0,0.0,0.0,0.0,0.0,0.0,0.0,0.0,0.0,0.0,0.0,0.0,0.0,0.0,0.0,0.0,0.0,0.0,0.0,0.0,0.0,0.0,0.0,0.0,0.0,0.0,0.0,0.0,0.0,0.0,0.0,0.0,0.0,0.0,0.0,0.0,0.0,0.0,0.0,0.0,0.0,0.0,0.0,0.0,0.0,0.0,0.0,0.0,0.0,0.0,0.0,0.0,0.0,0.0,0.0,0.0,0.0,0.0,0.0,0.0,0.0,0.0,0.0,0.0,0.0,0.0,0.0,0.0,0.0,0.0,0.0,0.0,0.0,0.0,0.0,0.0,0.0,0.0,0.0,0.0,0.0,0.0,0.0,0.0,0.0,0.0,0.0,0.0,0.0,0.0,0.0,0.0,0.0,0.0,0.0,0.0,0.0,0.0,0.0,0.0,0.0,0.0,0.0,0.0,0.0,0.0,0.0,0.0,0.0,0.0,0.0,0.0,0.0,0.0,0.0,0.0,0.0,0.0,0.0,0.0,0.0,0.0,0.0,0.0,0.0,0.0,0.0,0.0,0.0,0.0,0.0,0.0,0.0,0.0,0.0,0.0,0.0,0.0,0.0,0.0,0.0,0.0,0.0,0.0,0.0,0.0,0.0,0.0,0.0,0.0,0.0,0.0,0.0,0.0,0.0,0.0,0.0,0.0,0.0,0.0,0.0,0.0,0.0,0.0,0.0,0.0,0.0,0.0,0.0,0.0,0.0,0.0,0.0,0.0,0.0,0.0,0.0,0.0,0.0,0.0,0.0,0.0,0.0,0.0,0.0,0.0,0.0,0.0,0.0,0.0,0.0,0.0,0.0,0.0,0.0,0.0,0.0,0.0,0.0,0.0,0.0,0.0,0.0,0.0,0.0,0.0,0.0,0.0,0.0,0.0,0.0,0.0,0.0,0.0,0.0,0.0,0.0,0.0,0.0,0.0,0.0,0.0,0.0,0.0,0.0,0.0,0.0,0.0,0.0,0.0,0.0,0.0,0.0,0.0,0.0,0.0,0.0,0.0,0.0,0.0,0.0,0.0,0.0,0.0,0.0,0.0,0.0,0.0,0.0,0.0,0.0,0.0,0.0,0.0,0.0,0.0,0.0,0.0,0.0,0.0,0.0,0.0,0.0,0.0,0.0,0.0,0.0,0.0,0.0,0.0,0.0,0.0,0.0,0.0,0.0,0.0,0.0,0.0,0.0,0.0,0.0,0.0,0.0,0.0,0.0,0.0,0.0,0.0,0.0,0.0,0.0,0.0,0.0,0.0,0.0,0.0,0.0,0.0,0.0,0.0,0.0,0.0,0.0,0.0,0.0,0.0,0.0,0.0,0.0,0.0,0.0,0.0,0.0,0.0,0.0,0.0,0.0,0.0,0.0,0.0,0.0,0.0,0.0,0.0,0.0,0.0,0.0,0.0,0.0,0.0,0.0,0.0,0.0,0.0,0.0,0.0,0.0,0.0,0.0,0.0,0.0,0.0,0.0,0.0,0.0,0.0,0.0,0.0,0.0,0.0,0.0,0.0,0.0,0.0,0.0,0.0,0.0,0.0,0.0,0.0,0.0,0.0,0.0,0.0,0.0,0.0,0.0,0.0,0.0,0.0,0.0,0.0,0.0,0.0,0.0,0.0,0.0,0.0,0.0,0.0,0.0,0.0,0.0,0.0,0.0,0.0,0.0,0.0,0.0,0.0,0.0,0.0,0.0,0.0,0.0,0.0,0.0,0.0,0.0,0.0,0.0,0.0,0.0,0.0,0.0,0.0,0.0,0.0,0.0,0.0,0.0,0.0,0.0,0.0,0.0,0.0,0.0,0.0,0.0,0.0,0.0,0.0,0.0,0.0,0.0,0.0,0.0,0.0,0.0,0.0,0.0,0.0,0.0,0.0,0.0,0.0,0.0,0.0,0.0,0.0,0.0,0.0,0.0,0.0,0.0,0.0,0.0,0.0,0.0,0.0,0.0,0.0,0.0,0.0,0.0,0.0,0.0,0.0,0.0,0.0,0.0,0.0,0.0,0.0,0.0,0.0,0.0,0.0,0.0,0.0,0.0,0.0,0.0,0.0,0.0,0.0,0.0,0.0,0.0,0.0,0.0,0.0,0.0,0.0,0.0,0.0,0.0,0.0,0.0,0.0,0.0,0.0,0.0,0.0,0.0,0.0,0.0,0.0,0.0,-0.4099,0.0,0.0,0.0,0.0,0.0,0.0,0.0,0.0,0.0,0.0,0.0,0.0,0.0,0.0,0.0,0.0,0.0,0.0,0.0,0.0,0.0,0.0,0.0,0.0,0.0,0.0,0.0,0.0,0.0,0.0,0.0,0.0,0.0,0.0,0.0,0.0,0.0,0.0,0.0,0.0,0.0,0.0,0.0,0.0,0.0,0.0,0.0,0.0,0.0,0.0,0.0,0.0,0.0,0.0,0.0,0.0,0.0,0.0,0.0,0.0,0.0,0.0,0.0,0.0,0.0,0.0,0.0,0.0,0.0,0.0,0.0,0.0,0.0,0.0,0.0,0.0,0.0,0.0,0.0,0.0,0.0,0.0,0.0,0.0,0.0,0.0,0.0,0.0,0.0,0.0,0.0,0.0,0.0,0.0,0.0,0.0,0.0,0.0,0.0,0.0,0.0,0.0,0.0,0.0,0.0,0.0,0.0,0.0,0.0,0.0,-0.4478,-0.4501,-0.5156,-0.5384,-0.5147,0.0,0.0,0.0,0.0,0.0,0.0,0.0,0.0,0.0,0.0,0.0,0.0,0.0,0.0,0.0,0.0,0.0,0.0,0.0,0.0,0.0,0.0,0.0,0.0,0.0,0.0,0.0,0.0,0.0,0.0,0.0,0.0,0.0,0.0,0.0,0.0,0.0,0.0,0.0,0.0,0.0,0.0,0.0,0.0,0.0,0.0,0.0,0.0,0.0,0.0,0.0,0.0,0.0,0.0,0.0,0.0,0.0,0.0,0.0,0.0,0.0,0.0,0.0,0.0,0.0,0.0,0.0,0.0,0.0,0.0,0.0,0.0,0.0,0.0,0.0,0.0,0.0,0.0,0.0,0.0,0.0,0.0,0.0,0.0,0.0,0.0,0.0,0.0,0.0,0.0,0.0,0.0,0.0,0.0,0.0,0.0,0.0,0.0,0.0,0.0,0.0,0.0,0.0,0.0,0.0,0.0,0.0,0.0,0.0,0.0,0.0,0.0,-0.5479,-0.5993,-0.6636,0.0,0.0,0.0,0.0,0.0,0.0,0.0,0.0,0.0,0.0,0.0,0.0,0.0,0.0,0.0,0.0,0.0,0.0,0.0,0.0,0.0,0.0,0.0,0.0,0.0,0.0,0.0,0.0,0.0,0.0,0.0,0.0,0.0,0.0,0.0,0.0,0.0,0.0,0.0,0.0,0.0,0.0,0.0,0.0,0.0,0.0,0.0,0.0,0.0,0.0,0.0,0.0,0.0,0.0,0.0,0.0,0.0,0.0,0.0,0.0,0.0,0.0,0.0,0.0,0.0,0.0,0.0,0.0,0.0,0.0,0.0,0.0,0.0,0.0,0.0,0.0,0.0,0.0,0.0,0.0,0.0,0.0,0.0,0.0,0.0,0.0,0.0,0.0,0.0,0.0,0.0,0.0,0.0,0.0,0.0,0.0,0.0,0.0,0.0,0.0,0.0,0.0,0.0,0.0,0.0,0.0,0.0,0.0,0.0,0.0,-0.5215,-0.5292,-0.6525,0.0,-0.8209,0.0,0.0,0.0,0.0,0.0,0.0,0.0,0.0,0.0,0.0,0.0,0.0,0.0,0.0,0.0,0.0,0.0,0.0,0.0,0.0,0.0,0.0,0.0,0.0,0.0,0.0,0.0,0.0,0.0,0.0,0.0,0.0,0.0,0.0,0.0,0.0,0.0,0.0,0.0,0.0,0.0,0.0,0.0,0.0,0.0,0.0,0.0,0.0,0.0,0.0,0.0,0.0,0.0,0.0,0.0,0.0,0.0,0.0,0.0,0.0,0.0,0.0,0.0,0.0,0.0,0.0,0.0,0.0,0.0,0.0,0.0,0.0,0.0,0.0,0.0,0.0,0.0,0.0,0.0,0.0,0.0,0.0,0.0,0.0,0.0,0.0,0.0,0.0,0.0,0.0,0.0,0.0,0.0,0.0,0.0,0.0,0.0,0.0,0.0,0.0,0.0,0.0,0.0,0.0,0.0,0.0,0.0,0.0,0.0,0.0,-0.5618,-0.5999,-0.7415,-0.8097,0.0,0.0,0.0,0.0,0.0,0.0,0.0,0.0,0.0,0.0,0.0,0.0,0.0,0.0,0.0,0.0,0.0,0.0,0.0,0.0,0.0,0.0,0.0,0.0,0.0,0.0,0.0,0.0,0.0,0.0,0.0,0.0,0.0,0.0,0.0,0.0,0.0,0.0,0.0,0.0,0.0,0.0,0.0,0.0,0.0,0.0,0.0,0.0,0.0,0.0,0.0,0.0,0.0,0.0,0.0,0.0,0.0,0.0,0.0,0.0,0.0,0.0,0.0,0.0,0.0,0.0,0.0,0.0,0.0,0.0,0.0,0.0,0.0,0.0,0.0,0.0,0.0,0.0,0.0,0.0,0.0,0.0,0.0,0.0,0.0,0.0,0.0,0.0,0.0,0.0,0.0,0.0,0.0,0.0,0.0,0.0,0.0,0.0,0.0,0.0,0.0,0.0,0.0,0.0,0.0,0.0,0.0,0.0,0.0,0.0,-0.5295,-0.6186,-0.7086,-0.794,-0.8138,-0.7615,0.0,0.0,0.0,0.0,0.0,0.0,0.0,0.0,0.0,0.0,0.0,0.0,0.0,0.0,0.0,0.0,0.0,0.0,0.0,0.0,0.0,0.0,0.0,0.0,0.0,0.0,0.0,0.0,0.0,0.0,0.0,0.0,0.0,0.0,0.0,0.0,0.0,0.0,0.0,0.0,0.0,0.0,0.0,0.0,0.0,0.0,0.0,0.0,0.0,0.0,0.0,0.0,0.0,0.0,0.0,0.0,0.0,0.0,0.0,0.0,0.0,0.0,0.0,0.0,0.0,0.0,0.0,0.0,0.0,0.0,0.0,0.0,0.0,0.0,0.0,0.0,0.0,0.0,0.0,0.0,0.0,0.0,0.0,0.0,0.0,0.0,0.0,0.0,0.0,0.0,0.0,0.0,0.0,0.0,0.0,0.0,0.0,0.0,0.0,0.0,0.0,0.0,0.0,0.0,0.0,0.0,0.0,0.0,-0.444,-0.5747,-0.7146,-0.8457,-0.7973,-0.7626,0.0,0.0,0.0,0.0,0.0,0.0,0.0,0.0,0.0,0.0,0.0,0.0,0.0,0.0,0.0,0.0,0.0,0.0,0.0,0.0,0.0,0.0,0.0,0.0,0.0,0.0,0.0,0.0,0.0,0.0,0.0,0.0,0.0,0.0,0.0,0.0,0.0,0.0,0.0,0.0,0.0,0.0,0.0,0.0,0.0,0.0,0.0,0.0,0.0,0.0,0.0,0.0,0.0,0.0,0.0,0.0,0.0,0.0,0.0,0.0,0.0,0.0,0.0,0.0,0.0,0.0,0.0,0.0,0.0,0.0,0.0,0.0,0.0,0.0,0.0,0.0,0.0,0.0,0.0,0.0,0.0,0.0,0.0,0.0,0.0,0.0,0.0,0.0,0.0,0.0,0.0,0.0,0.0,0.0,0.0,0.0,0.0,0.0,0.0,0.0,0.0,0.0,0.0,0.0,0.0,0.0,0.0,0.0,0.0,-0.4454,-0.5826,-0.6803,-0.7333,-0.7504,-0.719,0.0,0.0,0.0,0.0,0.0,0.0,0.0,0.0,0.0,0.0,0.0,0.0,0.0,0.0,0.0,0.0,0.0,0.0,0.0,0.0,0.0,0.0,0.0,0.0,0.0,0.0,0.0,0.0,0.0,0.0,0.0,0.0,0.0,0.0,0.0,0.0,0.0,0.0,0.0,0.0,0.0,0.0,0.0,0.0,0.0,0.0,0.0,0.0,0.0,0.0,0.0,0.0,0.0,0.0,0.0,0.0,0.0,0.0,0.0,0.0,0.0,0.0,0.0,0.0,0.0,0.0,0.0,0.0,0.0,0.0,0.0,0.0,0.0,0.0,0.0,0.0,0.0,0.0,0.0,0.0,0.0,0.0,0.0,0.0,0.0,0.0,0.0,0.0,0.0,0.0,0.0,0.0,0.0,0.0,0.0,0.0,0.0,0.0,0.0,0.0,0.0,0.0,0.0,0.0,0.0,0.0,0.0,0.0,0.0,-0.5519,0.0,-0.7124,-0.7347,-0.7534,-0.707,0.0,0.0,0.0,0.0,0.0,0.0,0.0,0.0,0.0,0.0,0.0,0.0,0.0,0.0,0.0,0.0,0.0,0.0,0.0,0.0,0.0,0.0,0.0,0.0,0.0,0.0,0.0,0.0,0.0,0.0,0.0,0.0,0.0,0.0,0.0,0.0,0.0,0.0,0.0,0.0,0.0,0.0,0.0,0.0,0.0,0.0,0.0,0.0,0.0,0.0,0.0,0.0,0.0,0.0,0.0,0.0,0.0,0.0,0.0,0.0,0.0,0.0,0.0,0.0,0.0,0.0,0.0,0.0,0.0,0.0,0.0,0.0,0.0,0.0,0.0,0.0,0.0,0.0,0.0,0.0,0.0,0.0,0.0,0.0,0.0,0.0,0.0,0.0,0.0,0.0,0.0,0.0,0.0,0.0,0.0,0.0,0.0,0.0,0.0,0.0,0.0,0.0,0.0,0.0,0.0,0.0,0.0,0.0,-0.6256,-0.7689,-0.7846,-0.8187,-0.8824,-0.8089,-0.7354,0.0,0.0,0.0,0.0,0.0,0.0,0.0,0.0,0.0,0.0,0.0,0.0,0.0,0.0,0.0,0.0,0.0,0.0,0.0,0.0,0.0,0.0,0.0,0.0,0.0,0.0,0.0,0.0,0.0,0.0,0.0,0.0,0.0,0.0,0.0,0.0,0.0,0.0,0.0,0.0,0.0,0.0,0.0,0.0,0.0,0.0,0.0,0.0,0.0,0.0,0.0,0.0,0.0,0.0,0.0,0.0,0.0,0.0,0.0,0.0,0.0,0.0,0.0,0.0,0.0,0.0,0.0,0.0,0.0,0.0,0.0,0.0,0.0,0.0,0.0,0.0,0.0,0.0,0.0,0.0,0.0,0.0,0.0,0.0,0.0,0.0,0.0,0.0,0.0,0.0,0.0,0.0,0.0,0.0,0.0,0.0,0.0,0.0,0.0,0.0,0.0,0.0,0.0,0.0,0.0,0.0,0.0,0.0,0.0,-0.8005,-0.8619,-0.8742,-0.8374,-0.8063,-0.753,0.0,0.0,0.0,0.0,0.0,0.0,0.0,0.0,0.0,0.0,0.0,0.0,0.0,0.0,0.0,0.0,0.0,0.0,0.0,0.0,0.0,0.0,0.0,0.0,0.0,0.0,0.0,0.0,0.0,0.0,0.0,0.0,0.0,0.0,0.0,0.0,0.0,0.0,0.0,0.0,0.0,0.0,0.0,0.0,0.0,0.0,0.0,0.0,0.0,0.0,0.0,0.0,0.0,0.0,0.0,0.0,0.0,0.0,0.0,0.0,0.0,0.0,0.0,0.0,0.0,0.0,0.0,0.0,0.0,0.0,0.0,0.0,0.0,0.0,0.0,0.0,0.0,0.0,0.0,0.0,0.0,0.0,0.0,0.0,0.0,0.0,0.0,0.0,0.0,0.0,0.0,0.0,0.0,0.0,0.0,0.0,0.0,0.0,0.0,0.0,0.0,0.0,0.0,0.0,0.0,0.0,0.0,0.0,0.0,-1.0356,-1.0599,-1.0285,-0.9384,-0.9039,-0.8457,-0.7592,0.0,0.0,0.0,0.0,0.0,0.0,0.0,0.0,0.0,0.0,0.0,0.0,0.0,0.0,0.0,0.0,0.0,0.0,0.0,0.0,0.0,0.0,0.0,0.0,0.0,0.0,0.0,0.0,0.0,0.0,0.0,0.0,0.0,0.0,0.0,0.0,0.0,0.0,0.0,0.0,0.0,0.0,0.0,0.0,0.0,0.0,0.0,0.0,0.0,0.0,0.0,0.0,0.0,0.0,0.0,0.0,0.0,0.0,0.0,0.0,0.0,0.0,0.0,0.0,0.0,0.0,0.0,0.0,0.0,0.0,0.0,0.0,0.0,0.0,0.0,0.0,0.0,0.0,0.0,0.0,0.0,0.0,0.0,0.0,0.0,0.0,0.0,0.0,0.0,0.0,0.0,0.0,0.0,0.0,0.0,0.0,0.0,0.0,0.0,0.0,0.0,0.0,0.0,0.0,0.0,0.0,0.0,0.0,-1.4159,-1.3549,-1.2697,-1.1646,-1.0866,-0.9996,0.0,0.0,0.0,0.0,0.0,0.0,0.0,0.0,0.0,0.0,0.0,0.0,0.0,0.0,0.0,0.0,0.0,0.0,0.0,0.0,0.0,0.0,0.0,0.0,0.0,0.0,0.0,0.0,0.0,0.0,0.0,0.0,0.0,0.0,0.0,0.0,0.0,0.0,0.0,0.0,0.0,0.0,0.0,0.0,0.0,0.0,0.0,0.0,0.0,0.0,0.0,0.0,0.0,0.0,0.0,0.0,0.0,0.0,0.0,0.0,0.0,0.0,0.0,0.0,0.0,0.0,0.0,0.0,0.0,0.0,0.0,0.0,0.0,0.0,0.0,0.0,0.0,0.0,0.0,0.0,0.0,0.0,0.0,0.0,0.0,0.0,0.0,0.0,0.0,0.0,0.0,0.0,0.0,0.0,0.0,0.0,0.0,0.0,0.0,0.0,0.0,0.0,0.0,0.0,0.0,0.0,0.0,0.0,0.0,-1.4273,-1.5792,-1.5573,-1.3505,-1.2592,-1.1439,0.0,0.0,0.0,0.0,0.0,0.0,0.0,0.0,0.0,0.0,0.0,0.0,0.0,0.0,0.0,0.0,0.0,0.0,0.0,0.0,0.0,0.0,0.0,0.0,0.0,0.0,0.0,0.0,0.0,0.0,0.0,0.0,0.0,0.0,0.0,0.0,0.0,0.0,0.0,0.0,0.0,0.0,0.0,0.0,0.0,0.0,0.0,0.0,0.0,0.0,0.0,0.0,0.0,0.0,0.0,0.0,0.0,0.0,0.0,0.0,0.0,0.0,0.0,0.0,0.0,0.0,0.0,0.0,0.0,0.0,0.0,0.0,0.0,0.0,0.0,0.0,0.0,0.0,0.0,0.0,0.0,0.0,0.0,0.0,0.0,0.0,0.0,0.0,0.0,0.0,0.0,0.0,0.0,0.0,0.0,0.0,0.0,0.0,0.0,0.0,0.0,0.0,0.0,0.0,0.0,0.0,0.0,0.0,-1.3829,-1.5289,-1.7348,-1.7545,-1.5702,-1.4135,-1.2494,0.0,0.0,0.0,0.0,0.0,0.0,0.0,0.0,0.0,0.0,0.0,0.0,0.0,0.0,0.0,0.0,0.0,0.0,0.0,0.0,0.0,0.0,0.0,0.0,0.0,0.0,0.0,0.0,0.0,0.0,0.0,0.0,0.0,0.0,0.0,0.0,0.0,0.0,0.0,0.0,0.0,0.0,0.0,0.0,0.0,0.0,0.0,0.0,0.0,0.0,0.0,0.0,0.0,0.0,0.0,0.0,0.0,0.0,0.0,0.0,0.0,0.0,0.0,0.0,0.0,0.0,0.0,0.0,0.0,0.0,0.0,0.0,0.0,0.0,0.0,0.0,0.0,0.0,0.0,0.0,0.0,0.0,0.0,0.0,0.0,0.0,0.0,0.0,0.0,0.0,0.0,0.0,0.0,0.0,0.0,0.0,0.0,0.0,0.0,0.0,0.0,0.0,0.0,0.0,0.0,0.0,0.0,0.0,-1.4367,-1.6679,-1.8278,-1.869,-1.7778,-1.5428,-1.3364,0.0,0.0,0.0,0.0,0.0,0.0,0.0,0.0,0.0,0.0,0.0,0.0,0.0,0.0,0.0,0.0,0.0,0.0,0.0,0.0,0.0,0.0,0.0,0.0,0.0,0.0,0.0,0.0,0.0,0.0,0.0,0.0,0.0,0.0,0.0,0.0,0.0,0.0,0.0,0.0,0.0,0.0,0.0,0.0,0.0,0.0,0.0,0.0,0.0,0.0,0.0,0.0,0.0,0.0,0.0,0.0,0.0,0.0,0.0,0.0,0.0,0.0,0.0,0.0,0.0,0.0,0.0,0.0,0.0,0.0,0.0,0.0,0.0,0.0,0.0,0.0,0.0,0.0,0.0,0.0,0.0,0.0,0.0,0.0,0.0,0.0,0.0,0.0,0.0,0.0,0.0,0.0,0.0,0.0,0.0,0.0,0.0,0.0,0.0,0.0,0.0,0.0,0.0,0.0,0.0,0.0,0.0,0.0,-1.5068,-1.6821,-1.8364,-1.8746,-1.7894,-1.6037,-1.4249,0.0,0.0,0.0,0.0,0.0,0.0,0.0,0.0,0.0,0.0,0.0,0.0,0.0,0.0,0.0,0.0,0.0,0.0,0.0,0.0,0.0,0.0,0.0,0.0,0.0,0.0,0.0,0.0,0.0,0.0,0.0,0.0,0.0,0.0,0.0,0.0,0.0,0.0,0.0,0.0,0.0,0.0,0.0,0.0,0.0,0.0,0.0,0.0,-0.2527,0.0,0.0,0.0,0.0,0.0,0.0,0.0,0.0,0.0,0.0,0.0,0.0,0.0,0.0,0.0,0.0,0.0,0.0,0.0,0.0,0.0,0.0,0.0,0.0,0.0,0.0,0.0,0.0,0.0,0.0,0.0,0.0,0.0,0.0,0.0,0.0,0.0,0.0,0.0,0.0,0.0,0.0,0.0,0.0,0.0,0.0,0.0,0.0,0.0,0.0,0.0,0.0,0.0,0.0,0.0,0.0,0.0,0.0,0.0,-1.5794,-1.6988,-1.8474,-1.9011,-1.8539,-1.7232,-1.5375,0.0,0.0,0.0,0.0,0.0,0.0,0.0,0.0,0.0,0.0,0.0,0.0,0.0,0.0,0.0,0.0,0.0,0.0,0.0,0.0,0.0,0.0,0.0,0.0,0.0,0.0,0.0,0.0,0.0,0.0,0.0,0.0,0.0,0.0,0.0,0.0,0.0,0.0,0.0,0.0,0.0,0.0,0.0,0.0,0.0,0.0,0.0,0.0,0.0,0.0,0.0,0.0,0.0,0.0,0.0,0.0,0.0,0.0,0.0,0.0,0.0,0.0,0.0,0.0,0.0,0.0,0.0,0.0,0.0,0.0,0.0,0.0,0.0,0.0,0.0,0.0,0.0,0.0,0.0,0.0,0.0,0.0,0.0,0.0,0.0,0.0,0.0,0.0,0.0,0.0,0.0,0.0,0.0,0.0,0.0,0.0,0.0,0.0,0.0,0.0,0.0,0.0,0.0,0.0,0.0,0.0,0.0,-1.4387,-1.6367,-1.7145,-1.8573,-1.9335,-1.9295,-1.8276,-1.6273,-1.3234,0.0,0.0,0.0,0.0,0.0,0.0,0.0,0.0,0.0,0.0,0.0,0.0,0.0,0.0,0.0,0.0,0.0,0.0,0.0,0.0,0.0,0.0,0.0,0.0,0.0,0.0,0.0,0.0,0.0,0.0,0.0,0.0,0.0,0.0,0.0,0.0,0.0,0.0,-0.2401,-0.3616,0.0,0.0,0.0,0.0,0.0,0.0,0.0,0.0,-0.3621,0.0,0.0,0.0,0.0,0.0,0.0,0.0,0.0,0.0,0.0,0.0,0.0,0.0,0.0,0.0,0.0,0.0,0.0,0.0,0.0,0.0,0.0,0.0,0.0,0.0,0.0,0.0,0.0,0.0,0.0,0.0,0.0,0.0,0.0,0.0,0.0,0.0,0.0,0.0,0.0,0.0,0.0,0.0,0.0,0.0,0.0,0.0,0.0,0.0,0.0,0.0,0.0,0.0,0.0,0.0,0.0,-1.2143,-1.476,-1.6453,-1.7266,-1.8707,-1.9459,-1.9361,-1.7822,-1.6041,-1.4079,0.0,0.0,0.0,0.0,0.0,0.0,0.0,0.0,0.0,0.0,0.0,0.0,0.0,0.0,0.0,0.0,0.0,0.0,0.0,0.0,0.0,0.0,0.0,0.0,0.0,0.0,0.0,0.0,0.0,0.0,0.0,0.0,0.0,0.0,0.0,0.0,0.0,0.0,0.0,-0.4258,-0.4922,0.0,0.0,0.0,0.0,0.0,0.0,0.0,0.0,-0.4253,0.0,0.0,0.0,0.0,0.0,0.0,0.0,0.0,0.0,0.0,0.0,0.0,0.0,0.0,0.0,0.0,0.0,0.0,0.0,0.0,0.0,0.0,0.0,0.0,0.0,0.0,0.0,0.0,0.0,0.0,0.0,0.0,0.0,0.0,0.0,0.0,0.0,0.0,0.0,0.0,0.0,0.0,0.0,0.0,0.0,0.0,0.0,0.0,0.0,0.0,0.0,0.0,0.0,0.0,0.0,-1.31,-1.5607,-1.7245,-1.8019,-1.9093,-1.9406,-1.8883,-1.7967,-1.6433,0.0,0.0,0.0,0.0,0.0,0.0,0.0,0.0,0.0,0.0,0.0,0.0,0.0,0.0,0.0,0.0,0.0,0.0,0.0,0.0,0.0,0.0,0.0,0.0,0.0,0.0,0.0,0.0,0.0,0.0,0.0,0.0,0.0,0.0,0.0,0.0,0.0,0.0,0.0,0.0,-0.4504,-0.504,-0.6663,0.0,0.0,0.0,0.0,0.0,0.0,-0.4321,-0.4341,0.0,0.0,0.0,0.0,0.0,0.0,0.0,0.0,0.0,0.0,0.0,0.0,0.0,0.0,0.0,0.0,0.0,0.0,0.0,0.0,0.0,0.0,0.0,0.0,0.0,0.0,0.0,0.0,0.0,0.0,0.0,0.0,0.0,0.0,0.0,0.0,0.0,0.0,0.0,0.0,0.0,0.0,0.0,0.0,0.0,0.0,0.0,0.0,0.0,0.0,0.0,0.0,0.0,0.0,0.0,-1.3804,-1.6476,-1.8124,-1.8721,-1.9449,-1.9455,-1.8696,-1.8168,-1.673,0.0,0.0,0.0,0.0,0.0,0.0,0.0,0.0,0.0,0.0,0.0,0.0,0.0,0.0,0.0,0.0,0.0,0.0,0.0,0.0,0.0,0.0,0.0,0.0,0.0,0.0,0.0,0.0,0.0,0.0,0.0,0.0,0.0,0.0,0.0,0.0,0.0,0.0,0.0,0.0,0.0,-0.5451,-0.6737,-0.6063,0.0,0.0,0.0,0.0,-0.4936,-0.4665,0.0,0.0,0.0,0.0,0.0,0.0,0.0,0.0,0.0,0.0,0.0,0.0,0.0,0.0,0.0,0.0,0.0,0.0,0.0,0.0,0.0,0.0,0.0,0.0,0.0,0.0,0.0,0.0,0.0,0.0,0.0,0.0,0.0,0.0,0.0,0.0,0.0,0.0,0.0,0.0,0.0,0.0,0.0,0.0,0.0,0.0,0.0,0.0,0.0,0.0,0.0,0.0,0.0,0.0,0.0,0.0,-1.3831,-1.7079,-1.8766,-1.8807,-1.9511,-1.9821,-1.9606,-1.8012,-1.6294,0.0,0.0,0.0,0.0,0.0,0.0,0.0,0.0,0.0,0.0,0.0,0.0,0.0,0.0,0.0,0.0,0.0,0.0,0.0,0.0,0.0,0.0,0.0,0.0,0.0,0.0,0.0,0.0,0.0,0.0,0.0,0.0,0.0,0.0,0.0,0.0,0.0,0.0,0.0,0.0,0.0,-0.6706,-0.6964,-0.7905,-0.7605,0.0,0.0,-0.5016,-0.6396,-0.5424,0.0,0.0,0.0,0.0,0.0,0.0,0.0,0.0,0.0,0.0,0.0,0.0,0.0,0.0,0.0,0.0,0.0,0.0,0.0,0.0,0.0,0.0,0.0,0.0,0.0,0.0,0.0,0.0,0.0,0.0,0.0,0.0,0.0,0.0,0.0,0.0,0.0,0.0,0.0,0.0,0.0,0.0,0.0,0.0,0.0,0.0,0.0,0.0,0.0,0.0,0.0,0.0,0.0,0.0,0.0,-1.2371,-1.4554,-1.7404,-1.911,-1.9535,-1.9839,-1.9739,-1.9173,-1.7868,-1.6142,0.0,0.0,0.0,0.0,0.0,0.0,0.0,0.0,0.0,0.0,0.0,0.0,0.0,0.0,0.0,0.0,0.0,0.0,0.0,0.0,0.0,0.0,0.0,0.0,0.0,0.0,0.0,0.0,0.0,0.0,0.0,0.0,0.0,0.0,0.0,0.0,0.0,0.0,0.0,0.0,0.0,0.0,-0.8285,-0.8922,0.0,0.0,0.0,-0.7442,-0.821,0.0,0.0,0.0,0.0,0.0,0.0,0.0,0.0,0.0,0.0,0.0,0.0,0.0,0.0,0.0,0.0,0.0,0.0,0.0,0.0,0.0,0.0,0.0,0.0,0.0,0.0,0.0,0.0,0.0,0.0,0.0,0.0,0.0,0.0,0.0,0.0,0.0,0.0,0.0,0.0,0.0,0.0,0.0,0.0,0.0,0.0,0.0,0.0,0.0,0.0,0.0,0.0,0.0,0.0,0.0,0.0,0.0,-1.5416,-1.7932,-1.9525,-2.0089,-2.0117,-1.9773,-1.9027,-1.7929,0.0,0.0,0.0,0.0,0.0,0.0,0.0,0.0,0.0,0.0,0.0,0.0,0.0,0.0,0.0,0.0,0.0,0.0,0.0,0.0,0.0,0.0,0.0,0.0,0.0,0.0,0.0,-0.1953,0.0,0.0,0.0,0.0,0.0,0.0,0.0,0.0,0.0,0.0,0.0,0.0,0.0,0.0,-0.8227,-0.9888,-0.9708,-0.9353,0.0,0.0,-0.9297,-0.938,-0.9316,-0.8536,0.0,0.0,0.0,0.0,0.0,0.0,0.0,0.0,0.0,0.0,0.0,0.0,0.0,0.0,0.0,0.0,0.0,0.0,0.0,0.0,0.0,0.0,0.0,0.0,0.0,0.0,0.0,0.0,0.0,0.0,0.0,0.0,0.0,0.0,0.0,0.0,0.0,0.0,0.0,0.0,0.0,0.0,0.0,0.0,0.0,0.0,0.0,0.0,0.0,0.0,0.0,0.0,0.0,0.0,-1.3754,-1.629,-1.8803,-2.0134,-2.0187,-2.0136,-2.004,-1.9882,-1.8254,-1.6554,0.0,0.0,0.0,0.0,0.0,0.0,0.0,0.0,0.0,0.0,0.0,0.0,0.0,0.0,0.0,0.0,0.0,0.0,0.0,0.0,0.0,0.0,0.0,0.0,0.0,0.0,0.0,0.0,0.0,0.0,0.0,0.0,0.0,0.0,0.0,0.0,0.0,0.0,0.0,0.0,0.0,-0.992,-1.1606,-1.0499,-0.9483,0.0,-0.938,-0.9389,-0.9394,-0.9394,-0.8815,-0.7096,0.0,0.0,0.0,0.0,0.0,0.0,0.0,0.0,0.0,0.0,0.0,0.0,0.0,0.0,0.0,0.0,0.0,0.0,0.0,0.0,0.0,0.0,0.0,0.0,0.0,0.0,0.0,0.0,0.0,0.0,0.0,0.0,0.0,0.0,0.0,0.0,0.0,0.0,0.0,0.0,0.0,0.0,0.0,0.0,0.0,0.0,0.0,0.0,0.0,0.0,0.0,0.0,0.0,-1.3882,-1.6374,-1.8905,-2.0205,-2.0199,-2.0145,-2.0084,-2.0059,-1.8408,-1.669,0.0,0.0,0.0,0.0,0.0,0.0,0.0,0.0,0.0,0.0,0.0,0.0,0.0,0.0,0.0,0.0,0.0,0.0,0.0,0.0,0.0,0.0,0.0,0.0,0.0,0.0,0.0,0.0,-0.343,-0.4011,-0.3908,0.0,0.0,0.0,0.0,0.0,0.0,0.0,0.0,0.0,0.0,-1.1301,-1.2045,-1.2455,0.0,0.0,-1.0802,-0.9439,-0.9403,-0.9394,-0.9006,-0.7839,-0.6664,0.0,0.0,0.0,0.0,0.0,0.0,0.0,0.0,0.0,0.0,0.0,0.0,0.0,0.0,0.0,0.0,0.0,0.0,0.0,0.0,0.0,0.0,0.0,0.0,0.0,0.0,0.0,0.0,0.0,0.0,0.0,0.0,0.0,0.0,0.0,0.0,0.0,0.0,0.0,0.0,0.0,0.0,0.0,0.0,0.0,0.0,0.0,0.0,0.0,0.0,0.0,0.0,-1.4323,-1.6792,-1.9084,-2.0223,-2.0201,-2.0144,-2.0122,-2.0065,-1.8477,-1.6884,0.0,0.0,0.0,0.0,0.0,0.0,0.0,0.0,0.0,0.0,0.0,0.0,0.0,0.0,0.0,0.0,0.0,0.0,0.0,0.0,0.0,0.0,0.0,0.0,0.0,0.0,0.0,0.0,-0.465,-0.4999,-0.4843,0.0,0.0,0.0,0.0,0.0,0.0,0.0,0.0,0.0,0.0,-1.2308,-1.2896,-1.4032,-1.4749,-1.4616,-1.2557,-1.0817,-1.0281,-0.9753,-0.9296,-0.8997,0.0,0.0,0.0,0.0,0.0,0.0,0.0,0.0,0.0,0.0,0.0,0.0,0.0,0.0,0.0,0.0,0.0,0.0,0.0,0.0,0.0,0.0,0.0,0.0,0.0,0.0,0.0,-0.7728,0.0,0.0,-0.7777,0.0,0.0,0.0,0.0,0.0,0.0,0.0,0.0,0.0,0.0,0.0,0.0,0.0,0.0,0.0,0.0,0.0,0.0,0.0,0.0,0.0,0.0,-1.5209,-1.7735,-1.9421,-2.0269,-2.0207,-2.0134,-2.0112,-2.0069,-1.8486,-1.7178,-1.6238,0.0,0.0,0.0,0.0,0.0,0.0,0.0,0.0,0.0,0.0,0.0,0.0,0.0,0.0,0.0,0.0,0.0,0.0,0.0,0.0,0.0,0.0,0.0,0.0,0.0,0.0,-0.4106,-0.462,-0.4894,0.0,0.0,0.0,0.0,0.0,0.0,0.0,0.0,0.0,-1.3427,-1.2819,-1.2897,-1.4476,-1.4889,-1.493,-1.4809,-1.4532,-1.3807,-1.2266,-1.054,-0.9742,0.0,0.0,0.0,0.0,0.0,0.0,0.0,0.0,0.0,0.0,0.0,0.0,0.0,0.0,0.0,0.0,0.0,0.0,0.0,0.0,0.0,0.0,0.0,0.0,0.0,0.0,0.0,-1.1094,-1.1092,0.0,0.0,0.0,0.0,0.0,0.0,0.0,0.0,0.0,0.0,0.0,-1.7025,-1.7038,0.0,0.0,0.0,0.0,0.0,0.0,0.0,0.0,0.0,0.0,0.0,0.0,-1.525,-1.7731,-1.9458,-2.0287,-2.0265,-2.0158,-2.0112,-2.0093,-1.9043,-1.7238,-1.4642,0.0,0.0,0.0,0.0,0.0,0.0,0.0,0.0,0.0,0.0,0.0,0.0,0.0,0.0,0.0,0.0,0.0,0.0,0.0,0.0,0.0,0.0,0.0,0.0,0.0,-0.415,0.0,0.0,0.0,0.0,0.0,0.0,0.0,0.0,0.0,0.0,-1.3605,-1.4172,-1.3837,-1.3956,-1.4287,-1.4854,-1.4974,-1.499,0.0,0.0,0.0,0.0,0.0,0.0,0.0,0.0,0.0,0.0,0.0,0.0,0.0,0.0,-1.2964,-0.9816,-0.8736,-0.8552,-0.9273,0.0,0.0,0.0,0.0,0.0,0.0,0.0,0.0,0.0,0.0,0.0,0.0,0.0,0.0,-1.4156,-1.4159,-1.416,0.0,0.0,0.0,0.0,0.0,0.0,0.0,0.0,-1.8627,-1.9407,-1.9705,-1.9699,-1.9558,-1.926,-1.9268,-1.8067,0.0,0.0,0.0,0.0,0.0,0.0,0.0,0.0,-1.5991,-1.8205,-1.9609,-2.0321,-2.0292,-2.018,-2.0145,-2.0126,-1.9043,-1.7092,-1.4202,-1.2253,-1.0942,0.0,0.0,0.0,0.0,0.0,0.0,0.0,0.0,0.0,0.0,0.0,0.0,0.0,0.0,0.0,0.0,0.0,0.0,0.0,0.0,0.0,0.0,0.0,-0.5017,0.0,0.0,0.0,0.0,0.0,0.0,0.0,0.0,0.0,-1.326,-1.4896,-1.5426,-1.4453,-1.4742,-1.503,-1.5006,0.0,0.0,0.0,0.0,0.0,0.0,0.0,-1.0381,-1.0321,-1.1254,-1.1857,-1.1341,-1.0458,-1.0043,-1.076,0.0,0.0,-1.1788,-1.0502,-1.0283,-1.0916,-1.1169,-1.1187,-1.1039,-1.1996,-1.2989,0.0,0.0,0.0,0.0,-1.5577,0.0,0.0,0.0,-1.6464,-1.6809,0.0,-1.6809,0.0,0.0,0.0,0.0,-1.5585,-1.7326,0.0,0.0,-2.1356,-2.2291,-2.3012,-2.3012,-2.2622,-2.1862,-2.1784,-2.0899,-1.9169,-1.6639,-1.4917,0.0,0.0,0.0,0.0,0.0,-1.7454,-1.906,-1.9948,-2.0369,-2.0317,-2.0237,-2.0196,-2.0168,-1.8524,-1.6797,-1.5066,-1.4133,-1.2926,-1.134,-1.038,0.0,0.0,0.0,0.0,0.0,0.0,0.0,0.0,0.0,0.0,0.0,0.0,0.0,0.0,0.0,0.0,0.0,0.0,0.0,0.0,-0.706,0.0,0.0,0.0,0.0,0.0,0.0,0.0,0.0,0.0,-0.9782,-1.476,-1.6262,-1.6473,-1.5303,0.0,0.0,0.0,0.0,-1.6326,-1.9482,-1.7189,-1.5037,-1.4841,-1.3328,-1.217,-1.2094,0.0,0.0,-1.2021,-1.1876,-1.2257,-1.3821,-1.6405,-1.7682,-1.4585,-1.274,-1.2311,-1.3757,-1.3076,-1.2614,-1.3714,-1.357,-1.3955,-2.2355,0.0,0.0,0.0,0.0,-1.9046,-1.9034,-1.9045,-1.9299,-1.941,-1.9401,-1.9414,0.0,0.0,0.0,0.0,0.0,0.0,-2.0961,-2.1462,-2.232,-2.2842,-2.3109,-2.3109,-2.2953,-2.2739,-2.272,-2.2149,-2.1027,-1.9661,-1.7926,-1.5862,0.0,0.0,0.0,0.0,-1.8069,-1.9153,-1.9971,-2.0394,-2.0389,-2.025,-2.0165,-2.0136,-1.8445,-1.7282,-1.6747,-1.4782,-1.3486,-1.2983,-1.1052,0.0,0.0,0.0,0.0,0.0,0.0,0.0,0.0,0.0,0.0,0.0,0.0,0.0,0.0,0.0,0.0,0.0,0.0,0.0,-1.0896,-0.9144,-0.6961,0.0,0.0,0.0,0.0,0.0,0.0,0.0,0.0,0.0,-1.6614,-1.7341,-1.7186,0.0,0.0,-1.5145,-1.5082,-1.7059,-1.8932,-1.9874,-1.8169,0.0,-1.5132,-1.4482,-1.4073,-1.4013,-1.394,-1.3874,-1.389,-1.3713,-1.3713,-1.4164,-1.5037,-1.5379,-1.4501,-1.3816,-1.3991,-1.5411,-1.5565,-1.4851,-1.3823,-1.4593,-1.5583,-2.5868,-2.3493,-2.2818,-2.2314,-2.2018,-2.2006,-2.2014,-2.2003,-2.2006,-2.2,-2.2011,-2.2029,-2.1302,-2.0025,-2.0015,0.0,0.0,0.0,-2.354,-2.3886,-2.4405,-2.4631,-2.4643,-2.4633,-2.4257,-2.3634,-2.3614,-2.3164,-2.2282,-2.1439,-2.0223,-1.8636,0.0,-1.6766,-1.7614,-1.8141,-1.8844,-1.9707,-2.0191,-2.0439,-2.0385,-2.0269,-2.0003,-1.9574,-1.8236,-1.7335,-1.697,-1.5211,-1.4065,-1.3705,-1.2602,-1.1383,0.0,0.0,0.0,0.0,0.0,0.0,0.0,0.0,0.0,0.0,0.0,-0.4157,-0.2166,0.0,0.0,0.0,-0.6908,-0.96,-1.3325,-1.0874,0.0,0.0,0.0,0.0,0.0,0.0,0.0,-1.7984,-1.7126,-1.6872,-1.8603,-1.8835,-1.8385,-1.7186,-1.7136,-1.6942,-1.6196,0.0,-1.9988,-1.9988,-1.9154,-1.8131,-1.7132,-1.5826,-1.4908,-1.4809,-1.5026,-1.5014,-1.4738,-1.4569,-1.4477,-1.4483,-1.4535,-1.4557,-1.4464,-1.4387,-1.4579,-1.5556,-1.581,-1.5396,-1.4343,-1.5142,-1.5637,-2.8362,-2.817,-2.6643,-2.5462,-2.4623,-2.4613,-2.4619,-2.4608,-2.4607,-2.4603,-2.4596,-2.4676,-2.4227,-2.3403,-2.341,0.0,-2.4647,-2.5508,-2.6307,-2.7105,-2.7095,-2.7104,-2.7096,-2.6938,-2.6106,-2.4608,-2.453,-2.4043,-2.3186,-2.2388,-2.1958,-2.1822,-1.9443,-1.8585,-1.9247,-1.9317,-1.9712,-2.0471,-2.05,-2.0473,-2.0391,-2.0277,-1.9732,-1.8831,-1.7961,-1.7102,-1.6235,-1.5435,-1.4638,-1.3876,-1.4581,-1.3538,-1.0442,0.0,0.0,0.0,0.0,0.0,0.0,0.0,0.0,0.0,0.0,0.0,0.0,0.0,0.0,-0.579,-1.0188,0.0,-1.5168,-1.2403,0.0,0.0,0.0,-1.0583,-1.0525,-1.3275,-1.5192,-1.5286,0.0,0.0,-2.036,-2.0379,-1.9819,-1.8227,-1.9346,-1.9703,-1.8032,-1.9064,-2.0023,-2.0031,-2.0004,-1.9969,-1.9609,-1.7435,-1.568,-1.5583,-1.5669,-1.5636,-1.4913,-1.4683,-1.4706,-1.4696,-1.4706,-1.4701,-1.4706,-1.468,-1.4675,-1.4596,-1.4578,-1.4768,-1.5264,-1.5072,-1.4735,-2.9659,-2.9143,-2.9379,-2.865,-2.7279,-2.726,-2.7245,-2.7191,-2.726,-2.7276,-2.7259,-2.7286,-2.6841,-2.6079,-2.6083,-2.6168,-2.6423,-2.7285,-2.7793,-2.7984,-2.7996,-2.7967,-2.7894,-2.7211,-2.6691,-2.6283,-2.5679,-2.4959,-2.4121,-2.3867,-2.3441,-2.2757,-2.1501,-2.0641,-2.0197,-2.018,-2.0297,-2.0511,-2.051,-2.0435,-2.0337,-2.0242,-1.9752,-1.8812,-1.7961,-1.7098,-1.6231,-1.5416,-1.4908,-1.4718,-1.4885,-1.4073,-1.2015,-1.0685,0.0,0.0,0.0,0.0,0.0,0.0,0.0,0.0,0.0,-0.6786,-0.5128,0.0,-0.9924,0.0,-1.4007,-1.4952,-1.5318,-1.4577,0.0,0.0,-1.4123,-1.4167,-1.4144,-1.4051,-1.4351,-1.519,-1.6019,-1.7506,-2.0073,-2.0379,-2.0266,-1.9838,-2.0122,-2.0178,-1.9641,-1.9811,-2.0122,-2.0196,-2.0102,-1.9993,-1.9931,-1.9406,-1.8684,-1.8709,-1.7275,-1.5797,-1.4919,-1.4737,-1.4706,-1.4706,-1.4706,-1.4706,-1.4706,-1.4706,-1.4696,-1.4651,-1.4664,-1.4672,-1.4824,-1.4764,-1.4691,-3.0311,-2.9982,-3.0497,-3.0159,-2.9295,-2.8897,-2.8716,-2.8651,-2.8326,-2.8207,-2.8196,-2.8195,-2.8177,-2.8153,-2.8149,-2.835,-2.8721,-2.9193,-2.9431,-2.9453,-2.941,-2.9186,-2.8763,-2.7878,-2.7275,-2.6887,-2.6069,-2.5465,-2.4978,-2.4569,-2.416,-2.3653,-2.2798,-2.194,-2.1104,-2.0675,-2.0498,-2.0498,-2.0503,-2.0419,-2.0318,-2.0235,-1.9571,-1.8265,-1.7757,-1.6919,-1.5719,-1.5245,-1.5021,-1.5021,-1.5021,-1.424,-1.2587,-1.0919,-0.9191,0.0,0.0,0.0,0.0,0.0,0.0,0.0,0.0,0.0,0.0,0.0,-0.9228,-1.2703,-1.4464,-1.5701,-1.65,-1.5836,-1.5352,-1.5354,-1.6059,-1.6266,-1.5488,-1.5461,-1.6054,-1.7452,-1.7624,-1.86,-2.1143,-2.0866,-2.0537,-2.0908,-2.0653,-2.0382,-2.0288,-2.025,-2.0254,-2.0311,-2.0227,-2.0097,-2.001,-1.9988,-1.9982,-1.9817,-1.8445,-1.6706,-1.5131,-1.4764,-1.4719,-1.4712,-1.4706,-1.4706,-1.4706,-1.4706,-1.4706,-1.4706,-1.4706,-1.4696,-1.4656,-1.4685,-1.4706,-3.0776,-3.0763,-3.092,-3.0936,-3.0808,-3.0148,-2.9754,-2.9505,-2.8825,-2.8518,-2.852,-2.8526,-2.8972,-2.9757,-2.9765,-3.0138,-3.0781,-3.08,-3.0827,-3.0875,-3.0839,-3.0402,-2.963,-2.8759,-2.7918,-2.7061,-2.6244,-2.5796,-2.5679,-2.4939,-2.4569,-2.453,-2.3692,-2.2837,-2.196,-2.1102,-2.0617,-2.0498,-2.0502,-2.0446,-2.0289,-2.0231,-1.9337,-1.7614,-1.7482,-1.671,-1.5097,-1.5021,-1.5021,-1.5021,-1.5021,-1.4335,-1.2871,-1.103,-1.0101,0.0,-0.8954,0.0,0.0,0.0,0.0,0.0,0.0,0.0,0.0,-0.7867,-0.762,-1.0694,-1.3852,-1.6344,-1.7864,-1.6677,-1.5819,-1.5779,-1.7084,-1.7474,-1.6268,-1.6976,-1.8341,-2.0269,-2.0512,-2.1108,-2.2549,-2.1607,-2.103,-2.1304,-2.0834,-2.0399,-2.0379,-2.0373,-2.0373,-2.0379,-2.0334,-2.0182,-2.0041,-1.9988,-1.9988,-1.9907,-1.9157,-1.7891,-1.6006,-1.5361,-1.5204,-1.5399,-1.5596,-1.5486,-1.5338,-1.5091,-1.4706,-1.4706,-1.4706,-1.4706,-1.4701,-1.4701,-1.4706,-3.2085,-3.1562,-3.2269,-3.2213,-3.1736,-3.2258,-3.1705,-3.0441,-3.0299,-3.0255,-3.0308,-3.0294,-3.0401,-3.0578,-3.0584,-3.0664,-3.08,-3.08,-3.0827,-3.0895,-3.082,-3.0734,-3.0506,-2.9655,-2.8814,-2.7937,-2.71,-2.634,-2.5699,-2.5543,-2.5446,-2.5426,-2.4588,-2.3712,-2.2835,0.0,0.0,0.0,-2.0502,-2.0429,-2.0289,-2.0231,-1.9337,-1.7572,-1.7478,0.0,-1.5112,-1.5021,-1.5021,-1.5021,-1.5021,0.0,0.0,0.0,0.0,0.0,0.0,0.0,0.0,0.0,0.0,0.0,-1.1572,-1.1733,-1.1624,-1.2698,-1.3727,-1.4416,-1.6307,-1.763,-1.7961,-1.8118,-1.7983,-1.7572,-1.7825,-1.8372,-1.9289,-1.7435,-1.704,-2.0099,-2.0515,-2.1135,-2.2633,-2.2666,-2.1988,-2.0925,-2.0517,-2.0402,-2.0379,-2.0379,-2.0379,-2.0395,-2.0304,-2.0177,-2.002,-1.9993,-1.9993,-1.9869,-1.9266,-1.8761,-1.869,-1.7632,-1.7401,-1.8383,-1.8758,-1.8587,-1.855,-1.6582,-1.4781,-1.4706,-1.4712,-1.4706,-1.4706,-1.4706,-1.4706,-3.2635,-3.2331,-3.2802,-3.2775,0.0,-3.2972,-3.2706,-3.1937,-3.1971,-3.1785,-3.1414,-3.0985,-3.0796,-3.0796,-3.0799,-3.08,-3.08,-3.08,-3.0827,-3.0895,-3.082,-3.0793,-3.0781,-2.9907,-2.9262,-2.8795,-2.7509,-2.671,-2.6281,-2.5894,-2.5699,-2.5699,-2.5251,-2.4394,-2.3109,-2.1804,-2.0927,-2.0518,-2.0502,-2.0426,-2.0308,-2.0242,-1.9545,-1.8203,-1.7724,0.0,0.0,0.0,0.0,0.0,0.0,0.0,0.0,0.0,0.0,-1.3677,-1.379,-1.3119,-1.1607,-1.2614,-1.3374,-1.3462,-1.4632,-1.4885,-1.374,-1.4723,-1.541,-1.5469,-1.7709,-1.925,-1.9211,-1.8743,-1.8626,-1.9152,-1.9248,-1.9601,-2.017,-1.8996,-1.8614,-2.0108,-2.0511,-2.1137,-2.2818,-2.2233,-2.1662,-2.1105,-2.0654,-2.0382,-2.0386,-2.0379,-2.0379,-2.0379,-2.0346,-2.0249,-2.0074,-2.0009,-2.0003,-1.9965,-1.966,-1.9533,-1.9885,-1.9205,-1.8885,-1.9638,-1.9738,-1.9698,-1.9524,-1.7597,-1.5665,-1.4958,-1.4754,-1.4998,-1.5406,-1.5434,-1.5152,-3.3175,-3.3115,-3.3333,-3.3324,-3.3236,-3.3514,-3.3628,-3.3638,-3.3427,0.0,0.0,-3.1556,-3.1249,-3.1269,-3.1269,-3.1172,-3.1036,-3.1036,-3.0983,-3.0894,-3.082,-3.0793,-3.0762,-3.0067,-2.9557,-2.9204,-2.782,-2.6985,-2.6673,-2.6011,-2.5699,-2.5699,-2.5699,-2.4822,-2.309,-2.1356,-2.0498,-2.0518,-2.0502,-2.0432,-2.0318,-2.0246,-1.9779,-1.8858,-1.8115,-1.7375,-1.6559,-1.5865,-1.5476,-1.5457,-1.5167,-1.5006,-1.5021,-1.5021,-1.5159,-1.5457,-1.5535,-1.5,-1.3716,-1.4291,-1.5033,-1.5805,-1.7274,-1.7631,-1.6365,-1.6034,-1.5975,-1.6287,-1.8862,-2.0498,-2.0498,-1.9308,-1.8977,-2.0362,-2.0498,-2.0479,-2.0501,-2.0529,-2.0659,-2.1303,-2.1605,-2.1797,-2.2863,-2.1625,-2.0716,-2.1226,-2.0817,-2.0408,-2.0392,-2.0379,-2.0379,-2.0379,-2.037,-2.0332,-2.0165,-2.0093,-2.0089,-2.0089,-2.0064,-2.0043,-1.9996,-1.9952,-1.9908,-1.9841,-1.9861,-1.9854,-1.9755,-1.8615,-1.7142,-1.577,-1.5386,-1.5617,-1.6554,-1.676,-1.6401,-3.445,-3.3911,-3.4657,-3.4623,-3.4097,-3.4858,-3.5277,-3.5311,-3.3996,-3.3321,-3.32,-3.3098,-3.3045,-3.3025,-3.3045,-3.2635,-3.1934,-3.1914,-3.1567,-3.0889,-3.082,-3.0797,-3.0788,-3.0682,-2.9838,-2.8444,-2.8132,-2.7277,-2.5991,-2.5757,-2.5699,-2.5699,-2.5699,-2.4822,-2.3109,-2.1375,-2.0498,-2.0498,-2.0508,-2.0425,-2.0304,-2.0295,-1.9846,-1.8942,-1.8785,-1.8329,-1.7531,-1.7377,-1.732,-1.7278,-1.5838,-1.5011,-1.5025,-1.5021,-1.5689,-1.7178,-1.7369,-1.7308,-1.7094,-1.7271,-1.7442,-1.7644,-1.8292,-1.8978,-1.968,-1.8469,-1.8235,-1.9602,-2.0206,-2.0498,-2.0479,-2.0245,-2.0167,-2.044,-2.0498,-2.0519,-2.066,-2.0586,-2.1678,-2.4351,-2.496,-2.4157,-2.311,-2.1664,-2.068,-2.0692,-2.0667,-2.0465,-2.0398,-2.0379,-2.0379,-2.0379,-2.0379,-2.0327,-2.0227,-2.0226,-2.0229,-2.0203,-2.0167,-2.0135,-2.004,-2.0015,-2.002,-2.0064,-2.0084,-2.0112,-2.0055,-1.9762,-1.8913,-1.803,-1.7543,-1.7644,-1.8303,-1.881,-1.8788,-3.498,-3.4702,-3.512,-3.5134,-3.4892,-3.5424,-3.5736,-3.5794,-3.5115,-3.4529,-3.4085,-3.3626,-3.3396,-3.3396,-3.3396,-3.2929,-3.211,-3.211,-3.1665,-3.0908,-3.0819,-3.08,-3.0795,-3.0795,-3.0152,-2.8913,-2.8411,-2.7567,-2.642,-2.5913,-2.5699,-2.564,-2.4764,-2.3655,-2.2387,-2.1141,-2.0498,-2.0498,-2.0508,-2.0449,-2.0363,-2.0318,-2.011,-1.9658,-1.9216,-1.8777,-1.842,-1.7962,-1.7696,-1.7692,-1.6608,-1.612,-1.6422,-1.5536,-1.6212,-1.888,-1.9168,-1.8825,-1.7898,-1.8316,-1.8828,-1.9326,-1.9583,-1.9915,-2.0459,-1.9816,-1.9678,-2.042,-2.0498,-2.0498,-2.0498,-2.0498,-2.0498,-2.0498,-2.0498,-2.1283,-2.2713,-2.1543,-2.1971,-2.4831,-2.4036,-2.2988,-2.3102,-2.2397,-2.1762,-2.1473,-2.0979,-2.0534,-2.0457,-2.046,-2.0479,-2.0408,-2.0379,-2.036,-2.0269,-2.0299,-2.0327,-2.0273,-2.0245,-2.0229,-2.0167,-2.0162,-2.0188,-2.0246,-2.03,-2.03,-2.0292,-2.0112,-1.9659,-1.9145,-1.9913,-2.018,-1.994,-2.0494,-2.0649,-3.5209,-3.5234,-3.5278,-3.5343,-3.5438,-3.5502,-3.5564,-3.5605,-3.5639,-3.5341,-3.4679,-3.4176,-3.3982,-3.3982,-3.3982,-3.3417,-3.248,-3.2384,-3.1858,-3.0926,-3.0836,-3.08,-3.08,-3.0786,-3.0245,-2.9258,-2.8515,-2.7645,-2.6652,-2.5991,-2.5699,-2.5543,-2.4142,-2.3051,-2.2387,-2.1512,-2.1102,-2.1101,-2.1076,-2.0866,-2.0426,-2.0365,-2.0314,-2.0284,-1.9668,-1.9305,-1.9267,-1.8657,-1.8313,-1.8291,-1.7872,-1.7832,-1.8216,-1.6938,-1.7409,-1.9989,-2.0405,-1.9857,-1.8688,-1.9098,-1.9777,-2.044,-2.0498,-2.0498,-2.0498,-2.0498,-2.0498,-2.0498,-2.0498,-2.0596,-2.083,-2.0635,-2.0695,-2.1144,-2.0773,-2.1881,-2.4758,-2.3306,-2.2662,-2.4926,-2.3326,-2.2435,-2.3281,-2.3443,-2.3025,-2.2365,-2.1634,-2.1097,-2.1043,-2.1308,-2.1634,-2.1412,-2.0956,-2.0389,-2.032,-2.0356,-2.0372,-2.0342,-2.0315,-2.0319,-2.0312,-2.0315,-2.0334,-2.0418,-2.0801,-2.1049,-2.1007,-2.0778,-2.0478,-2.023,-2.135,-2.2216,-2.1376,-2.2226,-2.2524,-3.5245,-3.5285,-3.5312,-3.5418,-3.5484,-3.4986,-3.4737,-3.4737,-3.4791,-3.4782,-3.4743,-3.5426,-3.5699,-3.5758,-3.5699,-3.4802,-3.3318,-3.3279,-3.2383,-3.094,-3.0793,-3.0799,-3.0801,-3.0791,-2.9936,-2.8538,-2.8264,-2.7411,-2.6011,-2.5777,-2.5699,-2.5601,-2.4744,-2.4179,-2.4023,-2.3244,-2.2835,-2.2854,-2.2872,-2.2092,-2.0611,-2.0424,-2.039,-2.0373,-2.0315,-2.0257,-2.0215,-2.0199,-2.0141,-2.0144,-2.0022,-2.0038,-2.0047,-1.9764,-1.9869,-2.0415,-2.0489,-2.0387,-2.0258,-2.0333,-2.0381,-2.0498,-2.0498,-2.0498,-2.0498,-2.0498,-2.0498,-2.0498,-2.0498,-2.0906,-2.182,-2.112,-2.1341,-2.3062,-2.189,-2.1861,-2.4857,-2.5453,-2.5395,-2.557,-2.5141,-2.5298,-2.511,-2.4531,-2.3753,-2.3274,-2.3054,-2.286,-2.2935,-2.3882,-2.4404,-2.4142,-2.2523,-2.0621,-2.0395,-2.0376,-2.0376,-2.0389,-2.0389,-2.0386,-2.0379,-2.0382,-2.0376,-2.0508,-2.143,-2.2107,-2.2362,-2.2286,-2.1994,-2.183,-2.2404,-2.2974,-2.3274,-2.4077,-2.4047,-3.5269,-3.5312,-3.5383,-3.5232,-3.4923,-3.4685,-3.4311,-3.3912,-3.3916,-3.4217,-3.4707,-3.5076,-3.5506,-3.5992,-3.6012,-3.5329,-3.4159,-3.3632,-3.2753,-3.1582,-3.1041,-3.0814,-3.0858,-3.0817,-3.0143,-2.8998,-2.8462,-2.7587,-2.6515,-2.5952,-2.5446,-2.4939,-2.4569,-2.414,-2.3653,-2.3283,-2.3109,-2.3108,-2.3108,-2.2736,-2.2032,-2.1441,-2.0906,-2.0444,-2.0379,-2.0379,-2.0379,-2.0379,-2.0379,-2.0382,-2.0379,-2.0379,-2.0382,-2.0325,-2.0328,-2.0487,-2.0509,-2.0517,-2.0515,-2.0511,-2.0498,-2.0498,-2.0498,-2.0498,-2.0498,-2.0498,-2.0498,-2.0498,-2.0518,-2.0964,-2.1935,-2.1179,-2.1438,-2.3436,-2.3678,-2.4151,-2.5446,-2.5692,-2.5687,-2.5687,-2.5687,-2.5687,-2.5652,-2.5312,-2.4933,-2.4676,-2.4633,-2.4557,-2.4674,-2.5286,-2.4648,-2.2953,-2.1266,-2.0604,-2.0413,-2.039,-2.0387,-2.0401,-2.0382,-2.0382,-2.0386,-2.0382,-2.0379,-2.0379,-2.1059,-2.1952,-2.271,-2.271,-2.2587,-2.2743,-2.3308,-2.3847,-2.4476,-2.4981,-2.4827,-3.5308,-3.532,-3.5218,-3.4892,-3.4436,-3.4043,-3.3573,-3.3099,-3.3039,-3.3534,-3.4334,-3.4588,-3.5174,-3.5934,-3.6012,-3.5524,-3.4666,-3.3807,-3.2949,-3.207,-3.1211,-3.0826,-3.0894,-3.0839,-3.0228,-2.9203,-2.851,-2.763,-2.6615,-2.6011,-2.5368,-2.4822,-2.4764,-2.4432,-2.3889,-2.3809,-2.3828,-2.3807,-2.3789,-2.365,-2.3312,-2.2741,-2.1894,-2.0872,-2.0518,-2.0379,-2.0379,-2.0379,-2.0379,-2.0382,-2.0385,-2.0393,-2.0379,-2.0395,-2.0441,-2.0488,-2.0503,-2.0506,-2.0501,-2.0513,-2.0498,-2.0498,-2.0498,-2.0498,-2.0498,-2.0498,-2.0498,-2.0578,-2.1357,-2.2348,-2.2404,-2.2211,-2.2744,-2.4318,-2.5251,-2.5696,-2.5703,-2.5696,-2.5687,-2.5687,-2.5687,-2.5687,-2.5691,-2.5663,-2.558,-2.5587,-2.5621,-2.5699,-2.5446,-2.4861,-2.3468,-2.2036,-2.129,-2.0475,-2.0448,-2.0421,-2.0435,-2.0399,-2.0393,-2.0379,-2.0386,-2.0382,-2.0379,-2.0379,-2.0379,-2.1021,-2.2536,-2.2865,-2.3271,-2.3151,-2.3697,-2.4617,-2.5066,-2.5313,-2.5313,-3.535,-3.5285,-3.4645,-3.4395,-3.4287,-3.2827,-3.2177,-3.2153,-3.214,-3.2656,-3.3573,-3.4295,-3.5174,-3.5992,-3.6012,-3.5545,-3.4686,-3.3807,-3.2968,-3.2129,-3.1231,-3.0844,-3.0889,-3.082,-2.9958,-2.8625,-2.8229,-2.7328,-2.5876,-2.5738,-2.5699,-2.5621,-2.5563,-2.5582,-2.5446,-2.5407,-2.5543,-2.5385,-2.5347,-2.5051,-2.4344,-2.4173,-2.3289,-2.1804,-2.085,-2.046,-2.0421,-2.0402,-2.0382,-2.0382,-2.0382,-2.0377,-2.0388,-2.0413,-2.0434,-2.049,-2.0518,-2.0518,-2.0518,-2.0498,-2.0498,-2.0498,-2.0498,-2.0498,-2.0498,-2.0498,-2.0498,-2.0518,-2.3302,-2.4744,-2.408,-2.4452,-2.5065,-2.5395,-2.5603,-2.5696,-2.5703,-2.5697,-2.5689,-2.5687,-2.5687,-2.5687,-2.5688,-2.5702,-2.57,-2.5688,-2.5704,-2.5701,-2.5348,-2.3109,-2.2736,-2.3844,-2.2828,-2.0583,-2.0567,-2.0473,-2.0459,-2.0438,-2.0396,-2.0386,-2.0382,-2.0379,-2.0418,-2.0379,-2.0379,-2.104,-2.242,-2.3445,-2.4122,-2.4405,-2.4687,-2.5335,-2.5344,-2.5322,-2.5322,-3.5407,-3.5392,-3.4614,-3.403,-3.3465,-3.2451,-3.1746,-3.1263,-3.1279,-3.209,-3.3299,-3.3749,-3.4645,-3.6012,-3.6012,-3.5836,-3.5408,-3.404,-3.3221,-3.2772,-3.1464,-3.0824,-3.083,-3.0292,-2.9726,-2.9078,-2.7987,-2.6851,-2.5837,-2.5699,-2.5699,-2.5699,-2.5699,-2.5699,-2.5699,-2.5699,-2.5699,-2.5697,-2.5619,-2.544,-2.5099,-2.4597,-2.3964,-2.329,-2.1952,-2.124,-2.122,-2.0704,-2.0379,-2.0379,-2.0385,-2.0377,-2.0402,-2.0426,-2.0459,-2.0495,-2.0498,-2.0498,-2.0498,-2.0498,-2.0498,-2.0498,-2.0498,-2.0498,-2.0498,-2.0498,-2.0498,-2.1102,-2.3655,-2.529,-2.529,-2.5465,-2.5687,-2.5707,-2.5701,-2.5695,-2.5703,-2.5698,-2.5687,-2.5687,-2.5687,-2.5687,-2.5691,-2.57,-2.5703,-2.5698,-2.5705,-2.5707,-2.5588,-2.4432,-2.4238,-2.5134,-2.4725,-2.3846,-2.3835,-2.1692,-2.0506,-2.0464,-2.0438,-2.0468,-2.0453,-2.0769,-2.0863,-2.0437,-2.0379,-2.1214,-2.2652,-2.3793,-2.4563,-2.5124,-2.546,-2.5429,-2.5427,-2.5406,-2.536,-3.5455,-3.5335,-3.432,-3.3545,-3.2967,-3.1984,-3.1267,-3.0794,-3.0804,-3.1777,-3.3162,-3.3396,-3.4372,-3.5817,-3.6012,-3.6012,-3.5817,-3.4216,-3.3396,-3.3221,-3.1601,-3.0823,-3.075,-3.0211,-2.9804,-2.9414,-2.8113,-2.7054,-2.6525,-2.6227,-2.6089,-2.6089,-2.5835,-2.5699,-2.5699,-2.5699,-2.5699,-2.5675,-2.5639,-2.5595,-2.5523,-2.503,-2.4691,-2.4443,-2.3246,-2.2395,-2.2094,-2.1272,-2.0836,-2.0806,-2.0562,-2.0422,-2.0447,-2.0474,-2.0498,-2.0498,-2.0498,-2.0498,-2.0498,-2.0498,-2.0498,-2.0498,-2.0498,-2.0498,-2.0498,-2.0498,-2.0498,-2.12,-2.3614,-2.5699,-2.5699,-2.5699,-2.5687,-2.5705,-2.5702,-2.5697,-2.5703,-2.5696,-2.5689,-2.5687,-2.5687,-2.5687,-2.5689,-2.5697,-2.5703,-2.5701,-2.5693,-2.5694,-2.5689,-2.5699,-2.5699,-2.5699,-2.5621,-2.5368,-2.5009,-2.3244,-2.1677,-2.1444,-2.124,-2.1058,-2.1107,-2.1362,-2.1346,-2.0769,-2.0924,-2.1759,-2.2803,-2.4002,-2.4776,-2.5376,-2.5488,-2.546,-2.5452,-2.5476,-2.5427,-3.5519,-3.5257,-3.3641,-3.3069,-3.2797,-3.1374,-3.0672,-3.0714,-3.076,-3.1775,-3.3258,-3.3396,-3.4372,-3.5758,-3.6012,-3.6012,-3.5699,-3.4294,-3.3474,-3.324,-3.1601,-3.08,-3.0783,-3.0617,-3.0114,-2.9452,-2.8605,-2.8153,-2.794,-2.7188,-2.6792,-2.671,-2.605,-2.5699,-2.5699,-2.5699,-2.5699,-2.5675,-2.5622,-2.5612,-2.5601,-2.5528,-2.5441,-2.5332,-2.4606,-2.3831,-2.3007,-2.2165,-2.1678,-2.1535,-2.0941,-2.0538,-2.0502,-2.0506,-2.0498,-2.0498,-2.0498,-2.0498,-2.0498,-2.0498,-2.0498,-2.0498,-2.0498,-2.0498,-2.0498,-2.0498,-2.0498,-2.0985,-2.3536,-2.5699,-2.5699,-2.5699,-2.5707,-2.5699,-2.5704,-2.57,-2.5702,-2.5695,-2.5687,-2.5687,-2.5687,-2.5687,-2.569,-2.5696,-2.5703,-2.5701,-2.569,-2.569,-2.5705,-2.5699,-2.5699,-2.5699,-2.5699,-2.5699,-2.5286,-2.4676,-2.354,-2.2637,-2.2396,-2.2214,-2.2457,-2.2708,-2.2923,-2.249,-2.2026,-2.2819,-2.3964,-2.5008,-2.5085,-2.5507,-2.5488,-2.5488,-2.5488,-2.5503,-2.5507,-3.6,-3.5385,-3.4276,-3.3487,-3.2833,-3.1278,-3.0618,-3.071,-3.0782,-3.1785,-3.3176,-3.3395,-3.4353,-3.5699,-3.6012,-3.6012,-3.5914,-3.4803,-3.4003,-3.3201,-3.162,-3.08,-3.0704,-3.0259,-2.9523,-2.8788,-2.8437,-2.825,-2.8115,-2.7383,-2.6944,-2.6753,-2.6108,-2.5718,-2.5699,-2.5699,-2.5699,-2.5697,-2.5639,-2.5615,-2.5601,-2.5605,-2.5548,-2.5469,-2.5231,-2.4985,-2.472,-2.3375,-2.235,-2.1798,-2.1505,-2.1133,-2.0644,-2.0508,-2.0498,-2.0498,-2.0498,-2.0498,-2.0498,-2.0498,-2.0498,-2.0498,-2.0498,-2.0498,-2.0498,-2.0498,-2.0498,-2.083,-2.3614,-2.5699,-2.5699,-2.5705,-2.5692,-2.5697,-2.5704,-2.57,-2.5702,-2.5695,-2.5689,-2.5687,-2.5687,-2.5687,-2.5689,-2.5696,-2.5702,-2.5701,-2.5692,-2.5696,-2.5689,-2.5699,-2.5699,-2.5699,-2.5699,-2.5699,-2.5422,-2.5247,-2.4697,-2.3912,-2.3603,-2.3327,-2.3592,-2.3889,-2.4128,-2.4095,-2.3651,-2.3883,-2.5043,-2.5507,-2.5507,-2.5507,-2.5507,-2.5507,-2.5507,-2.5507,-2.5507,-3.6596,-3.6276,-3.4821,-3.3923,-3.3221,-3.141,-3.0595,-3.0674,-3.074,-3.1595,-3.2775,-3.3256,-3.4157,-3.5368,-3.5836,-3.6012,-3.5895,-3.5076,-3.4413,-3.3671,-3.209,-3.1153,-3.082,-3.0313,-2.9813,-2.9333,-2.9238,-2.9197,-2.9102,-2.802,-2.7422,-2.7248,-2.6266,-2.5699,-2.5699,-2.5699,-2.5699,-2.5695,-2.5641,-2.5598,-2.561,-2.5612,-2.5564,-2.5538,-2.5547,-2.5562,-2.5499,-2.4505,-2.357,-2.2664,-2.1883,-2.1058,-2.054,-2.0511,-2.0498,-2.0498,-2.0498,-2.0498,-2.0498,-2.0498,-2.0498,-2.0498,-2.0498,-2.0498,-2.0498,-2.0498,-2.0498,-2.0927,-2.3655,-2.5701,-2.5691,-2.5699,-2.5704,-2.5704,-2.5705,-2.5701,-2.57,-2.5693,-2.5688,-2.5687,-2.5687,-2.5687,-2.5689,-2.5694,-2.5702,-2.5702,-2.5698,-2.5703,-2.5697,-2.5699,-2.5699,-2.5699,-2.5699,-2.5699,-2.5699,-2.566,-2.566,-2.5262,-2.4864,-2.4574,-2.4496,-2.4829,-2.5101,-2.5019,-2.4695,-2.4579,-2.5507,-2.5507,-2.5507,-2.5507,-2.5511,-2.5507,-2.5507,-2.5507,-2.5507,-3.7288,-3.7642,-3.5372,-3.4392,-3.3981,-3.1771,-3.0814,-3.0719,-3.0803,-3.1436,-3.2331,-3.3095,-3.3964,-3.4861,-3.5719,-3.6012,-3.5875,-3.5271,-3.4783,-3.4217,-3.2949,-3.1758,-3.0878,-3.0684,-3.0573,-3.058,-3.0603,-3.0664,-3.0423,-2.9028,-2.827,-2.8117,-2.6841,-2.5894,-2.6089,-2.5894,-2.5972,-2.589,-2.5777,-2.5739,-2.564,-2.5613,-2.5604,-2.5604,-2.5579,-2.5612,-2.5566,-2.5413,-2.5041,-2.4107,-2.1887,-2.0612,-2.0518,-2.0498,-2.0518,-2.0791,-2.0713,-2.0732,-2.0674,-2.0732,-2.0615,-2.0537,-2.0498,-2.0576,-2.0713,-2.1219,-2.1492,-2.1551,-2.4007,-2.5692,-2.569,-2.5697,-2.5698,-2.5698,-2.5695,-2.5703,-2.5694,-2.5687,-2.5687,-2.5687,-2.5687,-2.5687,-2.5687,-2.5692,-2.57,-2.5703,-2.5701,-2.569,-2.5699,-2.5699,-2.5699,-2.5699,-2.5718,-2.5699,-2.5699,-2.5699,-2.5699,-2.56,-2.5399,-2.5271,-2.5119,-2.5396,-2.5557,-2.5538,-2.5507,-2.5507,-2.5507,-2.5507,-2.5515,-2.5523,-2.5519,-2.5511,-2.5515,-2.5503,-2.5511,-3.8373,-3.7853,-3.6584,-3.5713,-3.4937,-3.3116,-3.1985,-3.1543,-3.1605,-3.2091,-3.2903,-3.3248,-3.4216,-3.5582,-3.5856,-3.6012,-3.5914,-3.5738,-3.5252,-3.4608,-3.3612,-3.2206,-3.1054,-3.08,-3.0803,-3.0807,-3.0831,-3.0856,-3.0723,-2.9686,-2.9169,-2.9128,-2.7989,-2.7489,-2.7532,-2.745,-2.7158,-2.6671,-2.6563,-2.6238,-2.5739,-2.5656,-2.5598,-2.5598,-2.5608,-2.5619,-2.5669,-2.5671,-2.5258,-2.4278,-2.1912,-2.0518,-2.0537,-2.0518,-2.1063,-2.2213,-2.2388,-2.2172,-2.1801,-2.1568,-2.12,-2.0576,-2.0537,-2.0869,-2.1762,-2.3361,-2.414,-2.4475,-2.5363,-2.5694,-2.5691,-2.5693,-2.5694,-2.5701,-2.5762,-2.5776,-2.5711,-2.5687,-2.5687,-2.5687,-2.5687,-2.5707,-2.5863,-2.5787,-2.5813,-2.582,-2.5761,-2.5696,-2.569,-2.5738,-2.5738,-2.5777,-2.5777,-2.5718,-2.5699,-2.5699,-2.5699,-2.5699,-2.5638,-2.5636,-2.552,-2.5551,-2.5573,-2.5511,-2.5515,-2.5507,-2.5507,-2.5507,-2.5519,-2.5515,-2.5536,-2.552,-2.5517,-2.5517,-2.5511,-3.9207,-3.895,-3.7738,-3.6764,-3.5823,-3.4225,-3.3045,-3.2343,-3.207,-3.247,-3.3175,-3.3381,-3.4177,-3.5408,-3.5836,-3.6012,-3.6012,-3.6012,-3.5719,-3.5133,-3.3962,-3.244,-3.1152,-3.08,-3.08,-3.0801,-3.0844,-3.0832,-3.0661,-2.9999,-2.9627,-2.9359,-2.8645,-2.8221,-2.8123,-2.8173,-2.7996,-2.7528,-2.742,-2.716,-2.6727,-2.6311,-2.6157,-2.6043,-2.5857,-2.563,-2.5697,-2.5699,-2.5288,-2.4388,-2.3242,-2.2077,-2.0636,-2.0498,-2.1628,-2.3848,-2.4179,-2.3751,-2.2775,-2.2406,-2.2133,-2.1551,-2.1045,-2.1435,-2.282,-2.4689,-2.5701,-2.5606,-2.5702,-2.5696,-2.5701,-2.5702,-2.5703,-2.576,-2.6104,-2.6195,-2.5804,-2.5687,-2.5687,-2.5687,-2.5726,-2.6078,-2.6585,-2.6488,-2.6494,-2.6539,-2.6131,-2.5916,-2.5706,-2.5782,-2.6322,-2.6926,-2.7297,-2.755,-2.6907,-2.6576,-2.6693,-2.6615,-2.6712,-2.6576,-2.594,-2.5814,-2.558,-2.5522,-2.5523,-2.5507,-2.5507,-2.5519,-2.5522,-2.5543,-2.5548,-2.5612,-2.565,-2.5556,-2.5544,-3.9823,-4.0342,-3.8777,-3.7623,-3.668,-3.5167,-3.3903,-3.2957,-3.2529,-3.269,-3.3248,-3.3472,-3.4212,-3.4881,-3.5758,-3.6012,-3.6012,-3.6012,-3.5738,-3.5036,-3.3865,-3.2284,-3.0937,-3.08,-3.08,-3.08,-3.08,-3.0787,-3.0657,-3.0074,-2.9805,-2.9703,-2.899,-2.8603,-2.8783,-2.8653,-2.8448,-2.8346,-2.832,-2.816,-2.7787,-2.7177,-2.6731,-2.6619,-2.5977,-2.5671,-2.5677,-2.566,-2.5368,-2.4569,-2.529,-2.379,-2.1336,-2.0908,-2.2486,-2.4783,-2.5368,-2.4822,-2.3712,-2.3382,-2.3327,-2.3114,-2.1887,-2.1714,-2.3671,-2.5035,-2.5704,-2.5706,-2.5702,-2.5703,-2.5703,-2.5702,-2.5699,-2.579,-2.6566,-2.6643,-2.6449,-2.6078,-2.5922,-2.5687,-2.5687,-2.6546,-2.7503,-2.7894,-2.7604,-2.7472,-2.7045,-2.6757,-2.6869,-2.7272,-2.8303,-2.9593,-2.9808,-2.9886,-2.8777,-2.7569,-2.7745,-2.7862,-2.8115,-2.7879,-2.6587,-2.6167,-2.5738,-2.561,-2.6026,-2.5917,-2.5507,-2.5526,-2.5726,-2.6052,-2.6379,-2.6186,-2.5946,-2.5714,-2.5622,-4.0342,-4.04,-3.9457,-3.8527,-3.7642,-3.6584,-3.4963,-3.3122,-3.3611,-3.3545,-3.356,-3.4077,-3.4864,-3.569,-3.5872,-3.6012,-3.5992,-3.5875,-3.5329,-3.3845,-3.2929,-3.1856,-3.0937,-3.08,-3.08,-3.08,-3.08,-3.0803,-3.0708,-3.0636,-3.0582,-3.043,-3.0193,-3.0204,-3.0126,-2.9996,-2.9866,-2.9364,-2.9221,-2.8887,-2.8264,-2.7483,-2.6918,-2.6766,-2.6085,-2.5714,-2.5697,-2.5699,-2.5601,-2.5524,-2.5446,-2.4647,-2.3186,-2.3673,-2.4705,-2.529,-2.5699,-2.5485,-2.5097,-2.4498,-2.4429,-2.4751,-2.389,-2.354,-2.4141,-2.5156,-2.5648,-2.5699,-2.5702,-2.5717,-2.5837,-2.5735,-2.575,-2.5884,-2.6156,-2.7248,-2.8809,-2.8459,-2.719,-2.6293,-2.5922,-2.639,-2.8127,-2.9338,-2.9104,-2.8521,-2.8132,-2.7823,-2.8164,-2.8689,-2.9601,-3.0786,-3.0704,-3.0433,-2.97,-2.8727,-2.8981,-2.9041,-2.9234,-2.9264,-2.7972,-2.6924,-2.6623,-2.6624,-2.6796,-2.6575,-2.6501,-2.6335,-2.6703,-2.698,-2.7301,-2.7143,-2.6901,-2.6359,-2.6035,-3.9938,-3.9938,-3.9881,-3.9142,-3.795,-3.7065,-3.5726,-3.4306,-3.3784,-3.4037,-3.4385,-3.4667,-3.5156,-3.5929,-3.5985,-3.6012,-3.5895,-3.5506,-3.4452,-3.3046,-3.2246,-3.1641,-3.0937,-3.08,-3.08,-3.08,-3.08,-3.08,-3.0801,-3.0824,-3.0792,-3.0798,-3.0801,-3.0678,-3.0799,-3.0786,-3.0533,-3.0221,-3.01,-2.9847,-2.934,-2.8171,-2.6944,-2.6459,-2.5933,-2.5699,-2.5699,-2.5705,-2.5705,-2.5705,-2.5662,-2.5329,-2.461,-2.5153,-2.5621,-2.5699,-2.5699,-2.5699,-2.5525,-2.5327,-2.519,-2.5634,-2.5082,-2.5003,-2.5012,-2.5466,-2.5642,-2.5701,-2.5741,-2.5866,-2.6435,-2.6844,-2.6644,-2.6058,-2.6702,-2.8323,-2.9961,-2.9532,-2.8693,-2.7835,-2.7308,-2.7892,-2.9005,-3.0021,-3.0216,-2.9456,-2.9612,-2.9363,-2.9492,-2.9948,-3.0134,-3.0795,-3.0784,-3.057,-3.0133,-2.9924,-3.026,-3.0262,-3.0205,-3.0154,-2.9554,-2.8566,-2.7687,-2.7579,-2.7446,-2.8274,-2.8232,-2.8008,-2.7953,-2.8703,-2.8945,-2.8523,-2.8122,-2.7779,-2.7472,-3.9111,-3.9142,-3.9842,-3.9227,-3.7815,-3.6981,-3.6105,-3.5053,-3.3986,-3.4293,-3.5218,-3.4922,-3.5304,-3.5795,-3.5962,-3.5991,-3.5738,-3.4842,-3.3651,-3.2695,-3.1973,-3.1426,-3.0898,-3.08,-3.08,-3.08,-3.08,-3.08,-3.08,-3.0801,-3.0807,-3.0795,-3.0819,-3.0819,-3.0807,-3.0791,-3.0753,-3.065,-3.0645,-3.0645,-3.0392,-2.9126,-2.7684,-2.6361,-2.5816,-2.572,-2.5705,-2.5692,-2.5699,-2.5699,-2.5691,-2.5705,-2.5703,-2.5699,-2.5701,-2.5703,-2.5707,-2.5691,-2.5697,-2.5634,-2.5633,-2.5703,-2.5662,-2.566,-2.5662,-2.5644,-2.5683,-2.5703,-2.5779,-2.6273,-2.7463,-2.7542,-2.7229,-2.6839,-2.7952,-2.9377,-3.0294,-2.9923,-2.9845,-3.0078,-2.9161,-2.9161,-2.961,-3.0294,-3.0411,-3.0528,-3.0684,-3.0807,-3.0839,-3.0836,-3.0817,-3.0807,-3.0806,-3.0815,-3.0425,-3.03,-3.0729,-3.0796,-3.0796,-3.0702,-3.055,-2.9912,-2.8924,-2.8085,-2.812,-2.9012,-2.9485,-2.9117,-2.9421,-3.0406,-3.0317,-2.9598,-2.9312,-2.9199,-2.8906,-3.8219,-3.8219,-3.8354,-3.7815,-3.6981,-3.675,-3.5848,-3.4687,-3.4872,-3.4889,-3.4739,-3.5278,-3.5651,-3.588,-3.5958,-3.5991,-3.5582,-3.4549,-3.3534,-3.2773,-3.1895,-3.1036,-3.0859,-3.08,-3.08,-3.08,-3.08,-3.08,-3.08,-3.0801,-3.0783,-3.0826,-3.0853,-3.0859,-3.0816,-3.0784,-3.0783,-3.0793,-3.0786,-3.0784,-3.0533,-2.9695,-2.8409,-2.6852,-2.627,-2.5999,-2.5832,-2.5767,-2.5698,-2.5701,-2.5692,-2.5687,-2.5687,-2.5696,-2.5699,-2.5705,-2.5689,-2.5694,-2.5699,-2.5688,-2.57,-2.5703,-2.5703,-2.5703,-2.5703,-2.5702,-2.5701,-2.5697,-2.5851,-2.6488,-2.8537,-2.7953,-2.7718,-2.7776,-2.8342,-2.9239,-3.0332,-3.0586,-3.0411,-3.0644,-3.0332,-3.0098,-3.0312,-3.047,-3.0567,-3.0645,-3.0722,-3.08,-3.0811,-3.082,-3.0794,-3.0813,-3.0855,-3.0831,-3.0737,-3.068,-3.0799,-3.08,-3.0798,-3.0787,-3.0718,-3.0741,-3.0139,-2.9283,-2.9206,-2.9972,-3.0159,-2.9978,-3.0194,-3.0687,-3.0619,-3.0469,-3.0253,-3.0019,-3.0234,-3.7315,-3.7365,-3.7796,-3.7488,-3.6712,-3.6231,-3.5641,-3.4931,-3.4899,-3.4936,-3.5134,-3.5521,-3.5774,-3.5861,-3.5974,-3.5797,-3.5133,-3.4588,-3.3593,-3.2714,-3.1875,-3.1172,-3.0859,-3.08,-3.08,-3.08,-3.08,-3.08,-3.08,-3.08,-3.08,-3.0823,-3.085,-3.0858,-3.0819,-3.0793,-3.0798,-3.0792,-3.0802,-3.0802,-3.0724,-2.9946,-2.8796,-2.7862,-2.7279,-2.7089,-2.7042,-2.7051,-2.6806,-2.6399,-2.595,-2.5754,-2.5696,-2.5698,-2.5698,-2.5696,-2.5695,-2.5694,-2.5695,-2.5699,-2.5703,-2.5698,-2.5718,-2.5698,-2.5697,-2.5697,-2.5696,-2.5711,-2.5707,-2.6097,-2.7112,-2.7483,-2.8323,-2.9279,-2.9532,-2.9922,-3.0527,-3.0742,-3.08,-3.08,-3.0605,-3.0488,-3.0605,-3.0722,-3.0761,-3.08,-3.08,-3.08,-3.08,-3.0795,-3.0801,-3.082,-3.084,-3.0849,-3.0827,-3.0818,-3.0787,-3.0795,-3.08,-3.08,-3.0797,-3.0792,-3.0797,-3.0409,-3.0686,-3.073,-3.065,-3.0399,-3.0682,-3.0859,-3.0781,-3.0723,-3.082,-3.0898,-3.0918,-3.6469,-3.6519,-3.7219,-3.7103,-3.6442,-3.5981,-3.5654,-3.5385,-3.5007,-3.5111,-3.5538,-3.5674,-3.5725,-3.5824,-3.5864,-3.5641,-3.494,-3.4822,-3.3807,-3.2714,-3.2148,-3.1602,-3.0997,-3.08,-3.08,-3.08,-3.08,-3.08,-3.08,-3.08,-3.08,-3.0803,-3.0846,-3.0855,-3.082,-3.0799,-3.0789,-3.0798,-3.0789,-3.0789,-3.0594,-2.9952,-2.9212,-2.8568,-2.8392,-2.8203,-2.8075,-2.8062,-2.781,-2.7129,-2.6367,-2.5703,-2.5702,-2.5695,-2.5694,-2.5702,-2.5703,-2.5703,-2.5703,-2.5703,-2.57,-2.5691,-2.5904,-2.5884,-2.5688,-2.569,-2.5689,-2.5726,-2.6213,-2.639,-2.6995,-2.7659,-2.881,-2.9688,-3.0312,-3.0781,-3.0742,-3.08,-3.08,-3.08,-3.08,-3.08,-3.08,-3.08,-3.08,-3.08,-3.08,-3.08,-3.08,-3.08,-3.0793,-3.0814,-3.0838,-3.0856,-3.0832,-3.0819,-3.0813,-3.0787,-3.0793,-3.0799,-3.08,-3.08,-3.0798,-3.0795,-3.084,-3.0827,-3.0803,-3.0774,-3.0816,-3.0859,-3.0898,-3.0918,-3.0918,-3.0918,-3.0918,-3.5635,-3.5654,-3.5788,-3.5731,-3.5788,-3.6269,-3.6135,-3.5635,-3.6077,-3.6048,-3.5706,-3.5655,-3.5725,-3.583,-3.5931,-3.5913,-3.5621,-3.5075,-3.4217,-3.3123,-3.25,-3.1738,-3.0898,-3.08,-3.08,-3.08,-3.08,-3.08,-3.08,-3.08,-3.08,-3.0801,-3.0846,-3.0874,-3.08,-3.0801,-3.08,-3.0795,-3.0794,-3.0793,-3.0677,-3.0014,-2.9565,-2.9253,-2.8843,-2.8512,-2.8612,-2.8613,-2.8398,-2.8064,-2.6652,-2.5848,-2.569,-2.5689,-2.5687,-2.569,-2.5692,-2.5715,-2.5799,-2.5974,-2.603,-2.6178,-2.645,-2.6352,-2.604,-2.6136,-2.6273,-2.5785,-2.7033,-2.7932,-2.803,-2.8479,-2.885,-2.9084,-2.9571,-3.0293,-3.0683,-3.08,-3.08,-3.08,-3.08,-3.08,-3.08,-3.08,-3.08,-3.08,-3.08,-3.08,-3.08,-3.08,-3.08,-3.0805,-3.0808,-3.082,-3.084,-3.0818,-3.0815,-3.0801,-3.0785,-3.079,-3.0792,-3.0793,-3.0789,-3.0809,-3.0856,-3.0879,-3.0854,-3.0827,-3.0832,-3.0859,-3.0898,-3.0918,-3.0918,-3.0918,-3.0918,-3.6173,-3.6192,-3.6192,-3.5904,-3.5615,-3.6346,-3.65,-3.6308,-3.6538,-3.6542,-3.6214,-3.5829,-3.5774,-3.589,-3.5967,-3.5991,-3.5914,-3.5582,-3.4645,-3.363,-3.2929,-3.2109,-3.1054,-3.08,-3.08,-3.0859,-3.08,-3.08,-3.08,-3.08,-3.08,-3.0801,-3.0823,-3.083,-3.0797,-3.0799,-3.0801,-3.08,-3.0799,-3.0798,-3.0702,-3.0449,-3.0234,-3.0195,-2.9843,-2.9668,-2.9628,-2.9705,-2.9448,-2.919,-2.848,-2.7542,-2.6253,-2.5785,-2.6039,-2.719,-2.721,-2.6979,-2.6611,-2.6904,-2.6999,-2.7056,-2.7171,-2.6722,-2.6332,-2.7386,-2.8439,-2.8653,-2.9239,-2.9629,-2.9297,-2.8692,-2.838,-2.8439,-2.8848,-2.9707,-3.0429,-3.0722,-3.08,-3.08,-3.08,-3.08,-3.08,-3.08,-3.08,-3.08,-3.08,-3.08,-3.08,-3.08,-3.08,-3.0801,-3.0803,-3.0809,-3.0812,-3.0809,-3.081,-3.08,-3.08,-3.0785,-3.0784,-3.0801,-3.08,-3.0805,-3.0853,-3.0877,-3.0879,-3.0879,-3.0879,-3.0898,-3.0918,-3.0918,-3.0918,-3.0918,-3.0918,-3.6834,-3.7007,-3.6788,-3.6346,-3.5904,-3.6673,-3.7038,-3.7038,-3.7315,-3.7158,-3.6645,-3.6067,-3.5824,-3.5955,-3.5988,-3.6009,-3.6012,-3.6012,-3.5094,-3.4157,-3.3554,-3.2871,-3.1953,-3.1425,-3.1172,-3.1094,-3.0878,-3.082,-3.08,-3.08,-3.08,-3.08,-3.0801,-3.0786,-3.0792,-3.0794,-3.0796,-3.0798,-3.08,-3.08,-3.078,-3.0778,-3.0739,-3.0759,-3.078,-3.0798,-3.0795,-3.0715,-3.034,-3.0141,-3.0235,-2.9258,-2.7717,-2.6449,-2.6624,-2.7756,-2.8439,-2.8557,-2.8071,-2.7993,-2.8264,-2.8204,-2.8204,-2.7795,-2.7755,-2.9571,-3.0761,-3.0351,-3.0488,-3.0644,-3.0468,-2.92,-2.9102,-2.8751,-2.8419,-2.9278,-3.0059,-3.0507,-3.08,-3.08,-3.08,-3.08,-3.08,-3.08,-3.08,-3.08,-3.08,-3.08,-3.08,-3.08,-3.08,-3.08,-3.0801,-3.0801,-3.0801,-3.0801,-3.0801,-3.08,-3.08,-3.08,-3.08,-3.08,-3.08,-3.0825,-3.085,-3.0876,-3.0898,-3.0918,-3.0918,-3.0918,-3.0918,-3.0918,-3.0918,-3.0918,-3.0918,-3.7199,-3.7834,-3.7038,-3.6712,-3.6699,-3.7546,-3.7911,-3.7969,-3.8719,-3.8089,-3.6813,-3.612,-3.5817,-3.5919,-3.5976,-3.6004,-3.6012,-3.6012,-3.5329,-3.4803,-3.4491,-3.3846,-3.2988,-3.2304,-3.1934,-3.1777,-3.1348,-3.0976,-3.08,-3.08,-3.08,-3.08,-3.08,-3.0801,-3.0784,-3.0786,-3.0786,-3.0789,-3.0791,-3.079,-3.0788,-3.0785,-3.0786,-3.0785,-3.0785,-3.0783,-3.0803,-3.0784,-3.0745,-3.0567,-3.0703,-3.0761,-2.9318,-2.7639,-2.7561,-2.8517,-2.9668,-2.9747,-2.9396,-2.883,-2.844,-2.8479,-2.8732,-2.922,-2.9571,-3.0156,-3.08,-3.08,-3.08,-3.08,-3.0761,-3.0605,-3.0098,-2.9863,-2.9473,-2.9863,-3.0468,-3.0547,-3.08,-3.08,-3.08,-3.08,-3.08,-3.08,-3.08,-3.08,-3.08,-3.08,-3.08,-3.08,-3.08,-3.08,-3.08,-3.0801,-3.0801,-3.08,-3.08,-3.08,-3.08,-3.08,-3.08,-3.08,-3.08,-3.0805,-3.083,-3.0876,-3.0918,-3.0918,-3.0918,-3.0918,-3.0918,-3.0918,-3.0918,-3.0918,-3.0918,-3.6885,-3.7219,-3.7411,-3.7507,-3.7584,-3.843,-3.8803,-3.8834,-3.913,-3.8387,-3.6849,-3.612,-3.5799,-3.5892,-3.5919,-3.5955,-3.5991,-3.6012,-3.5447,-3.4959,-3.4588,-3.4178,-3.3513,-3.3103,-3.2636,-3.2207,-3.1719,-3.1231,-3.0839,-3.0898,-3.08,-3.08,-3.08,-3.08,-3.08,-3.08,-3.08,-3.08,-3.08,-3.08,-3.08,-3.08,-3.08,-3.08,-3.08,-3.08,-3.0801,-3.08,-3.08,-3.08,-3.08,-3.08,-3.08,-2.9161,-2.9044,-2.9551,-3.0468,-3.0509,-3.0411,-2.9962,-2.9863,-2.9845,-3.006,-3.0312,-3.0781,-3.0781,-3.08,-3.08,-3.08,-3.08,-3.0781,-3.0781,-3.0664,-3.0761,-3.08,-3.08,-3.08,-3.08,-3.08,-3.08,-3.08,-3.08,-3.08,-3.08,-3.08,-3.08,-3.08,-3.08,-3.08,-3.08,-3.08,-3.08,-3.08,-3.08,-3.08,-3.08,-3.08,-3.08,-3.08,-3.08,-3.08,-3.08,-3.0801,-3.0805,-3.083,-3.0896,-3.0918,-3.0918,-3.0918,-3.0918,-3.0918,-3.0918,-3.0918,-3.0918,-3.0918,-3.6635,-3.7142,-3.7738,-3.8161,-3.8469,-3.9053,-3.9431,-3.965,-3.9669,-3.8767,-3.7226,-3.628,-3.5776,-3.5878,-3.5909,-3.5951,-3.5988,-3.5973,-3.5621,-3.533,-3.5076,-3.4705,-3.4275,-3.3865,-3.3554,-3.2891,-3.2461,-3.209,-3.1309,-3.1192,-3.1036,-3.0898,-3.08,-3.08,-3.08,-3.08,-3.08,-3.08,-3.08,-3.08,-3.08,-3.08,-3.08,-3.08,-3.08,-3.08,-3.08,-3.08,-3.08,-3.08,-3.08,-3.08,-3.08,-3.0781,-3.08,-3.08,-3.08,-3.08,-3.08,-3.08,-3.08,-3.0586,-3.0644,-3.0703,-3.08,-3.08,-3.08,-3.08,-3.08,-3.08,-3.08,-3.08,-3.08,-3.08,-3.08,-3.08,-3.08,-3.08,-3.08,-3.08,-3.08,-3.08,-3.08,-3.08,-3.08,-3.08,-3.08,-3.08,-3.08,-3.08,-3.08,-3.08,-3.08,-3.08,-3.08,-3.08,-3.08,-3.08,-3.08,-3.08,-3.08,-3.08,-3.0801,-3.0803,-3.083,-3.0896,-3.0918,-3.0918,-3.0918,-3.0918,-3.0918,-3.0918,-3.0918,-3.0918,-3.0918,-3.6481,-3.7911,-3.7988,-3.8469,-3.9169,-3.9284,-3.9746,-4.0246,-4.0158,-3.9383,-3.7889,-3.6479,-3.5822,-3.5908,-3.5938,-3.598,-3.5992,-3.6014,-3.5896,-3.5819,-3.572,-3.5797,-3.5524,-3.5018,-3.4491,-3.4413,-3.3768,-3.291,-3.1953,-3.1836,-3.1504,-3.0997,-3.08,-3.08,-3.08,-3.08,-3.08,-3.08,-3.08,-3.08,-3.08,-3.08,-3.08,-3.08,-3.08,-3.08,-3.08,-3.08,-3.08,-3.08,-3.08,-3.08,-3.08,-3.08,-3.08,-3.08,-3.08,-3.08,-3.08,-3.08,-3.08,-3.08,-3.08,-3.08,-3.08,-3.08,-3.08,-3.08,-3.08,-3.08,-3.08,-3.08,-3.08,-3.08,-3.08,-3.08,-3.08,-3.08,-3.08,-3.08,-3.08,-3.08,-3.08,-3.08,-3.08,-3.08,-3.08,-3.08,-3.08,-3.08,-3.08,-3.08,-3.08,-3.08,-3.08,-3.08,-3.08,-3.08,-3.08,-3.08,-3.08,-3.08,-3.0801,-3.0801,-3.085,-3.0915,-3.0918,-3.0918,-3.0918,-3.0918,-3.0918,-3.0918,-3.0918,-3.0918,-3.0918,-3.6135,-3.7173,-3.7757,-3.8488,-3.9323,-3.9881,-4.0265,-4.0273,-3.9432,-3.8601,-3.7873,-3.6439,-3.5801,-3.5883,-3.5931,-3.597,-3.6042,-3.6021,-3.6021,-3.6019,-3.6016,-3.5992,-3.5856,-3.5641,-3.5251,-3.4783,-3.4237,-3.3476,-3.2071,-3.2286,-3.166,-3.0997,-3.1034,-3.08,-3.08,-3.08,-3.08,-3.08,-3.08,-3.08,-3.08,-3.08,-3.08,-3.08,-3.08,-3.08,-3.08,-3.08,-3.08,-3.08,-3.08,-3.08,-3.08,-3.08,-3.08,-3.08,-3.08,-3.08,-3.08,-3.08,-3.08,-3.08,-3.08,-3.08,-3.08,-3.08,-3.08,-3.08,-3.08,-3.08,-3.08,-3.08,-3.08,-3.08,-3.08,-3.08,-3.08,-3.08,-3.08,-3.08,-3.08,-3.08,-3.0799,-3.08,-3.08,-3.08,-3.08,-3.08,-3.08,-3.08,-3.08,-3.08,-3.08,-3.08,-3.08,-3.08,-3.08,-3.08,-3.08,-3.08,-3.08,-3.08,-3.0804,-3.0806,-3.0871,-3.0918,-3.0918,-3.0918,-3.0918,-3.0918,-3.0918,-3.0918,-3.0918,-3.0918,-3.0918,-3.5962,-3.6731,-3.7322,-3.826,-3.9311,-4.015,-4.0496,-4.0262,-3.912,-3.8401,-3.7898,-3.6766,-3.6274,-3.6278,-3.6066,-3.6232,-3.6362,-3.6106,-3.6004,-3.6004,-3.6019,-3.6014,-3.6013,-3.5992,-3.568,-3.5232,-3.4998,-3.4393,-3.3243,-3.3047,-3.2617,-3.2049,-3.1679,-3.1874,-3.1679,-3.1366,-3.08,-3.08,-3.08,-3.08,-3.08,-3.08,-3.08,-3.08,-3.08,-3.08,-3.08,-3.08,-3.08,-3.08,-3.08,-3.08,-3.08,-3.08,-3.08,-3.08,-3.08,-3.08,-3.08,-3.08,-3.08,-3.08,-3.08,-3.08,-3.08,-3.08,-3.08,-3.08,-3.082,-3.1114,-3.127,-3.1231,-3.1074,-3.1093,-3.1171,-3.1191,-3.1015,-3.1034,-3.1052,-3.1032,-3.0812,-3.0812,-3.0798,-3.08,-3.08,-3.08,-3.08,-3.08,-3.08,-3.08,-3.08,-3.08,-3.08,-3.08,-3.08,-3.08,-3.08,-3.08,-3.08,-3.08,-3.08,-3.08,-3.0805,-3.083,-3.0876,-3.0898,-3.0918,-3.0918,-3.0918,-3.0918,-3.0918,-3.0918,-3.0918,-3.0918,-3.0918,-3.5942,-3.6603,-3.6773,-3.7769,-3.9213,-4.0115,-4.0504,-4.0435,-3.9695,-3.8957,-3.8205,-3.7506,-3.7177,-3.7085,-3.649,-3.6574,-3.6968,-3.6421,-3.6166,-3.6026,-3.6004,-3.6019,-3.6014,-3.5992,-3.5895,-3.5953,-3.5758,-3.5213,-3.4647,-3.4003,-3.3593,-3.3318,-3.2928,-3.2908,-3.2537,-3.1991,-3.1366,-3.1386,-3.0937,-3.1093,-3.1308,-3.1249,-3.1347,-3.1366,-3.1347,-3.1211,-3.1153,-3.1055,-3.0917,-3.0839,-3.08,-3.08,-3.08,-3.08,-3.08,-3.08,-3.08,-3.082,-3.0997,-3.1036,-3.1075,-3.1172,-3.1016,-3.0898,-3.08,-3.08,-3.08,-3.0995,-3.1171,-3.1738,-3.215,-3.1875,-3.162,-3.1719,-3.1856,-3.1718,-3.1444,-3.1404,-3.1439,-3.1316,-3.0969,-3.0854,-3.0812,-3.0798,-3.0976,-3.08,-3.08,-3.08,-3.08,-3.08,-3.08,-3.08,-3.08,-3.08,-3.08,-3.08,-3.08,-3.08,-3.08,-3.08,-3.08,-3.0807,-3.0816,-3.0839,-3.0859,-3.0898,-3.0918,-3.0918,-3.0918,-3.0918,-3.0918,-3.0918,-3.0918,-3.0918,-3.0918,-3.5636,-3.5894,-3.6517,-3.7442,-3.8581,-3.9969,-4.0579,-4.0477,-3.9785,-3.9301,-3.9159,-3.8414,-3.8133,-3.8162,-3.7948,-3.7598,-3.7304,-3.6971,-3.6502,-3.6265,-3.6008,-3.6004,-3.6019,-3.6016,-3.6013,-3.6012,-3.5895,-3.5602,-3.4744,-3.4295,-3.3925,-3.3396,-3.365,-3.3572,-3.3357,-3.2928,-3.2752,-3.2362,-3.168,-3.1738,-3.2264,-3.2479,-3.2479,-3.244,-3.2342,-3.2148,-3.1816,-3.1582,-3.1368,-3.0937,-3.0839,-3.08,-3.08,-3.08,-3.08,-3.08,-3.0859,-3.1016,-3.1563,-3.1719,-3.1875,-3.2031,-3.1875,-3.1309,-3.1055,-3.0956,-3.0976,-3.1269,-3.1854,-3.2539,-3.2792,-3.2617,-3.2694,-3.2967,-3.3221,-3.3455,-3.3258,-3.3278,-3.3135,-3.1654,-3.1307,-3.101,-3.0947,-3.1149,-3.1269,-3.0976,-3.08,-3.08,-3.08,-3.08,-3.08,-3.08,-3.08,-3.08,-3.08,-3.08,-3.08,-3.08,-3.08,-3.0803,-3.0805,-3.0813,-3.082,-3.0839,-3.0858,-3.0898,-3.0918,-3.0918,-3.0918,-3.0918,-3.0918,-3.0918,-3.0918,-3.0918,-3.0976,-3.5483,-3.5567,-3.6093,-3.7025,-3.8331,-3.996,-4.0674,-4.0597,-4.0206,-3.9908,-3.9562,-3.9177,-3.9043,-3.8945,-3.8359,-3.7891,-3.7812,-3.6933,-3.6386,-3.615,-3.6011,-3.6008,-3.6004,-3.6019,-3.6016,-3.6013,-3.5953,-3.5778,-3.5114,-3.4821,-3.4489,-3.4548,-3.4431,-3.4411,-3.445,-3.4489,-3.445,-3.3923,-3.3339,-3.2949,-3.3182,-3.365,-3.3632,-3.3474,-3.3357,-3.2929,-3.2578,-3.2265,-3.1524,-3.1211,-3.1133,-3.08,-3.08,-3.08,-3.08,-3.0859,-3.125,-3.1621,-3.215,-3.2519,-3.3046,-3.3358,-3.2969,-3.2753,-3.2246,-3.201,-3.1874,-3.1932,-3.2713,-3.3357,-3.3398,-3.3495,-3.3962,-3.4411,-3.4956,-3.5522,-3.5561,-3.5581,-3.4261,-3.2463,-3.1703,-3.1345,-3.1318,-3.1597,-3.162,-3.1426,-3.1094,-3.08,-3.08,-3.08,-3.08,-3.08,-3.08,-3.08,-3.082,-3.088,-3.0822,-3.0822,-3.0821,-3.0823,-3.0827,-3.082,-3.0809,-3.0828,-3.0854,-3.0879,-3.0918,-3.0918,-3.0918,-3.0937,-3.1094,-3.1328,-3.123,-3.0918,-3.0996,-3.5496,-3.5522,-3.566,-3.6661,-3.8212,-3.9765,-4.0526,-4.0718,-4.0569,-4.0344,-3.9841,-3.9862,-3.9926,-3.9746,-3.8769,-3.8281,-3.791,-3.7129,-3.6386,-3.6034,-3.6014,-3.6012,-3.6009,-3.6004,-3.6019,-3.6014,-3.5992,-3.5914,-3.5973,-3.568,-3.5563,-3.5992,-3.5817,-3.5641,-3.5563,-3.5582,-3.5504,-3.527,-3.4686,-3.4217,-3.3982,-3.41,-3.4159,-3.3768,-3.3456,-3.3145,-3.3066,-3.2459,-3.1485,-3.1719,-3.1641,-3.121,-3.082,-3.123,-3.1191,-3.1347,-3.1934,-3.2461,-3.2929,-3.3319,-3.4315,-3.4491,-3.41,-3.41,-3.371,-3.2147,-3.1601,-3.285,-3.3787,-3.4081,-3.4159,-3.4432,-3.486,-3.517,-3.5578,-3.5827,-3.5804,-3.572,-3.5002,-3.3556,-3.3083,-3.2792,-3.3095,-3.3434,-3.3006,-3.2402,-3.1368,-3.0898,-3.1249,-3.1249,-3.1464,-3.1386,-3.0937,-3.1015,-3.1192,-3.1193,-3.0902,-3.0844,-3.0844,-3.0832,-3.0818,-3.0814,-3.0786,-3.081,-3.0851,-3.0877,-3.0918,-3.0918,-3.0937,-3.1035,-3.1269,-3.1758,-3.1719,-3.1621,-3.207,-3.554,-3.566,-3.6294,-3.6859,-3.7309,-3.8357,-3.927,-3.9871,-3.9945,-4.0182,-4.0604,-4.0697,-4.0769,-4.0547,-3.9512,-3.8926,-3.8262,-3.7266,-3.6641,-3.6191,-3.6015,-3.6014,-3.6012,-3.6007,-3.6004,-3.6021,-3.6017,-3.6012,-3.6012,-3.6012,-3.6012,-3.6012,-3.6012,-3.6012,-3.6012,-3.6012,-3.5992,-3.5973,-3.568,-3.5329,-3.5231,-3.5348,-3.5446,-3.529,-3.5075,-3.4627,-3.4606,-3.4665,-3.3767,-3.3338,-3.3006,-3.2128,-3.0937,-3.2108,-3.2694,-3.283,-3.3007,-3.3378,-3.3846,-3.4237,-3.4977,-3.5231,-3.4998,-3.5154,-3.4354,-3.2128,-3.1815,-3.3573,-3.4588,-3.4783,-3.4979,-3.5309,-3.5582,-3.5812,-3.6002,-3.5956,-3.5929,-3.5678,-3.5427,-3.5021,-3.4542,-3.4616,-3.4885,-3.4761,-3.4372,-3.324,-3.164,-3.1113,-3.2147,-3.2557,-3.324,-3.2986,-3.1444,-3.1288,-3.1446,-3.1466,-3.1156,-3.0928,-3.0871,-3.0838,-3.082,-3.08,-3.0795,-3.081,-3.083,-3.0875,-3.0897,-3.0898,-3.0937,-3.1035,-3.1777,-3.2402,-3.332,-3.3496,-3.4023,-3.5571,-3.5703,-3.6524,-3.6903,-3.7063,-3.7871,-3.8553,-3.8957,-3.9081,-3.9412,-4.0016,-4.0656,-4.1125,-4.0898,-3.9922,-3.916,-3.834,-3.7226,-3.6504,-3.6094,-3.6016,-3.6015,-3.6013,-3.601,-3.6007,-3.6003,-3.6016,-3.6012,-3.6012,-3.6012,-3.6012,-3.6012,-3.6012,-3.6012,-3.6012,-3.6012,-3.6012,-3.6012,-3.6012,-3.6012,-3.6012,-3.5992,-3.5992,-3.6012,-3.5895,-3.5621,-3.566,-3.5738,-3.5075,-3.4157,-3.3591,-3.3084,-3.2655,-3.367,-3.4411,-3.4411,-3.4333,-3.4178,-3.4647,-3.5076,-3.5426,-3.5543,-3.5602,-3.566,-3.566,-3.3845,-3.3787,-3.527,-3.5368,-3.5543,-3.5524,-3.5758,-3.5817,-3.597,-3.5981,-3.5955,-3.5912,-3.5783,-3.5658,-3.5514,-3.5243,-3.5364,-3.5549,-3.5542,-3.5133,-3.4608,-3.289,-3.2303,-3.3143,-3.3728,-3.447,-3.4489,-3.2889,-3.1503,-3.1172,-3.131,-3.1411,-3.1164,-3.0896,-3.0838,-3.0804,-3.0796,-3.0793,-3.0794,-3.0813,-3.0849,-3.0872,-3.0875,-3.0878,-3.0937,-3.2012,-3.3164,-3.4101,-3.4883,-3.5195,-3.5606,-3.5728,-3.6408,-3.6729,-3.6856,-3.7588,-3.803,-3.8143,-3.8218,-3.8454,-3.8959,-4.02,-4.0738,-4.0273,-3.9277,-3.875,-3.7969,-3.6816,-3.6172,-3.6035,-3.6016,-3.6016,-3.6014,-3.6012,-3.6008,-3.6002,-3.6014,-3.6012,-3.6012,-3.6012,-3.6012,-3.6012,-3.6012,-3.6012,-3.6012,-3.6012,-3.6012,-3.6012,-3.6012,-3.6012,-3.6012,-3.6012,-3.6012,-3.6012,-3.6012,-3.6012,-3.5992,-3.5856,-3.5485,-3.5055,-3.4372,-3.406,-3.4099,-3.4899,-3.5348,-3.5524,-3.5153,-3.4979,-3.5096,-3.5543,-3.5817,-3.5973,-3.6012,-3.5992,-3.5973,-3.5934,-3.5856,-3.5875,-3.5992,-3.6031,-3.5992,-3.5973,-3.5992,-3.6009,-3.598,-3.5938,-3.5883,-3.585,-3.5841,-3.5811,-3.5876,-3.5936,-3.5976,-3.6009,-3.5758,-3.5271,-3.4959,-3.4626,-3.447,-3.4782,-3.529,-3.5133,-3.4177,-3.285,-3.1738,-3.133,-3.1626,-3.1147,-3.0859,-3.0826,-3.079,-3.0793,-3.0794,-3.0764,-3.0795,-3.0796,-3.082,-3.0849,-3.0855,-3.0878,-3.1973,-3.3164,-3.418,-3.4961,-3.5644,-3.5637,-3.5698,-3.5878,-3.5936,-3.5985,-3.6212,-3.6669,-3.7299,-3.7439,-3.817,-3.9071,-3.898,-3.9082,-3.9062,-3.8066,-3.7598,-3.7559,-3.6465,-3.6113,-3.6016,-3.6016,-3.6016,-3.6015,-3.6013,-3.6006,-3.6018,-3.6013,-3.6012,-3.6012,-3.6012,-3.6012,-3.6012,-3.6012,-3.6012,-3.6012,-3.6012,-3.6012,-3.6012,-3.6012,-3.6012,-3.6012,-3.6012,-3.6012,-3.6012,-3.6012,-3.6012,-3.6012,-3.6012,-3.5914,-3.5758,-3.5524,-3.5329,-3.5407,-3.5641,-3.5914,-3.5992,-3.566,-3.5641,-3.5719,-3.5856,-3.6012,-3.6012,-3.6012,-3.6012,-3.5992,-3.5992,-3.5953,-3.5992,-3.607,-3.6129,-3.6109,-3.601,-3.601,-3.6004,-3.5976,-3.5903,-3.5838,-3.5849,-3.5852,-3.5866,-3.5906,-3.5964,-3.6004,-3.6012,-3.5992,-3.568,-3.566,-3.5387,-3.5309,-3.5699,-3.6012,-3.5582,-3.5075,-3.453,-3.3534,-3.2032,-3.1803,-3.1265,-3.084,-3.0801,-3.0788,-3.0789,-3.0772,-3.0727,-3.0695,-3.0697,-3.0723,-3.0794,-3.0823,-3.0987,-3.1911,-3.2988,-3.4062,-3.5039,-3.5742]},{"header":{"parameterUnit":"m.s-1","parameterCategory":1,"la1":31.0,"la2":29.5877,"lo1":-88.7671,"lo2":-86.6584,"dy":0.0162,"dx":0.0185,"nx":115,"ny":88,"refTime":"2026-05-23T00:00:00:Z","depth":0,"parameterNumber":3,"parameterNumberName":"V-component_of_WINDS"},"data":[0.0,0.0,0.0,0.0,0.0,0.0,0.0,0.0,0.0,0.0,0.0,0.0,0.0,0.0,0.0,0.0,0.0,0.0,0.0,0.0,0.0,0.0,0.0,0.0,0.0,0.0,0.0,0.0,0.0,0.0,0.0,0.0,0.0,0.0,0.0,0.0,0.0,0.0,0.0,0.0,0.0,0.0,0.0,0.0,0.0,0.0,0.0,0.0,0.0,0.0,0.0,0.0,0.0,0.0,0.0,0.0,0.0,0.0,0.0,0.0,0.0,0.0,0.0,0.0,0.0,0.0,0.0,0.0,0.0,0.0,0.0,0.0,0.0,0.0,0.0,0.0,0.0,0.0,0.0,0.0,0.0,0.0,0.0,0.0,0.0,0.0,0.0,0.0,0.0,0.0,0.0,0.0,0.0,0.0,0.0,0.0,0.0,0.0,0.0,0.0,0.0,0.0,0.0,0.0,0.0,0.0,0.0,0.0,0.0,0.0,0.0,0.0,0.0,0.0,0.0,0.0,0.0,0.0,0.0,0.0,0.0,0.0,0.0,0.0,0.0,0.0,0.0,0.0,0.0,0.0,0.0,0.0,0.0,0.0,0.0,0.0,0.0,0.0,0.0,0.0,0.0,0.0,0.0,0.0,0.0,0.0,0.0,0.0,0.0,0.0,0.0,0.0,0.0,0.0,0.0,0.0,0.0,0.0,0.0,0.0,0.0,0.0,0.0,0.0,0.0,0.0,0.0,0.0,0.0,0.0,0.0,0.0,0.0,0.0,0.0,0.0,0.0,0.0,0.0,0.0,0.0,0.0,0.0,0.0,0.0,0.0,0.0,0.0,0.0,0.0,0.0,0.0,0.0,0.0,0.0,0.0,0.0,0.0,0.0,0.0,0.0,0.0,0.0,0.0,0.0,0.0,0.0,0.0,0.0,0.0,0.0,0.0,0.0,0.0,0.0,0.0,0.0,0.0,0.0,0.0,0.0,0.0,0.0,0.0,0.0,0.0,0.0,0.0,0.0,0.0,0.0,0.0,0.0,0.0,0.0,0.0,0.0,0.0,0.0,0.0,0.0,0.0,0.0,0.0,0.0,0.0,0.0,0.0,0.0,0.0,0.0,0.0,0.0,0.0,0.0,0.0,0.0,0.0,0.0,0.0,0.0,0.0,0.0,0.0,0.0,0.0,0.0,0.0,0.0,0.0,0.0,0.0,0.0,0.0,0.0,0.0,0.0,0.0,0.0,0.0,0.0,0.0,0.0,0.0,0.0,0.0,0.0,0.0,0.0,0.0,0.0,0.0,0.0,0.0,0.0,0.0,0.0,0.0,0.0,0.0,0.0,0.0,0.0,0.0,0.0,0.0,0.0,0.0,0.0,0.0,0.0,0.0,0.0,0.0,0.0,0.0,0.0,0.0,0.0,0.0,0.0,0.0,0.0,0.0,0.0,0.0,0.0,0.0,0.0,0.0,0.0,0.0,0.0,0.0,0.0,0.0,0.0,0.0,0.0,0.0,0.0,0.0,0.0,0.0,0.0,0.0,0.0,0.0,0.0,0.0,0.0,0.0,0.0,0.0,0.0,0.0,0.0,0.0,0.0,0.0,0.0,0.0,0.0,0.0,0.0,0.0,0.0,0.0,0.0,0.0,0.0,0.0,0.0,0.0,0.0,0.0,0.0,0.0,0.0,0.0,0.0,0.0,0.0,0.0,0.0,0.0,0.0,0.0,0.0,0.0,0.0,0.0,0.0,0.0,0.0,0.0,0.0,0.0,0.0,0.0,0.0,0.0,0.0,0.0,0.0,0.0,0.0,0.0,0.0,0.0,0.0,0.0,0.0,0.0,0.0,0.0,0.0,0.0,0.0,0.0,0.0,0.0,0.0,0.0,0.0,0.0,0.0,0.0,0.0,0.0,0.0,0.0,0.0,0.0,0.0,0.0,0.0,0.0,0.0,0.0,0.0,0.0,0.0,0.0,0.0,0.0,0.0,0.0,0.0,0.0,0.0,0.0,0.0,0.0,0.0,0.0,0.0,0.0,0.0,0.0,0.0,0.0,0.0,0.0,0.0,0.0,0.0,0.0,0.0,0.0,0.0,0.0,0.0,0.0,0.0,0.0,0.0,0.0,0.0,0.0,0.0,0.0,0.0,0.0,0.0,0.0,0.0,0.0,0.0,0.0,0.0,0.0,0.0,0.0,0.0,0.0,0.0,0.0,0.0,0.0,0.0,0.0,0.0,0.0,0.0,0.0,0.0,0.0,0.0,0.0,0.0,0.0,0.0,0.0,0.0,0.0,0.0,0.0,0.0,0.0,0.0,0.0,0.0,0.0,0.0,0.0,0.0,0.0,0.0,0.0,0.0,0.0,0.0,0.0,0.0,0.0,0.0,0.0,0.0,0.0,0.0,0.0,0.0,0.0,0.0,0.0,0.0,0.0,0.0,0.0,0.0,0.0,0.0,0.0,0.0,0.0,0.0,0.0,0.0,0.0,0.0,0.0,0.0,0.0,0.0,0.0,0.0,0.0,0.0,0.0,0.0,0.0,0.0,0.0,0.0,0.0,0.0,0.0,0.0,0.0,0.0,0.0,0.0,0.0,0.0,0.0,0.0,0.0,0.0,0.0,0.0,0.0,0.0,0.0,0.0,0.0,0.0,0.0,0.0,0.0,0.0,0.0,0.0,0.0,0.0,0.0,0.0,0.0,0.0,0.0,0.0,0.0,0.0,0.0,0.0,0.0,0.0,0.0,0.0,0.0,0.0,0.0,0.0,0.0,0.0,0.0,0.0,0.0,0.0,0.0,0.0,0.0,0.0,0.0,0.0,0.0,0.0,0.0,0.0,0.0,0.0,0.0,0.0,0.0,0.0,0.0,0.0,0.0,0.0,0.0,0.0,0.0,0.0,0.0,0.0,0.0,0.0,0.0,0.0,0.0,0.0,0.0,0.0,0.0,0.0,0.0,0.0,0.0,0.0,0.0,0.0,0.0,0.0,0.0,0.0,0.0,0.0,0.0,0.0,0.0,0.0,0.0,0.0,0.0,0.0,0.0,0.0,0.0,0.0,0.0,0.0,0.0,0.0,0.0,0.0,0.0,0.0,0.0,0.0,0.0,0.0,0.0,0.0,0.0,0.0,0.0,0.0,0.0,0.0,0.0,0.0,0.0,0.0,0.0,0.0,0.0,0.0,0.0,0.0,0.0,0.0,0.0,0.0,0.0,0.0,0.0,0.0,0.0,0.0,0.0,0.0,0.0,0.0,0.0,0.0,0.0,0.0,0.0,0.0,0.0,0.0,0.0,0.0,0.0,0.0,0.0,0.0,0.0,0.0,0.0,0.0,0.0,0.0,0.0,0.0,0.0,0.0,0.0,0.0,0.0,0.0,0.0,0.0,0.0,0.0,0.0,0.0,0.0,0.0,0.0,0.0,0.0,0.0,0.0,0.0,0.0,0.0,0.0,0.0,0.0,0.0,0.0,0.0,0.0,0.0,0.0,0.0,0.0,0.0,0.0,0.0,0.0,0.0,0.0,0.0,0.0,0.0,0.0,0.0,0.0,0.0,0.0,0.0,0.0,0.0,0.0,0.0,0.0,0.0,0.0,0.0,0.0,0.0,0.0,0.0,0.0,0.0,0.0,0.0,0.0,0.0,0.0,0.0,0.0,0.0,0.0,0.0,0.0,0.0,0.0,0.0,0.0,0.0,0.0,0.0,0.0,0.0,0.0,0.0,0.0,0.0,0.0,0.0,0.0,0.0,0.0,0.0,0.0,0.0,0.0,0.0,0.0,0.0,0.0,0.0,0.0,0.0,0.0,0.0,0.0,0.0,0.0,0.0,0.0,0.0,0.0,0.0,0.0,0.0,0.0,0.0,0.0,0.0,0.0,0.0,0.0,0.0,0.0,0.0,0.0,0.0,0.0,0.0,0.0,0.0,0.0,0.0,0.0,0.0,0.0,0.0,0.0,0.0,0.0,0.0,0.0,0.0,0.0,0.0,0.0,0.0,0.0,0.0,0.0,0.0,0.0,0.0,0.0,0.0,0.0,0.0,0.0,0.0,0.0,0.0,0.0,0.0,0.0,0.0,0.0,0.0,0.0,0.0,0.0,0.0,0.0,0.0,0.0,0.0,0.0,0.0,0.0,0.0,0.0,0.0,0.0,0.0,0.0,0.0,0.0,0.0,0.0,0.0,0.0,0.0,0.0,0.0,0.0,0.0,0.0,0.0,0.0,0.0,0.0,0.0,0.0,0.0,0.0,0.0,0.0,0.0,0.0,0.0,0.0,0.0,0.0,0.3501,0.0,0.0,0.0,0.0,0.0,0.0,0.0,0.0,0.0,0.0,0.0,0.0,0.0,0.0,0.0,0.0,0.0,0.0,0.0,0.0,0.0,0.0,0.0,0.0,0.0,0.0,0.0,0.0,0.0,0.0,0.0,0.0,0.0,0.0,0.0,0.0,0.0,0.0,0.0,0.0,0.0,0.0,0.0,0.0,0.0,0.0,0.0,0.0,0.0,0.0,0.0,0.0,0.0,0.0,0.0,0.0,0.0,0.0,0.0,0.0,0.0,0.0,0.0,0.0,0.0,0.0,0.0,0.0,0.0,0.0,0.0,0.0,0.0,0.0,0.0,0.0,0.0,0.0,0.0,0.0,0.0,0.0,0.0,0.0,0.0,0.0,0.0,0.0,0.0,0.0,0.0,0.0,0.0,0.0,0.0,0.0,0.0,0.0,0.0,0.0,0.0,0.0,0.0,0.0,0.0,0.0,0.0,0.0,0.0,0.0,0.3594,0.3628,0.4092,0.4244,0.4039,0.0,0.0,0.0,0.0,0.0,0.0,0.0,0.0,0.0,0.0,0.0,0.0,0.0,0.0,0.0,0.0,0.0,0.0,0.0,0.0,0.0,0.0,0.0,0.0,0.0,0.0,0.0,0.0,0.0,0.0,0.0,0.0,0.0,0.0,0.0,0.0,0.0,0.0,0.0,0.0,0.0,0.0,0.0,0.0,0.0,0.0,0.0,0.0,0.0,0.0,0.0,0.0,0.0,0.0,0.0,0.0,0.0,0.0,0.0,0.0,0.0,0.0,0.0,0.0,0.0,0.0,0.0,0.0,0.0,0.0,0.0,0.0,0.0,0.0,0.0,0.0,0.0,0.0,0.0,0.0,0.0,0.0,0.0,0.0,0.0,0.0,0.0,0.0,0.0,0.0,0.0,0.0,0.0,0.0,0.0,0.0,0.0,0.0,0.0,0.0,0.0,0.0,0.0,0.0,0.0,0.0,0.0,0.0,0.0,0.0,0.0,0.0,0.399,0.4344,0.4822,0.0,0.0,0.0,0.0,0.0,0.0,0.0,0.0,0.0,0.0,0.0,0.0,0.0,0.0,0.0,0.0,0.0,0.0,0.0,0.0,0.0,0.0,0.0,0.0,0.0,0.0,0.0,0.0,0.0,0.0,0.0,0.0,0.0,0.0,0.0,0.0,0.0,0.0,0.0,0.0,0.0,0.0,0.0,0.0,0.0,0.0,0.0,0.0,0.0,0.0,0.0,0.0,0.0,0.0,0.0,0.0,0.0,0.0,0.0,0.0,0.0,0.0,0.0,0.0,0.0,0.0,0.0,0.0,0.0,0.0,0.0,0.0,0.0,0.0,0.0,0.0,0.0,0.0,0.0,0.0,0.0,0.0,0.0,0.0,0.0,0.0,0.0,0.0,0.0,0.0,0.0,0.0,0.0,0.0,0.0,0.0,0.0,0.0,0.0,0.0,0.0,0.0,0.0,0.0,0.0,0.0,0.0,0.0,0.0,0.0,0.3584,0.3645,0.4506,0.0,0.5537,0.0,0.0,0.0,0.0,0.0,0.0,0.0,0.0,0.0,0.0,0.0,0.0,0.0,0.0,0.0,0.0,0.0,0.0,0.0,0.0,0.0,0.0,0.0,0.0,0.0,0.0,0.0,0.0,0.0,0.0,0.0,0.0,0.0,0.0,0.0,0.0,0.0,0.0,0.0,0.0,0.0,0.0,0.0,0.0,0.0,0.0,0.0,0.0,0.0,0.0,0.0,0.0,0.0,0.0,0.0,0.0,0.0,0.0,0.0,0.0,0.0,0.0,0.0,0.0,0.0,0.0,0.0,0.0,0.0,0.0,0.0,0.0,0.0,0.0,0.0,0.0,0.0,0.0,0.0,0.0,0.0,0.0,0.0,0.0,0.0,0.0,0.0,0.0,0.0,0.0,0.0,0.0,0.0,0.0,0.0,0.0,0.0,0.0,0.0,0.0,0.0,0.0,0.0,0.0,0.0,0.0,0.0,0.0,0.0,0.0,0.3614,0.3887,0.4827,0.5283,0.0,0.0,0.0,0.0,0.0,0.0,0.0,0.0,0.0,0.0,0.0,0.0,0.0,0.0,0.0,0.0,0.0,0.0,0.0,0.0,0.0,0.0,0.0,0.0,0.0,0.0,0.0,0.0,0.0,0.0,0.0,0.0,0.0,0.0,0.0,0.0,0.0,0.0,0.0,0.0,0.0,0.0,0.0,0.0,0.0,0.0,0.0,0.0,0.0,0.0,0.0,0.0,0.0,0.0,0.0,0.0,0.0,0.0,0.0,0.0,0.0,0.0,0.0,0.0,0.0,0.0,0.0,0.0,0.0,0.0,0.0,0.0,0.0,0.0,0.0,0.0,0.0,0.0,0.0,0.0,0.0,0.0,0.0,0.0,0.0,0.0,0.0,0.0,0.0,0.0,0.0,0.0,0.0,0.0,0.0,0.0,0.0,0.0,0.0,0.0,0.0,0.0,0.0,0.0,0.0,0.0,0.0,0.0,0.0,0.0,0.3284,0.3884,0.4471,0.5022,0.5147,0.4805,0.0,0.0,0.0,0.0,0.0,0.0,0.0,0.0,0.0,0.0,0.0,0.0,0.0,0.0,0.0,0.0,0.0,0.0,0.0,0.0,0.0,0.0,0.0,0.0,0.0,0.0,0.0,0.0,0.0,0.0,0.0,0.0,0.0,0.0,0.0,0.0,0.0,0.0,0.0,0.0,0.0,0.0,0.0,0.0,0.0,0.0,0.0,0.0,0.0,0.0,0.0,0.0,0.0,0.0,0.0,0.0,0.0,0.0,0.0,0.0,0.0,0.0,0.0,0.0,0.0,0.0,0.0,0.0,0.0,0.0,0.0,0.0,0.0,0.0,0.0,0.0,0.0,0.0,0.0,0.0,0.0,0.0,0.0,0.0,0.0,0.0,0.0,0.0,0.0,0.0,0.0,0.0,0.0,0.0,0.0,0.0,0.0,0.0,0.0,0.0,0.0,0.0,0.0,0.0,0.0,0.0,0.0,0.0,0.2734,0.3591,0.4487,0.5336,0.5043,0.4823,0.0,0.0,0.0,0.0,0.0,0.0,0.0,0.0,0.0,0.0,0.0,0.0,0.0,0.0,0.0,0.0,0.0,0.0,0.0,0.0,0.0,0.0,0.0,0.0,0.0,0.0,0.0,0.0,0.0,0.0,0.0,0.0,0.0,0.0,0.0,0.0,0.0,0.0,0.0,0.0,0.0,0.0,0.0,0.0,0.0,0.0,0.0,0.0,0.0,0.0,0.0,0.0,0.0,0.0,0.0,0.0,0.0,0.0,0.0,0.0,0.0,0.0,0.0,0.0,0.0,0.0,0.0,0.0,0.0,0.0,0.0,0.0,0.0,0.0,0.0,0.0,0.0,0.0,0.0,0.0,0.0,0.0,0.0,0.0,0.0,0.0,0.0,0.0,0.0,0.0,0.0,0.0,0.0,0.0,0.0,0.0,0.0,0.0,0.0,0.0,0.0,0.0,0.0,0.0,0.0,0.0,0.0,0.0,0.0,0.275,0.3614,0.4261,0.4593,0.4723,0.4526,0.0,0.0,0.0,0.0,0.0,0.0,0.0,0.0,0.0,0.0,0.0,0.0,0.0,0.0,0.0,0.0,0.0,0.0,0.0,0.0,0.0,0.0,0.0,0.0,0.0,0.0,0.0,0.0,0.0,0.0,0.0,0.0,0.0,0.0,0.0,0.0,0.0,0.0,0.0,0.0,0.0,0.0,0.0,0.0,0.0,0.0,0.0,0.0,0.0,0.0,0.0,0.0,0.0,0.0,0.0,0.0,0.0,0.0,0.0,0.0,0.0,0.0,0.0,0.0,0.0,0.0,0.0,0.0,0.0,0.0,0.0,0.0,0.0,0.0,0.0,0.0,0.0,0.0,0.0,0.0,0.0,0.0,0.0,0.0,0.0,0.0,0.0,0.0,0.0,0.0,0.0,0.0,0.0,0.0,0.0,0.0,0.0,0.0,0.0,0.0,0.0,0.0,0.0,0.0,0.0,0.0,0.0,0.0,0.0,0.3291,0.0,0.426,0.4458,0.4639,0.4386,0.0,0.0,0.0,0.0,0.0,0.0,0.0,0.0,0.0,0.0,0.0,0.0,0.0,0.0,0.0,0.0,0.0,0.0,0.0,0.0,0.0,0.0,0.0,0.0,0.0,0.0,0.0,0.0,0.0,0.0,0.0,0.0,0.0,0.0,0.0,0.0,0.0,0.0,0.0,0.0,0.0,0.0,0.0,0.0,0.0,0.0,0.0,0.0,0.0,0.0,0.0,0.0,0.0,0.0,0.0,0.0,0.0,0.0,0.0,0.0,0.0,0.0,0.0,0.0,0.0,0.0,0.0,0.0,0.0,0.0,0.0,0.0,0.0,0.0,0.0,0.0,0.0,0.0,0.0,0.0,0.0,0.0,0.0,0.0,0.0,0.0,0.0,0.0,0.0,0.0,0.0,0.0,0.0,0.0,0.0,0.0,0.0,0.0,0.0,0.0,0.0,0.0,0.0,0.0,0.0,0.0,0.0,0.0,0.3694,0.4417,0.4417,0.4608,0.5146,0.4777,0.4408,0.0,0.0,0.0,0.0,0.0,0.0,0.0,0.0,0.0,0.0,0.0,0.0,0.0,0.0,0.0,0.0,0.0,0.0,0.0,0.0,0.0,0.0,0.0,0.0,0.0,0.0,0.0,0.0,0.0,0.0,0.0,0.0,0.0,0.0,0.0,0.0,0.0,0.0,0.0,0.0,0.0,0.0,0.0,0.0,0.0,0.0,0.0,0.0,0.0,0.0,0.0,0.0,0.0,0.0,0.0,0.0,0.0,0.0,0.0,0.0,0.0,0.0,0.0,0.0,0.0,0.0,0.0,0.0,0.0,0.0,0.0,0.0,0.0,0.0,0.0,0.0,0.0,0.0,0.0,0.0,0.0,0.0,0.0,0.0,0.0,0.0,0.0,0.0,0.0,0.0,0.0,0.0,0.0,0.0,0.0,0.0,0.0,0.0,0.0,0.0,0.0,0.0,0.0,0.0,0.0,0.0,0.0,0.0,0.0,0.4079,0.4204,0.4264,0.4301,0.4265,0.4142,0.0,0.0,0.0,0.0,0.0,0.0,0.0,0.0,0.0,0.0,0.0,0.0,0.0,0.0,0.0,0.0,0.0,0.0,0.0,0.0,0.0,0.0,0.0,0.0,0.0,0.0,0.0,0.0,0.0,0.0,0.0,0.0,0.0,0.0,0.0,0.0,0.0,0.0,0.0,0.0,0.0,0.0,0.0,0.0,0.0,0.0,0.0,0.0,0.0,0.0,0.0,0.0,0.0,0.0,0.0,0.0,0.0,0.0,0.0,0.0,0.0,0.0,0.0,0.0,0.0,0.0,0.0,0.0,0.0,0.0,0.0,0.0,0.0,0.0,0.0,0.0,0.0,0.0,0.0,0.0,0.0,0.0,0.0,0.0,0.0,0.0,0.0,0.0,0.0,0.0,0.0,0.0,0.0,0.0,0.0,0.0,0.0,0.0,0.0,0.0,0.0,0.0,0.0,0.0,0.0,0.0,0.0,0.0,0.0,0.4638,0.4719,0.4701,0.4552,0.4544,0.4438,0.423,0.0,0.0,0.0,0.0,0.0,0.0,0.0,0.0,0.0,0.0,0.0,0.0,0.0,0.0,0.0,0.0,0.0,0.0,0.0,0.0,0.0,0.0,0.0,0.0,0.0,0.0,0.0,0.0,0.0,0.0,0.0,0.0,0.0,0.0,0.0,0.0,0.0,0.0,0.0,0.0,0.0,0.0,0.0,0.0,0.0,0.0,0.0,0.0,0.0,0.0,0.0,0.0,0.0,0.0,0.0,0.0,0.0,0.0,0.0,0.0,0.0,0.0,0.0,0.0,0.0,0.0,0.0,0.0,0.0,0.0,0.0,0.0,0.0,0.0,0.0,0.0,0.0,0.0,0.0,0.0,0.0,0.0,0.0,0.0,0.0,0.0,0.0,0.0,0.0,0.0,0.0,0.0,0.0,0.0,0.0,0.0,0.0,0.0,0.0,0.0,0.0,0.0,0.0,0.0,0.0,0.0,0.0,0.0,0.5883,0.5821,0.572,0.5617,0.5432,0.5204,0.0,0.0,0.0,0.0,0.0,0.0,0.0,0.0,0.0,0.0,0.0,0.0,0.0,0.0,0.0,0.0,0.0,0.0,0.0,0.0,0.0,0.0,0.0,0.0,0.0,0.0,0.0,0.0,0.0,0.0,0.0,0.0,0.0,0.0,0.0,0.0,0.0,0.0,0.0,0.0,0.0,0.0,0.0,0.0,0.0,0.0,0.0,0.0,0.0,0.0,0.0,0.0,0.0,0.0,0.0,0.0,0.0,0.0,0.0,0.0,0.0,0.0,0.0,0.0,0.0,0.0,0.0,0.0,0.0,0.0,0.0,0.0,0.0,0.0,0.0,0.0,0.0,0.0,0.0,0.0,0.0,0.0,0.0,0.0,0.0,0.0,0.0,0.0,0.0,0.0,0.0,0.0,0.0,0.0,0.0,0.0,0.0,0.0,0.0,0.0,0.0,0.0,0.0,0.0,0.0,0.0,0.0,0.0,0.0,0.5912,0.6481,0.655,0.6066,0.5855,0.5595,0.0,0.0,0.0,0.0,0.0,0.0,0.0,0.0,0.0,0.0,0.0,0.0,0.0,0.0,0.0,0.0,0.0,0.0,0.0,0.0,0.0,0.0,0.0,0.0,0.0,0.0,0.0,0.0,0.0,0.0,0.0,0.0,0.0,0.0,0.0,0.0,0.0,0.0,0.0,0.0,0.0,0.0,0.0,0.0,0.0,0.0,0.0,0.0,0.0,0.0,0.0,0.0,0.0,0.0,0.0,0.0,0.0,0.0,0.0,0.0,0.0,0.0,0.0,0.0,0.0,0.0,0.0,0.0,0.0,0.0,0.0,0.0,0.0,0.0,0.0,0.0,0.0,0.0,0.0,0.0,0.0,0.0,0.0,0.0,0.0,0.0,0.0,0.0,0.0,0.0,0.0,0.0,0.0,0.0,0.0,0.0,0.0,0.0,0.0,0.0,0.0,0.0,0.0,0.0,0.0,0.0,0.0,0.0,0.5658,0.6216,0.7009,0.72,0.6746,0.633,0.5926,0.0,0.0,0.0,0.0,0.0,0.0,0.0,0.0,0.0,0.0,0.0,0.0,0.0,0.0,0.0,0.0,0.0,0.0,0.0,0.0,0.0,0.0,0.0,0.0,0.0,0.0,0.0,0.0,0.0,0.0,0.0,0.0,0.0,0.0,0.0,0.0,0.0,0.0,0.0,0.0,0.0,0.0,0.0,0.0,0.0,0.0,0.0,0.0,0.0,0.0,0.0,0.0,0.0,0.0,0.0,0.0,0.0,0.0,0.0,0.0,0.0,0.0,0.0,0.0,0.0,0.0,0.0,0.0,0.0,0.0,0.0,0.0,0.0,0.0,0.0,0.0,0.0,0.0,0.0,0.0,0.0,0.0,0.0,0.0,0.0,0.0,0.0,0.0,0.0,0.0,0.0,0.0,0.0,0.0,0.0,0.0,0.0,0.0,0.0,0.0,0.0,0.0,0.0,0.0,0.0,0.0,0.0,0.0,0.5732,0.6633,0.7315,0.7599,0.7455,0.6788,0.6232,0.0,0.0,0.0,0.0,0.0,0.0,0.0,0.0,0.0,0.0,0.0,0.0,0.0,0.0,0.0,0.0,0.0,0.0,0.0,0.0,0.0,0.0,0.0,0.0,0.0,0.0,0.0,0.0,0.0,0.0,0.0,0.0,0.0,0.0,0.0,0.0,0.0,0.0,0.0,0.0,0.0,0.0,0.0,0.0,0.0,0.0,0.0,0.0,0.0,0.0,0.0,0.0,0.0,0.0,0.0,0.0,0.0,0.0,0.0,0.0,0.0,0.0,0.0,0.0,0.0,0.0,0.0,0.0,0.0,0.0,0.0,0.0,0.0,0.0,0.0,0.0,0.0,0.0,0.0,0.0,0.0,0.0,0.0,0.0,0.0,0.0,0.0,0.0,0.0,0.0,0.0,0.0,0.0,0.0,0.0,0.0,0.0,0.0,0.0,0.0,0.0,0.0,0.0,0.0,0.0,0.0,0.0,0.0,0.5653,0.6373,0.7095,0.7408,0.7275,0.6807,0.6363,0.0,0.0,0.0,0.0,0.0,0.0,0.0,0.0,0.0,0.0,0.0,0.0,0.0,0.0,0.0,0.0,0.0,0.0,0.0,0.0,0.0,0.0,0.0,0.0,0.0,0.0,0.0,0.0,0.0,0.0,0.0,0.0,0.0,0.0,0.0,0.0,0.0,0.0,0.0,0.0,0.0,0.0,0.0,0.0,0.0,0.0,0.0,0.0,0.4064,0.0,0.0,0.0,0.0,0.0,0.0,0.0,0.0,0.0,0.0,0.0,0.0,0.0,0.0,0.0,0.0,0.0,0.0,0.0,0.0,0.0,0.0,0.0,0.0,0.0,0.0,0.0,0.0,0.0,0.0,0.0,0.0,0.0,0.0,0.0,0.0,0.0,0.0,0.0,0.0,0.0,0.0,0.0,0.0,0.0,0.0,0.0,0.0,0.0,0.0,0.0,0.0,0.0,0.0,0.0,0.0,0.0,0.0,0.0,0.5361,0.5974,0.6747,0.7155,0.7186,0.6984,0.6566,0.0,0.0,0.0,0.0,0.0,0.0,0.0,0.0,0.0,0.0,0.0,0.0,0.0,0.0,0.0,0.0,0.0,0.0,0.0,0.0,0.0,0.0,0.0,0.0,0.0,0.0,0.0,0.0,0.0,0.0,0.0,0.0,0.0,0.0,0.0,0.0,0.0,0.0,0.0,0.0,0.0,0.0,0.0,0.0,0.0,0.0,0.0,0.0,0.0,0.0,0.0,0.0,0.0,0.0,0.0,0.0,0.0,0.0,0.0,0.0,0.0,0.0,0.0,0.0,0.0,0.0,0.0,0.0,0.0,0.0,0.0,0.0,0.0,0.0,0.0,0.0,0.0,0.0,0.0,0.0,0.0,0.0,0.0,0.0,0.0,0.0,0.0,0.0,0.0,0.0,0.0,0.0,0.0,0.0,0.0,0.0,0.0,0.0,0.0,0.0,0.0,0.0,0.0,0.0,0.0,0.0,0.0,0.4313,0.4984,0.5509,0.635,0.6894,0.7118,0.7107,0.6699,0.5858,0.0,0.0,0.0,0.0,0.0,0.0,0.0,0.0,0.0,0.0,0.0,0.0,0.0,0.0,0.0,0.0,0.0,0.0,0.0,0.0,0.0,0.0,0.0,0.0,0.0,0.0,0.0,0.0,0.0,0.0,0.0,0.0,0.0,0.0,0.0,0.0,0.0,0.0,0.1876,0.2173,0.0,0.0,0.0,0.0,0.0,0.0,0.0,0.0,0.3246,0.0,0.0,0.0,0.0,0.0,0.0,0.0,0.0,0.0,0.0,0.0,0.0,0.0,0.0,0.0,0.0,0.0,0.0,0.0,0.0,0.0,0.0,0.0,0.0,0.0,0.0,0.0,0.0,0.0,0.0,0.0,0.0,0.0,0.0,0.0,0.0,0.0,0.0,0.0,0.0,0.0,0.0,0.0,0.0,0.0,0.0,0.0,0.0,0.0,0.0,0.0,0.0,0.0,0.0,0.0,0.0,0.3496,0.4076,0.4621,0.5114,0.5943,0.6535,0.6761,0.6708,0.644,0.5922,0.0,0.0,0.0,0.0,0.0,0.0,0.0,0.0,0.0,0.0,0.0,0.0,0.0,0.0,0.0,0.0,0.0,0.0,0.0,0.0,0.0,0.0,0.0,0.0,0.0,0.0,0.0,0.0,0.0,0.0,0.0,0.0,0.0,0.0,0.0,0.0,0.0,0.0,0.0,0.2546,0.2763,0.0,0.0,0.0,0.0,0.0,0.0,0.0,0.0,0.295,0.0,0.0,0.0,0.0,0.0,0.0,0.0,0.0,0.0,0.0,0.0,0.0,0.0,0.0,0.0,0.0,0.0,0.0,0.0,0.0,0.0,0.0,0.0,0.0,0.0,0.0,0.0,0.0,0.0,0.0,0.0,0.0,0.0,0.0,0.0,0.0,0.0,0.0,0.0,0.0,0.0,0.0,0.0,0.0,0.0,0.0,0.0,0.0,0.0,0.0,0.0,0.0,0.0,0.0,0.0,0.3327,0.3765,0.422,0.4744,0.5407,0.5933,0.6227,0.6429,0.6349,0.0,0.0,0.0,0.0,0.0,0.0,0.0,0.0,0.0,0.0,0.0,0.0,0.0,0.0,0.0,0.0,0.0,0.0,0.0,0.0,0.0,0.0,0.0,0.0,0.0,0.0,0.0,0.0,0.0,0.0,0.0,0.0,0.0,0.0,0.0,0.0,0.0,0.0,0.0,0.0,0.278,0.2751,0.3313,0.0,0.0,0.0,0.0,0.0,0.0,0.2813,0.2819,0.0,0.0,0.0,0.0,0.0,0.0,0.0,0.0,0.0,0.0,0.0,0.0,0.0,0.0,0.0,0.0,0.0,0.0,0.0,0.0,0.0,0.0,0.0,0.0,0.0,0.0,0.0,0.0,0.0,0.0,0.0,0.0,0.0,0.0,0.0,0.0,0.0,0.0,0.0,0.0,0.0,0.0,0.0,0.0,0.0,0.0,0.0,0.0,0.0,0.0,0.0,0.0,0.0,0.0,0.0,0.3155,0.3558,0.3976,0.443,0.4985,0.5418,0.5716,0.6145,0.6172,0.0,0.0,0.0,0.0,0.0,0.0,0.0,0.0,0.0,0.0,0.0,0.0,0.0,0.0,0.0,0.0,0.0,0.0,0.0,0.0,0.0,0.0,0.0,0.0,0.0,0.0,0.0,0.0,0.0,0.0,0.0,0.0,0.0,0.0,0.0,0.0,0.0,0.0,0.0,0.0,0.0,0.2853,0.3295,0.3072,0.0,0.0,0.0,0.0,0.2778,0.27,0.0,0.0,0.0,0.0,0.0,0.0,0.0,0.0,0.0,0.0,0.0,0.0,0.0,0.0,0.0,0.0,0.0,0.0,0.0,0.0,0.0,0.0,0.0,0.0,0.0,0.0,0.0,0.0,0.0,0.0,0.0,0.0,0.0,0.0,0.0,0.0,0.0,0.0,0.0,0.0,0.0,0.0,0.0,0.0,0.0,0.0,0.0,0.0,0.0,0.0,0.0,0.0,0.0,0.0,0.0,0.0,0.3035,0.363,0.4053,0.4234,0.4819,0.5265,0.553,0.5744,0.571,0.0,0.0,0.0,0.0,0.0,0.0,0.0,0.0,0.0,0.0,0.0,0.0,0.0,0.0,0.0,0.0,0.0,0.0,0.0,0.0,0.0,0.0,0.0,0.0,0.0,0.0,0.0,0.0,0.0,0.0,0.0,0.0,0.0,0.0,0.0,0.0,0.0,0.0,0.0,0.0,0.0,0.3271,0.3229,0.3974,0.4086,0.0,0.0,0.2795,0.3321,0.2861,0.0,0.0,0.0,0.0,0.0,0.0,0.0,0.0,0.0,0.0,0.0,0.0,0.0,0.0,0.0,0.0,0.0,0.0,0.0,0.0,0.0,0.0,0.0,0.0,0.0,0.0,0.0,0.0,0.0,0.0,0.0,0.0,0.0,0.0,0.0,0.0,0.0,0.0,0.0,0.0,0.0,0.0,0.0,0.0,0.0,0.0,0.0,0.0,0.0,0.0,0.0,0.0,0.0,0.0,0.0,0.2672,0.311,0.3699,0.4127,0.4376,0.4626,0.4876,0.5115,0.5145,0.5051,0.0,0.0,0.0,0.0,0.0,0.0,0.0,0.0,0.0,0.0,0.0,0.0,0.0,0.0,0.0,0.0,0.0,0.0,0.0,0.0,0.0,0.0,0.0,0.0,0.0,0.0,0.0,0.0,0.0,0.0,0.0,0.0,0.0,0.0,0.0,0.0,0.0,0.0,0.0,0.0,0.0,0.0,0.3624,0.4113,0.0,0.0,0.0,0.3721,0.3883,0.0,0.0,0.0,0.0,0.0,0.0,0.0,0.0,0.0,0.0,0.0,0.0,0.0,0.0,0.0,0.0,0.0,0.0,0.0,0.0,0.0,0.0,0.0,0.0,0.0,0.0,0.0,0.0,0.0,0.0,0.0,0.0,0.0,0.0,0.0,0.0,0.0,0.0,0.0,0.0,0.0,0.0,0.0,0.0,0.0,0.0,0.0,0.0,0.0,0.0,0.0,0.0,0.0,0.0,0.0,0.0,0.0,0.3189,0.375,0.415,0.4408,0.446,0.4565,0.4744,0.47,0.0,0.0,0.0,0.0,0.0,0.0,0.0,0.0,0.0,0.0,0.0,0.0,0.0,0.0,0.0,0.0,0.0,0.0,0.0,0.0,0.0,0.0,0.0,0.0,0.0,0.0,0.0,0.0,0.0,0.0,0.0,0.0,0.0,0.0,0.0,0.0,0.0,0.0,0.0,0.0,0.0,0.0,0.3513,0.4045,0.4121,0.425,0.0,0.0,0.4372,0.4238,0.4332,0.4106,0.0,0.0,0.0,0.0,0.0,0.0,0.0,0.0,0.0,0.0,0.0,0.0,0.0,0.0,0.0,0.0,0.0,0.0,0.0,0.0,0.0,0.0,0.0,0.0,0.0,0.0,0.0,0.0,0.0,0.0,0.0,0.0,0.0,0.0,0.0,0.0,0.0,0.0,0.0,0.0,0.0,0.0,0.0,0.0,0.0,0.0,0.0,0.0,0.0,0.0,0.0,0.0,0.0,0.0,0.2736,0.3203,0.3783,0.4096,0.413,0.4372,0.4535,0.4613,0.4615,0.4474,0.0,0.0,0.0,0.0,0.0,0.0,0.0,0.0,0.0,0.0,0.0,0.0,0.0,0.0,0.0,0.0,0.0,0.0,0.0,0.0,0.0,0.0,0.0,0.0,0.0,0.0,0.0,0.0,0.0,0.0,0.0,0.0,0.0,0.0,0.0,0.0,0.0,0.0,0.0,0.0,0.0,0.4071,0.4426,0.4149,0.4001,0.0,0.4238,0.4217,0.4207,0.4207,0.4017,0.3451,0.0,0.0,0.0,0.0,0.0,0.0,0.0,0.0,0.0,0.0,0.0,0.0,0.0,0.0,0.0,0.0,0.0,0.0,0.0,0.0,0.0,0.0,0.0,0.0,0.0,0.0,0.0,0.0,0.0,0.0,0.0,0.0,0.0,0.0,0.0,0.0,0.0,0.0,0.0,0.0,0.0,0.0,0.0,0.0,0.0,0.0,0.0,0.0,0.0,0.0,0.0,0.0,0.0,0.2479,0.3072,0.3568,0.3836,0.3972,0.4236,0.4429,0.4539,0.4313,0.4103,0.0,0.0,0.0,0.0,0.0,0.0,0.0,0.0,0.0,0.0,0.0,0.0,0.0,0.0,0.0,0.0,0.0,0.0,0.0,0.0,0.0,0.0,0.0,0.0,0.0,0.0,0.0,0.0,0.1416,0.0644,0.1369,0.0,0.0,0.0,0.0,0.0,0.0,0.0,0.0,0.0,0.0,0.4296,0.4251,0.438,0.0,0.0,0.4392,0.4055,0.4187,0.4207,0.4069,0.3708,0.3441,0.0,0.0,0.0,0.0,0.0,0.0,0.0,0.0,0.0,0.0,0.0,0.0,0.0,0.0,0.0,0.0,0.0,0.0,0.0,0.0,0.0,0.0,0.0,0.0,0.0,0.0,0.0,0.0,0.0,0.0,0.0,0.0,0.0,0.0,0.0,0.0,0.0,0.0,0.0,0.0,0.0,0.0,0.0,0.0,0.0,0.0,0.0,0.0,0.0,0.0,0.0,0.0,0.2333,0.2961,0.3344,0.3634,0.3858,0.4144,0.4346,0.4425,0.4096,0.3879,0.0,0.0,0.0,0.0,0.0,0.0,0.0,0.0,0.0,0.0,0.0,0.0,0.0,0.0,0.0,0.0,0.0,0.0,0.0,0.0,0.0,0.0,0.0,0.0,0.0,0.0,0.0,0.0,0.2089,0.0775,0.1591,0.0,0.0,0.0,0.0,0.0,0.0,0.0,0.0,0.0,0.0,0.4208,0.4175,0.434,0.4597,0.4944,0.4617,0.4302,0.4219,0.4215,0.4187,0.4136,0.0,0.0,0.0,0.0,0.0,0.0,0.0,0.0,0.0,0.0,0.0,0.0,0.0,0.0,0.0,0.0,0.0,0.0,0.0,0.0,0.0,0.0,0.0,0.0,0.0,0.0,0.0,0.0312,0.0,0.0,0.0493,0.0,0.0,0.0,0.0,0.0,0.0,0.0,0.0,0.0,0.0,0.0,0.0,0.0,0.0,0.0,0.0,0.0,0.0,0.0,0.0,0.0,0.0,0.2358,0.2888,0.3228,0.3483,0.3722,0.4096,0.4298,0.4312,0.4056,0.3907,0.3898,0.0,0.0,0.0,0.0,0.0,0.0,0.0,0.0,0.0,0.0,0.0,0.0,0.0,0.0,0.0,0.0,0.0,0.0,0.0,0.0,0.0,0.0,0.0,0.0,0.0,0.0,0.3787,0.2418,0.1496,0.0,0.0,0.0,0.0,0.0,0.0,0.0,0.0,0.0,0.3692,0.3691,0.3774,0.4219,0.3972,0.3896,0.4264,0.4827,0.5008,0.4329,0.4205,0.4337,0.0,0.0,0.0,0.0,0.0,0.0,0.0,0.0,0.0,0.0,0.0,0.0,0.0,0.0,0.0,0.0,0.0,0.0,0.0,0.0,0.0,0.0,0.0,0.0,0.0,0.0,0.0,0.0048,0.0182,0.0,0.0,0.0,0.0,0.0,0.0,0.0,0.0,0.0,0.0,0.0,0.1489,0.1566,0.0,0.0,0.0,0.0,0.0,0.0,0.0,0.0,0.0,0.0,0.0,0.0,0.2075,0.2789,0.2995,0.3258,0.3619,0.4078,0.4298,0.4294,0.4069,0.3822,0.3515,0.0,0.0,0.0,0.0,0.0,0.0,0.0,0.0,0.0,0.0,0.0,0.0,0.0,0.0,0.0,0.0,0.0,0.0,0.0,0.0,0.0,0.0,0.0,0.0,0.0,0.2994,0.0,0.0,0.0,0.0,0.0,0.0,0.0,0.0,0.0,0.0,0.2583,0.2835,0.3099,0.3447,0.3728,0.3876,0.3803,0.3737,0.0,0.0,0.0,0.0,0.0,0.0,0.0,0.0,0.0,0.0,0.0,0.0,0.0,0.0,0.6028,0.4735,0.4451,0.4381,0.4238,0.0,0.0,0.0,0.0,0.0,0.0,0.0,0.0,0.0,0.0,0.0,0.0,0.0,0.0,-0.034,-0.017,0.0015,0.0,0.0,0.0,0.0,0.0,0.0,0.0,0.0,0.1548,0.1591,0.1551,0.1615,0.1668,0.1706,0.1834,0.1879,0.0,0.0,0.0,0.0,0.0,0.0,0.0,0.0,0.1981,0.266,0.2778,0.3037,0.3464,0.3968,0.4236,0.4232,0.4069,0.3848,0.3508,0.3169,0.2932,0.0,0.0,0.0,0.0,0.0,0.0,0.0,0.0,0.0,0.0,0.0,0.0,0.0,0.0,0.0,0.0,0.0,0.0,0.0,0.0,0.0,0.0,0.0,0.2366,0.0,0.0,0.0,0.0,0.0,0.0,0.0,0.0,0.0,0.2056,0.2459,0.272,0.2826,0.3167,0.3487,0.3672,0.0,0.0,0.0,0.0,0.0,0.0,0.0,0.4076,0.4275,0.4362,0.4537,0.4873,0.5157,0.5284,0.5161,0.0,0.0,0.5264,0.4883,0.4891,0.4917,0.4973,0.4981,0.4929,0.5325,0.5783,0.0,0.0,0.0,0.0,-0.0936,0.0,0.0,0.0,-0.1151,-0.0954,0.0,-0.0495,0.0,0.0,0.0,0.0,0.08,0.1136,0.0,0.0,0.147,0.1534,0.1584,0.1584,0.1557,0.1505,0.1499,0.1553,0.1635,0.1988,0.2196,0.0,0.0,0.0,0.0,0.0,0.2085,0.2467,0.2604,0.284,0.3195,0.3774,0.4086,0.4126,0.4064,0.3994,0.3914,0.3622,0.3373,0.3105,0.2842,0.0,0.0,0.0,0.0,0.0,0.0,0.0,0.0,0.0,0.0,0.0,0.0,0.0,0.0,0.0,0.0,0.0,0.0,0.0,0.0,0.2091,0.0,0.0,0.0,0.0,0.0,0.0,0.0,0.0,0.0,0.1538,0.2058,0.2449,0.2738,0.2853,0.0,0.0,0.0,0.0,0.4033,0.4857,0.4286,0.3871,0.4221,0.4234,0.425,0.4462,0.0,0.0,0.4918,0.521,0.5602,0.6172,0.7283,0.7873,0.6474,0.5672,0.5481,0.6125,0.5635,0.5273,0.568,0.5569,0.5709,-0.2177,0.0,0.0,0.0,0.0,-0.1457,-0.1603,-0.1708,-0.1477,-0.1293,-0.1123,-0.0869,0.0,0.0,0.0,0.0,0.0,0.0,0.1213,0.1336,0.139,0.1497,0.1591,0.1591,0.158,0.1565,0.1564,0.1597,0.1678,0.1828,0.1904,0.1912,0.0,0.0,0.0,0.0,0.1859,0.2182,0.2253,0.2504,0.2979,0.348,0.3943,0.4372,0.4237,0.4149,0.4117,0.3686,0.3394,0.3312,0.282,0.0,0.0,0.0,0.0,0.0,0.0,0.0,0.0,0.0,0.0,0.0,0.0,0.0,0.0,0.0,0.0,0.0,0.0,0.0,0.2553,0.2153,0.1711,0.0,0.0,0.0,0.0,0.0,0.0,0.0,0.0,0.0,0.2335,0.2495,0.2607,0.0,0.0,0.2739,0.3257,0.4076,0.472,0.4978,0.4551,0.0,0.3896,0.3982,0.4135,0.4334,0.4563,0.476,0.4834,0.5315,0.5733,0.5921,0.6056,0.6097,0.6025,0.599,0.6174,0.6681,0.6467,0.5944,0.5462,0.5693,0.6001,-0.2576,-0.1952,-0.1821,-0.1756,-0.1781,-0.1925,-0.2047,-0.2167,-0.1925,-0.1756,-0.1612,-0.1347,-0.1047,-0.0743,-0.0437,0.0,0.0,0.0,0.0822,0.0991,0.1172,0.1345,0.148,0.1642,0.1696,0.1653,0.1651,0.1645,0.1656,0.1664,0.168,0.1671,0.0,0.191,0.189,0.1727,0.1752,0.1963,0.2033,0.2284,0.2729,0.3369,0.3956,0.4384,0.4273,0.4182,0.4113,0.374,0.3491,0.3401,0.3142,0.2865,0.0,0.0,0.0,0.0,0.0,0.0,0.0,0.0,0.0,0.0,0.0,0.1008,0.0517,0.0,0.0,0.0,0.0948,0.1563,0.226,0.1991,0.0,0.0,0.0,0.0,0.0,0.0,0.0,0.2548,0.2483,0.2465,0.2635,0.2668,0.2645,0.2607,0.2676,0.2892,0.3369,0.0,0.5007,0.5007,0.4798,0.4542,0.4271,0.4019,0.3977,0.4264,0.463,0.486,0.4824,0.5141,0.5395,0.5379,0.5236,0.5173,0.5372,0.5577,0.5835,0.6285,0.6228,0.5891,0.5416,0.5624,0.5691,-0.2762,-0.2713,-0.2477,-0.2312,-0.2263,-0.237,-0.2506,-0.2614,-0.2424,-0.2261,-0.2125,-0.1861,-0.1561,-0.1278,-0.0613,0.0,-0.0215,0.0056,0.0287,0.0503,0.0887,0.1154,0.1331,0.1707,0.1854,0.1721,0.1715,0.1681,0.1621,0.1541,0.1535,0.1526,0.1851,0.1994,0.1853,0.1732,0.1703,0.1768,0.1884,0.2152,0.2526,0.3439,0.4015,0.4304,0.425,0.4145,0.3992,0.3813,0.3616,0.3444,0.3602,0.3344,0.2603,0.0,0.0,0.0,0.0,0.0,0.0,0.0,0.0,0.0,0.0,0.0,0.0,0.0,0.0,0.1224,0.1319,0.0,0.1795,0.1702,0.0,0.0,0.0,0.1464,0.1714,0.1954,0.2068,0.2097,0.0,0.0,0.2907,0.2909,0.2829,0.2643,0.2956,0.3319,0.3751,0.4423,0.4946,0.4832,0.4941,0.5002,0.4912,0.4347,0.4037,0.4395,0.466,0.4836,0.4792,0.4806,0.4796,0.4828,0.4796,0.4812,0.4796,0.4876,0.4892,0.524,0.5288,0.5339,0.5518,0.53,0.502,-0.3314,-0.2999,-0.2991,-0.2822,-0.2597,-0.2595,-0.2743,-0.2888,-0.2595,-0.2416,-0.2385,-0.2058,-0.17,-0.1338,-0.074,-0.0457,-0.0404,-0.0149,0.0121,0.0458,0.0794,0.1099,0.1401,0.1724,0.1896,0.1838,0.1796,0.1745,0.1687,0.1669,0.1613,0.1591,0.1621,0.1602,0.1523,0.1478,0.1486,0.1502,0.1524,0.1945,0.279,0.3524,0.4019,0.43,0.4333,0.4243,0.4009,0.3808,0.3665,0.3618,0.3677,0.346,0.2996,0.2677,0.0,0.0,0.0,0.0,0.0,0.0,0.0,0.0,0.0,0.1684,0.1231,0.0,0.2064,0.0,0.1627,0.1193,0.1273,0.1629,0.0,0.0,0.1469,0.1208,0.1253,0.1585,0.1873,0.2084,0.2216,0.2441,0.2843,0.2909,0.2871,0.2832,0.2917,0.3196,0.3773,0.4211,0.4346,0.4086,0.4526,0.4985,0.4992,0.4838,0.4745,0.5035,0.4872,0.4642,0.4579,0.47,0.4796,0.4796,0.4796,0.4796,0.4796,0.4796,0.4828,0.4902,0.4924,0.4963,0.5122,0.4994,0.4844,-0.3789,-0.3416,-0.3374,-0.3236,-0.3047,-0.291,-0.2955,-0.3011,-0.2727,-0.253,-0.2436,-0.1941,-0.16,-0.1321,-0.0922,-0.0742,-0.0752,-0.0605,-0.0353,0.0032,0.0513,0.0892,0.1224,0.1705,0.1937,0.188,0.1823,0.1781,0.1747,0.1718,0.1689,0.1654,0.1569,0.151,0.1429,0.14,0.1411,0.1411,0.1614,0.2101,0.2923,0.3568,0.4026,0.4238,0.4345,0.4238,0.3883,0.3766,0.3693,0.3693,0.3693,0.3517,0.3124,0.271,0.2292,0.0,0.0,0.0,0.0,0.0,0.0,0.0,0.0,0.0,0.0,0.0,0.1762,0.1814,0.1393,0.1132,0.119,0.1403,0.1546,0.1529,0.1317,0.1173,0.11,0.1438,0.1776,0.2104,0.2144,0.2366,0.2948,0.2956,0.2909,0.2938,0.2926,0.3023,0.3372,0.3593,0.3571,0.3353,0.3932,0.4548,0.4919,0.5007,0.5029,0.5125,0.4964,0.4731,0.4482,0.4549,0.4694,0.478,0.4796,0.4796,0.4796,0.4796,0.4796,0.4796,0.4796,0.4828,0.4886,0.486,0.4796,-0.4291,-0.3948,-0.3797,-0.3662,-0.3578,-0.3335,-0.316,-0.3101,-0.2839,-0.2558,-0.2307,-0.1651,-0.136,-0.1299,-0.1104,-0.1052,-0.1109,-0.1109,-0.0875,-0.0472,0.0202,0.0697,0.1035,0.1696,0.1983,0.1922,0.1835,0.1804,0.1796,0.1744,0.1718,0.1715,0.1657,0.1572,0.1512,0.1452,0.1396,0.1411,0.1861,0.2397,0.2987,0.359,0.4,0.4188,0.4318,0.4186,0.3712,0.3693,0.3693,0.3693,0.3693,0.3541,0.3194,0.275,0.2518,0.0,0.2108,0.0,0.0,0.0,0.0,0.0,0.0,0.0,0.0,0.1387,0.1071,0.0783,0.0984,0.1179,0.1288,0.1184,0.1124,0.1138,0.1232,0.126,0.1155,0.1373,0.1685,0.2041,0.2156,0.2452,0.3044,0.3013,0.2909,0.2923,0.2905,0.2912,0.2909,0.2954,0.2954,0.2909,0.3334,0.406,0.4788,0.5007,0.5007,0.5009,0.5021,0.4919,0.4552,0.4532,0.4648,0.4874,0.503,0.505,0.5002,0.494,0.4796,0.4796,0.4796,0.4796,0.4812,0.4812,0.4796,-0.5297,-0.4858,-0.4751,-0.4456,-0.4037,-0.3961,-0.3647,-0.3166,-0.2817,-0.2414,-0.1953,-0.1521,-0.1327,-0.1302,-0.1135,-0.1104,-0.1109,-0.1109,-0.0875,-0.0472,0.0168,0.0704,0.1132,0.1749,0.2046,0.1984,0.1925,0.1871,0.1797,0.1786,0.1779,0.1778,0.1719,0.1658,0.1597,0.0,0.0,0.0,0.1861,0.2373,0.2987,0.359,0.4,0.4198,0.4337,0.0,0.3733,0.3693,0.3693,0.3693,0.3693,0.0,0.0,0.0,0.0,0.0,0.0,0.0,0.0,0.0,0.0,0.0,0.1434,0.1402,0.1324,0.1195,0.108,0.104,0.1158,0.1271,0.1295,0.1287,0.1258,0.1267,0.1286,0.1305,0.1349,0.1257,0.1304,0.1516,0.193,0.2385,0.2854,0.2909,0.2822,0.2662,0.2769,0.289,0.2909,0.2909,0.2909,0.2934,0.3398,0.4082,0.4876,0.4985,0.4985,0.5,0.4915,0.4917,0.503,0.4973,0.5072,0.5402,0.5847,0.6062,0.605,0.5408,0.482,0.4796,0.478,0.4796,0.4796,0.4796,0.4796,-0.5901,-0.5483,-0.5269,-0.4935,0.0,-0.4231,-0.3835,-0.3321,-0.2973,-0.2397,-0.1784,-0.1387,-0.121,-0.121,-0.1143,-0.1109,-0.1109,-0.1109,-0.0875,-0.0472,0.0168,0.0706,0.1109,0.1796,0.2078,0.2045,0.1954,0.1897,0.1867,0.1811,0.1797,0.1797,0.1766,0.1706,0.1591,0.1501,0.144,0.1412,0.1861,0.2395,0.299,0.3524,0.3954,0.4244,0.4235,0.0,0.0,0.0,0.0,0.0,0.0,0.0,0.0,0.0,0.0,0.3268,0.2947,0.252,0.1994,0.1885,0.1657,0.1207,0.128,0.1302,0.1157,0.1126,0.1094,0.1099,0.1258,0.1346,0.1343,0.1311,0.1302,0.1339,0.1367,0.1371,0.1344,0.1016,0.0833,0.1076,0.1502,0.1989,0.2449,0.241,0.242,0.2475,0.2627,0.2751,0.2865,0.2909,0.2909,0.2909,0.3132,0.3707,0.4473,0.4757,0.4779,0.477,0.4788,0.4893,0.5096,0.5146,0.5282,0.5631,0.5917,0.6046,0.6016,0.5569,0.5071,0.4716,0.4581,0.4585,0.4655,0.4829,0.4941,-0.6411,-0.61,-0.5765,-0.5465,-0.5153,-0.4598,-0.4017,-0.3387,-0.2924,0.0,0.0,-0.1274,-0.1125,-0.1126,-0.1126,-0.1089,-0.1084,-0.1084,-0.0913,-0.0539,0.0168,0.0672,0.1074,0.174,0.2067,0.2074,0.1976,0.1887,0.1865,0.1819,0.1797,0.1797,0.1797,0.1736,0.1589,0.147,0.1411,0.1412,0.1861,0.235,0.2923,0.3388,0.3778,0.4181,0.4016,0.3832,0.3633,0.3517,0.3466,0.3462,0.3589,0.3672,0.3693,0.3693,0.3622,0.3462,0.309,0.2662,0.2172,0.1881,0.1597,0.1313,0.1322,0.1252,0.1162,0.1139,0.1135,0.1157,0.1298,0.1411,0.1411,0.135,0.1327,0.1402,0.1411,0.141,0.1366,0.0851,0.0473,0.0488,0.0825,0.1309,0.1749,0.1797,0.1881,0.2278,0.2418,0.2551,0.2821,0.2909,0.2909,0.2909,0.2976,0.322,0.3943,0.4294,0.4408,0.4408,0.4517,0.4696,0.4893,0.5067,0.5241,0.534,0.5415,0.5366,0.5432,0.5514,0.5323,0.4596,0.4303,0.4276,0.4474,0.4826,0.5073,-0.7205,-0.7015,-0.6972,-0.6534,-0.5821,-0.5521,-0.4527,-0.3128,-0.2415,-0.1965,-0.1667,-0.1337,-0.119,-0.1189,-0.119,-0.1175,-0.1115,-0.1114,-0.0964,-0.0741,-0.0034,0.0504,0.0873,0.1574,0.1956,0.202,0.1998,0.1907,0.1817,0.1801,0.1797,0.1797,0.1797,0.1736,0.1591,0.1471,0.1411,0.1411,0.1794,0.2237,0.2741,0.3078,0.341,0.3682,0.3673,0.3563,0.3368,0.3339,0.3327,0.3339,0.3457,0.3569,0.3677,0.3693,0.3586,0.3339,0.2946,0.2587,0.2288,0.1968,0.1641,0.135,0.1319,0.1306,0.1355,0.1312,0.1295,0.1349,0.1391,0.1411,0.141,0.1393,0.1388,0.1407,0.1411,0.139,0.1332,0.0899,0.026,-0.0478,-0.0163,0.0369,0.0832,0.123,0.1605,0.1924,0.2172,0.24,0.2776,0.2909,0.2909,0.2909,0.2909,0.3129,0.3612,0.3726,0.3818,0.395,0.4034,0.4188,0.4535,0.4644,0.4622,0.4517,0.4338,0.4298,0.4469,0.518,0.5178,0.4621,0.4151,0.3972,0.4331,0.4646,0.4968,-0.7435,-0.7337,-0.7145,-0.667,-0.6035,-0.49,-0.3795,-0.2738,-0.2071,-0.1696,-0.1563,-0.1321,-0.1203,-0.1203,-0.1203,-0.115,-0.1086,-0.1086,-0.0967,-0.0776,-0.0269,0.0168,0.0571,0.1244,0.1613,0.1737,0.1924,0.1958,0.1847,0.1812,0.1797,0.1793,0.1732,0.1628,0.1565,0.1455,0.1411,0.1411,0.1794,0.2194,0.2591,0.2923,0.3253,0.3577,0.3496,0.3396,0.3289,0.3187,0.312,0.314,0.3304,0.3445,0.3528,0.364,0.3576,0.3265,0.2822,0.2457,0.2158,0.1743,0.1482,0.1373,0.1348,0.1349,0.1408,0.1364,0.1376,0.1406,0.1411,0.1411,0.1411,0.1411,0.1411,0.1411,0.1411,0.1046,0.0297,0.0047,-0.0288,-0.0786,-0.0577,-0.0176,0.0378,0.1051,0.1546,0.1737,0.1997,0.2317,0.2625,0.2603,0.2605,0.2845,0.2909,0.3043,0.3369,0.3306,0.3379,0.3689,0.3729,0.3818,0.4034,0.4056,0.3924,0.3615,0.342,0.342,0.3578,0.4298,0.4539,0.4244,0.4006,0.3968,0.417,0.4473,0.4934,-0.7484,-0.7369,-0.7057,-0.6511,-0.5732,-0.3966,-0.2916,-0.2373,-0.179,-0.1466,-0.14,-0.1268,-0.1224,-0.1224,-0.1224,-0.1167,-0.1134,-0.1095,-0.1043,-0.0844,-0.0505,-0.0134,0.0269,0.0941,0.1321,0.1501,0.1838,0.1963,0.1893,0.1817,0.1797,0.1786,0.1662,0.1587,0.1565,0.1481,0.1452,0.1476,0.1798,0.2147,0.2395,0.2726,0.3081,0.3394,0.3291,0.3209,0.3203,0.3059,0.2983,0.2999,0.3131,0.3245,0.3315,0.3639,0.3581,0.301,0.2573,0.2219,0.1944,0.1545,0.1361,0.1407,0.1411,0.1411,0.1411,0.1411,0.1411,0.1411,0.1411,0.1418,0.1434,0.142,0.1402,0.1409,0.1407,0.0764,-0.0594,-0.0814,-0.0791,-0.087,-0.0815,-0.0539,0.0025,0.0819,0.1383,0.1588,0.1917,0.2194,0.2328,0.224,0.2322,0.27,0.2875,0.2979,0.3173,0.3065,0.309,0.3404,0.3445,0.3423,0.3467,0.3445,0.3334,0.3051,0.2993,0.3052,0.3069,0.3524,0.3865,0.3704,0.3765,0.3917,0.4058,0.4396,0.4788,-0.7411,-0.7219,-0.6984,-0.6086,-0.475,-0.3253,-0.2467,-0.2163,-0.1519,-0.1253,-0.1251,-0.1276,-0.1286,-0.1288,-0.1286,-0.1253,-0.12,-0.1198,-0.1131,-0.1013,-0.0672,-0.0302,0.0067,0.0773,0.1209,0.1433,0.1791,0.1947,0.1819,0.1802,0.1797,0.179,0.173,0.1691,0.168,0.1625,0.1597,0.1598,0.1875,0.2054,0.2144,0.2417,0.2684,0.2954,0.2946,0.2937,0.2954,0.2929,0.292,0.2898,0.2925,0.295,0.3018,0.3752,0.3615,0.2326,0.1995,0.1828,0.1728,0.1533,0.1403,0.1411,0.1411,0.1411,0.1411,0.1411,0.1411,0.1411,0.1411,0.1462,0.155,0.1477,0.1399,0.1411,0.1387,0.0787,-0.0542,-0.0889,-0.0887,-0.0893,-0.0878,-0.0856,-0.0603,0.0107,0.0881,0.1474,0.1814,0.2025,0.2057,0.1984,0.2081,0.2564,0.279,0.2875,0.2934,0.2932,0.2932,0.2979,0.2979,0.3001,0.3046,0.3023,0.2932,0.2974,0.3012,0.3107,0.3118,0.3231,0.3336,0.3506,0.3624,0.3767,0.4104,0.4381,0.4647,-0.7296,-0.7184,-0.6718,-0.5659,-0.4211,-0.3111,-0.2399,-0.1889,-0.1407,-0.1195,-0.1174,-0.1225,-0.124,-0.1296,-0.1297,-0.1272,-0.1193,-0.1174,-0.1144,-0.1103,-0.0915,-0.0639,-0.0236,0.0437,0.0888,0.1203,0.1741,0.1959,0.1883,0.1815,0.1779,0.1744,0.1718,0.1688,0.1654,0.1628,0.1591,0.1616,0.1869,0.2089,0.2267,0.2467,0.266,0.2873,0.2909,0.2909,0.2909,0.2909,0.2909,0.2887,0.2773,0.2773,0.2887,0.3265,0.2993,0.2018,0.1772,0.1682,0.1705,0.1502,0.1411,0.1411,0.1411,0.1411,0.1411,0.1411,0.1411,0.1411,0.1412,0.1466,0.1582,0.1481,0.1405,0.1382,0.1241,0.0659,-0.0389,-0.0757,-0.0897,-0.0897,-0.0897,-0.0897,-0.0784,-0.011,0.0626,0.1239,0.1642,0.1879,0.1888,0.1824,0.1967,0.2286,0.2446,0.2553,0.2665,0.2684,0.2707,0.2754,0.2751,0.2751,0.2865,0.2887,0.2909,0.2909,0.2983,0.3085,0.3166,0.3166,0.32,0.3348,0.3535,0.375,0.4261,0.4433,0.4517,-0.7103,-0.6945,-0.621,-0.5176,-0.4,-0.3053,-0.2311,-0.1735,-0.1334,-0.1171,-0.1199,-0.1208,-0.1228,-0.1294,-0.1297,-0.1279,-0.1211,-0.1181,-0.1151,-0.112,-0.109,-0.0908,-0.0539,0.0135,0.0594,0.0956,0.1588,0.1902,0.1861,0.1819,0.1774,0.1736,0.1732,0.1708,0.1644,0.1665,0.1666,0.1691,0.1924,0.2173,0.2424,0.2616,0.2785,0.291,0.2906,0.2909,0.2909,0.2909,0.2909,0.2887,0.2729,0.2662,0.2773,0.2798,0.2442,0.1792,0.1614,0.1569,0.1636,0.1479,0.1411,0.1411,0.1411,0.1411,0.1411,0.1411,0.1411,0.1394,0.1447,0.1563,0.1591,0.1553,0.1491,0.1354,0.1075,0.0589,-0.0112,-0.0617,-0.0897,-0.0897,-0.0897,-0.0897,-0.0785,-0.0168,0.0558,0.0977,0.1483,0.1797,0.1779,0.1738,0.177,0.2025,0.2027,0.2129,0.2375,0.244,0.2486,0.2618,0.2662,0.2773,0.2865,0.2887,0.2909,0.2909,0.2909,0.2978,0.3142,0.3188,0.3245,0.3254,0.3436,0.3761,0.4167,0.4349,0.4463,-0.6791,-0.65,-0.5371,-0.4643,-0.4096,-0.2836,-0.2109,-0.1861,-0.1333,-0.114,-0.1172,-0.1198,-0.1228,-0.1296,-0.1297,-0.1241,-0.1211,-0.1181,-0.1151,-0.1122,-0.1091,-0.0976,-0.0741,-0.0034,0.0392,0.0656,0.1356,0.1731,0.1781,0.18,0.1797,0.1792,0.1788,0.1789,0.1779,0.1777,0.1786,0.1803,0.205,0.2302,0.2505,0.2808,0.2963,0.3016,0.293,0.2898,0.2893,0.289,0.2887,0.2887,0.2751,0.2637,0.2549,0.2506,0.2148,0.1523,0.1412,0.1412,0.1412,0.1411,0.1411,0.1411,0.1411,0.1411,0.1411,0.1411,0.1411,0.1412,0.1629,0.173,0.171,0.171,0.1615,0.1331,0.1062,0.0617,0.0056,-0.0561,-0.0841,-0.0897,-0.0897,-0.0897,-0.0869,-0.0196,0.0364,0.0869,0.1403,0.1769,0.1773,0.1591,0.1615,0.172,0.1696,0.1597,0.2003,0.2152,0.2286,0.2464,0.264,0.2865,0.2887,0.2909,0.2915,0.2909,0.2909,0.298,0.3126,0.3269,0.3363,0.3457,0.3552,0.3843,0.4042,0.4294,0.4408,-0.6483,-0.6121,-0.5444,-0.4858,-0.422,-0.3089,-0.2394,-0.2015,-0.1366,-0.1121,-0.1199,-0.1179,-0.1248,-0.1297,-0.1297,-0.1291,-0.1236,-0.1226,-0.1196,-0.118,-0.1133,-0.0975,-0.0774,-0.0264,0.013,0.0476,0.1069,0.1525,0.1778,0.1797,0.1797,0.1797,0.1797,0.1797,0.1797,0.1797,0.1797,0.1825,0.2073,0.2338,0.261,0.2884,0.3075,0.3247,0.3085,0.2961,0.2959,0.2841,0.2773,0.2773,0.2571,0.2479,0.2437,0.2034,0.1678,0.1456,0.1411,0.1411,0.1411,0.1411,0.1411,0.1411,0.1411,0.1411,0.1411,0.1411,0.1411,0.1452,0.1628,0.1768,0.1768,0.1781,0.1684,0.1347,0.1066,0.0645,0.0084,-0.0505,-0.0897,-0.0897,-0.0897,-0.0897,-0.0785,-0.0421,0.0084,0.0505,0.0954,0.1347,0.1705,0.1708,0.1695,0.1758,0.1729,0.1694,0.185,0.1922,0.202,0.2241,0.2464,0.2695,0.2806,0.2942,0.2978,0.2918,0.2909,0.3005,0.3158,0.3317,0.3452,0.3531,0.3663,0.3744,0.3885,0.4024,0.4187,-0.6331,-0.5992,-0.5666,-0.52,-0.456,-0.3432,-0.2736,-0.2288,-0.148,-0.111,-0.1194,-0.1203,-0.1238,-0.129,-0.1297,-0.1297,-0.129,-0.1232,-0.1203,-0.1196,-0.1138,-0.1009,-0.0839,-0.0494,-0.0163,0.016,0.0828,0.1388,0.1739,0.1805,0.1824,0.1824,0.1807,0.1797,0.1797,0.1797,0.1797,0.1852,0.2074,0.2352,0.2683,0.2879,0.3086,0.3326,0.3138,0.3023,0.3056,0.2871,0.2743,0.267,0.2411,0.2259,0.2217,0.1724,0.1411,0.1411,0.1411,0.1411,0.1411,0.1411,0.1411,0.1411,0.1411,0.1411,0.1411,0.1411,0.1411,0.1459,0.1651,0.1797,0.1797,0.1797,0.1684,0.1375,0.1038,0.0561,0.0,-0.0589,-0.0841,-0.0897,-0.0897,-0.0897,-0.0841,-0.0561,-0.014,0.0336,0.0729,0.1206,0.1656,0.1797,0.1797,0.1797,0.1792,0.1774,0.1858,0.188,0.1873,0.2065,0.2326,0.2539,0.2779,0.2931,0.3047,0.2942,0.2964,0.3058,0.3205,0.3373,0.3482,0.3566,0.361,0.3663,0.3719,0.3694,0.3885,-0.6303,-0.6217,-0.5932,-0.5571,-0.5048,-0.3783,-0.3021,-0.2552,-0.1578,-0.1179,-0.1234,-0.1203,-0.1238,-0.1288,-0.1297,-0.1297,-0.1286,-0.1235,-0.1206,-0.1197,-0.1138,-0.1109,-0.1041,-0.0701,-0.046,-0.0289,0.0687,0.1321,0.1648,0.1782,0.1844,0.1897,0.1822,0.1797,0.1797,0.1797,0.1797,0.1852,0.2045,0.2382,0.2691,0.2824,0.3067,0.3307,0.313,0.3032,0.3157,0.2967,0.2782,0.2668,0.2363,0.2091,0.1861,0.1569,0.1411,0.1411,0.1411,0.1411,0.1411,0.1411,0.1411,0.1411,0.1411,0.1411,0.1411,0.1411,0.1411,0.1444,0.1646,0.1797,0.1797,0.1797,0.1685,0.1487,0.0982,0.0393,-0.0196,-0.0645,-0.0897,-0.0897,-0.0897,-0.0897,-0.0813,-0.0589,-0.0168,0.0336,0.0813,0.129,0.1713,0.1797,0.1797,0.1797,0.1797,0.1797,0.1824,0.1861,0.1853,0.1881,0.2157,0.2408,0.2683,0.2889,0.3196,0.3186,0.312,0.3232,0.3368,0.3515,0.3526,0.3613,0.361,0.361,0.361,0.3641,0.3613,-0.6388,-0.6279,-0.6044,-0.5679,-0.52,-0.4083,-0.3353,-0.2822,-0.1883,-0.1422,-0.134,-0.1239,-0.1237,-0.1286,-0.1297,-0.1297,-0.1293,-0.1215,-0.1187,-0.1196,-0.1139,-0.1109,-0.1072,-0.0925,-0.0676,-0.0283,0.0217,0.0801,0.1289,0.1465,0.1618,0.1841,0.1826,0.1798,0.1797,0.1797,0.1797,0.1825,0.2074,0.2354,0.2691,0.2833,0.2996,0.3155,0.3014,0.293,0.2844,0.2741,0.2596,0.2435,0.2237,0.2035,0.1806,0.1547,0.1411,0.1411,0.1411,0.1411,0.1411,0.1411,0.1411,0.1411,0.1411,0.1411,0.1411,0.1411,0.1411,0.1434,0.1651,0.1797,0.1797,0.1713,0.16,0.1515,0.0982,0.0364,-0.0252,-0.0645,-0.0841,-0.0897,-0.0897,-0.0897,-0.0841,-0.0617,-0.0196,0.0308,0.0757,0.1178,0.1656,0.1797,0.1797,0.1797,0.1797,0.1797,0.1833,0.1821,0.1835,0.1856,0.2039,0.2272,0.2558,0.288,0.3176,0.3413,0.335,0.3383,0.3547,0.3613,0.3613,0.3613,0.3613,0.3613,0.3613,0.3613,0.3613,-0.6494,-0.6396,-0.6101,-0.5791,-0.5373,-0.4414,-0.3723,-0.319,-0.2217,-0.169,-0.1574,-0.1307,-0.123,-0.1274,-0.1291,-0.1297,-0.1293,-0.1225,-0.1202,-0.1176,-0.1121,-0.1088,-0.111,-0.1059,-0.0813,-0.0416,-0.0128,0.0382,0.1048,0.1223,0.1467,0.1756,0.1808,0.1797,0.1797,0.1797,0.1797,0.1853,0.2046,0.2324,0.2607,0.2777,0.2856,0.291,0.2826,0.2687,0.2539,0.2468,0.2399,0.2232,0.1987,0.1773,0.1639,0.1502,0.1411,0.1411,0.1411,0.1411,0.1411,0.1411,0.1411,0.1411,0.1411,0.1411,0.1411,0.1411,0.1411,0.144,0.1628,0.1769,0.1628,0.1487,0.1403,0.1403,0.0954,0.0308,-0.0364,-0.0729,-0.0869,-0.0897,-0.0897,-0.0897,-0.0841,-0.0673,-0.028,0.0196,0.0533,0.101,0.1515,0.1797,0.1797,0.1797,0.1797,0.1797,0.1797,0.1794,0.1794,0.1877,0.1957,0.215,0.2359,0.2747,0.311,0.3433,0.3498,0.3482,0.3613,0.3613,0.3613,0.3613,0.3585,0.3613,0.3613,0.3613,0.3613,-0.6617,-0.6637,-0.6237,-0.5948,-0.5686,-0.4784,-0.4159,-0.367,-0.2661,-0.206,-0.1836,-0.1409,-0.1186,-0.1217,-0.1286,-0.1297,-0.1292,-0.1232,-0.1215,-0.1195,-0.1151,-0.1109,-0.1112,-0.1072,-0.0901,-0.0601,-0.0401,0.0033,0.0631,0.0919,0.1327,0.1627,0.17,0.1811,0.1824,0.1811,0.1816,0.1867,0.2057,0.228,0.2497,0.2579,0.2663,0.2663,0.2519,0.2382,0.2237,0.2195,0.2191,0.2109,0.1699,0.1464,0.1412,0.1411,0.1412,0.1431,0.1426,0.1427,0.1423,0.1427,0.1419,0.1414,0.1411,0.1416,0.1426,0.1461,0.1479,0.1483,0.1626,0.16,0.129,0.115,0.1122,0.1122,0.0645,0.0,-0.0701,-0.0897,-0.0897,-0.0897,-0.0897,-0.0897,-0.0897,-0.0757,-0.0421,0.0,0.0308,0.0813,0.1487,0.1797,0.1797,0.1797,0.1798,0.1797,0.1797,0.1797,0.1797,0.1818,0.1887,0.2017,0.2198,0.2585,0.3081,0.339,0.3613,0.3613,0.3613,0.3613,0.3557,0.3502,0.353,0.3585,0.3557,0.3499,0.3585,-0.6766,-0.6675,-0.6451,-0.6217,-0.5886,-0.5282,-0.4673,-0.4013,-0.3113,-0.249,-0.2084,-0.1488,-0.1232,-0.1281,-0.1291,-0.1297,-0.1293,-0.1287,-0.1231,-0.1209,-0.1174,-0.116,-0.1118,-0.1109,-0.1042,-0.0908,-0.074,-0.0438,-0.0034,0.0324,0.0796,0.1367,0.1467,0.1651,0.1895,0.195,0.1929,0.1894,0.2032,0.218,0.228,0.2329,0.2324,0.2324,0.2212,0.2073,0.1936,0.1908,0.1932,0.1937,0.1628,0.1412,0.1414,0.1412,0.145,0.1529,0.1541,0.155,0.1548,0.1508,0.1459,0.1416,0.1414,0.1436,0.1546,0.1634,0.1688,0.1658,0.1551,0.1206,0.0785,0.0729,0.0673,0.0336,-0.0084,-0.0534,-0.0786,-0.0897,-0.0897,-0.0897,-0.0897,-0.0898,-0.0903,-0.0844,-0.062,-0.0169,0.0169,0.0589,0.129,0.18,0.18,0.1802,0.1802,0.1798,0.1797,0.1797,0.1797,0.1797,0.1821,0.1849,0.2093,0.2404,0.2942,0.3444,0.3557,0.3613,0.3613,0.3613,0.353,0.3416,0.3249,0.3218,0.3246,0.3246,0.3444,-0.6869,-0.6868,-0.6654,-0.6441,-0.6155,-0.5766,-0.5234,-0.451,-0.3548,-0.2876,-0.2393,-0.1567,-0.1231,-0.1236,-0.1291,-0.1297,-0.1297,-0.1297,-0.1286,-0.1265,-0.1223,-0.1168,-0.1122,-0.1109,-0.1109,-0.1076,-0.0976,-0.0706,-0.0401,-0.0164,0.0356,0.0961,0.1251,0.151,0.1843,0.197,0.1988,0.1955,0.2098,0.2167,0.2191,0.2244,0.2202,0.2164,0.2035,0.1933,0.1825,0.1797,0.1796,0.1786,0.1651,0.152,0.1398,0.1411,0.1489,0.1668,0.1691,0.1661,0.1618,0.1567,0.1548,0.1483,0.1426,0.1452,0.1521,0.1672,0.1769,0.1398,0.1038,0.0617,0.0336,0.028,0.0056,-0.0309,-0.0712,-0.0915,-0.0929,-0.0897,-0.0897,-0.0897,-0.0898,-0.0911,-0.0928,-0.0925,-0.0723,-0.0434,-0.0285,0.0283,0.0926,0.1408,0.1841,0.1883,0.1909,0.1926,0.1882,0.1858,0.1867,0.1861,0.1868,0.1858,0.1985,0.2315,0.2886,0.336,0.3502,0.3613,0.3613,0.353,0.336,0.3193,0.2996,0.2777,0.2781,0.2742,0.3023,-0.6977,-0.7068,-0.6837,-0.6634,-0.6468,-0.6161,-0.5673,-0.5036,-0.3994,-0.3256,-0.2726,-0.1718,-0.1344,-0.1218,-0.1288,-0.1297,-0.1297,-0.1297,-0.1287,-0.1262,-0.122,-0.1163,-0.1114,-0.1109,-0.1109,-0.1109,-0.1109,-0.0907,-0.0635,-0.0492,-0.0065,0.0486,0.0886,0.1311,0.1603,0.1815,0.1958,0.2013,0.2105,0.2154,0.2156,0.2199,0.2133,0.2066,0.2016,0.1908,0.1824,0.1794,0.1774,0.1718,0.1768,0.1664,0.1469,0.1439,0.1548,0.1733,0.1774,0.1736,0.1658,0.1609,0.1554,0.1515,0.1435,0.1376,0.137,0.1476,0.1403,0.0926,0.028,0.0,-0.0056,-0.0224,-0.0449,-0.0732,-0.0928,-0.0959,-0.0924,-0.0911,-0.0905,-0.0897,-0.0897,-0.0927,-0.096,-0.0944,-0.0843,-0.0689,-0.0561,-0.0234,0.0557,0.134,0.1793,0.2102,0.2117,0.2123,0.2012,0.1928,0.194,0.1948,0.1966,0.198,0.1976,0.2318,0.2876,0.3286,0.3571,0.3642,0.3613,0.3474,0.3301,0.2882,0.2569,0.232,0.2156,0.2108,0.227,-0.7068,-0.7078,-0.6913,-0.6793,-0.6637,-0.6451,-0.5968,-0.5246,-0.4462,-0.3711,-0.2973,-0.2084,-0.1637,-0.1519,-0.137,-0.1297,-0.1296,-0.1292,-0.1272,-0.1219,-0.115,-0.1112,-0.1114,-0.1109,-0.1109,-0.1109,-0.1109,-0.1042,-0.0938,-0.0735,-0.05,-0.0066,0.0395,0.0791,0.1348,0.1605,0.1827,0.2021,0.2107,0.2115,0.2069,0.2042,0.2,0.193,0.1881,0.1855,0.1825,0.1797,0.179,0.1785,0.1779,0.1723,0.1621,0.1655,0.1728,0.1768,0.1797,0.1782,0.1727,0.1606,0.1467,0.1297,0.1304,0.1259,0.0949,0.0988,0.0896,0.0477,-0.0196,-0.0533,-0.0395,-0.059,-0.0759,-0.0876,-0.0913,-0.0981,-0.1038,-0.0994,-0.095,-0.0918,-0.0905,-0.0922,-0.0982,-0.1024,-0.0985,-0.0903,-0.0829,-0.0698,0.0123,0.1127,0.1681,0.2119,0.2181,0.2128,0.1979,0.1883,0.1899,0.1872,0.1916,0.2046,0.2048,0.2178,0.2681,0.321,0.3706,0.3735,0.3695,0.3613,0.3516,0.2836,0.2119,0.1868,0.1675,0.1583,0.1421,-0.6997,-0.6997,-0.6987,-0.6902,-0.6692,-0.6536,-0.6139,-0.551,-0.4786,-0.4217,-0.3576,-0.2614,-0.2035,-0.1844,-0.1492,-0.1297,-0.1293,-0.124,-0.1203,-0.1154,-0.1126,-0.1105,-0.1114,-0.1109,-0.1109,-0.1109,-0.1109,-0.1109,-0.1076,-0.0975,-0.0739,-0.0403,-0.0034,0.0569,0.1143,0.1445,0.1801,0.208,0.2138,0.212,0.2084,0.2001,0.1914,0.185,0.1813,0.1797,0.1797,0.1713,0.1713,0.1713,0.1766,0.1771,0.1694,0.1759,0.1792,0.1797,0.1797,0.1797,0.1757,0.1494,0.1127,0.0727,0.0876,0.09,0.06,0.0361,0.0336,0.0308,-0.0197,-0.0819,-0.0721,-0.0791,-0.093,-0.091,-0.0932,-0.0989,-0.1079,-0.1064,-0.1002,-0.0972,-0.0954,-0.1004,-0.1045,-0.1048,-0.1055,-0.0996,-0.1002,-0.0833,-0.0097,0.0882,0.1579,0.1985,0.2153,0.2138,0.1942,0.183,0.1785,0.1752,0.1715,0.191,0.2099,0.2217,0.2422,0.2929,0.34,0.3848,0.3874,0.3781,0.3278,0.2227,0.1517,0.1339,0.1136,0.0879,0.0689,-0.6852,-0.6902,-0.698,-0.6873,-0.6668,-0.6562,-0.6244,-0.5787,-0.5155,-0.4667,-0.4207,-0.3094,-0.2469,-0.215,-0.157,-0.1335,-0.1287,-0.1217,-0.1175,-0.1142,-0.1117,-0.1097,-0.1113,-0.1109,-0.1109,-0.1109,-0.1109,-0.1109,-0.1109,-0.1076,-0.0908,-0.0571,-0.0269,0.0269,0.0908,0.1344,0.1713,0.211,0.2177,0.2177,0.2159,0.2069,0.1966,0.1843,0.1805,0.177,0.1713,0.16,0.1487,0.1487,0.1628,0.1713,0.1741,0.1797,0.1769,0.1741,0.1685,0.1628,0.1515,0.1231,0.0755,0.0028,0.028,0.0476,0.028,-0.0084,-0.0112,-0.0084,-0.0366,-0.0917,-0.0989,-0.0962,-0.0951,-0.0937,-0.0976,-0.1026,-0.1058,-0.1045,-0.1042,-0.1083,-0.105,-0.105,-0.1066,-0.1058,-0.1062,-0.1066,-0.1072,-0.0908,-0.0202,0.0505,0.1177,0.1412,0.1446,0.1986,0.1961,0.086,0.0905,0.121,0.121,0.1575,0.1835,0.2026,0.2149,0.2581,0.3018,0.3466,0.3784,0.3736,0.2963,0.1627,0.0959,0.0807,0.0512,0.0191,0.0,-0.6739,-0.6739,-0.6763,-0.6668,-0.6562,-0.6521,-0.624,-0.5844,-0.5562,-0.5059,-0.4419,-0.3475,-0.2806,-0.2352,-0.1649,-0.1335,-0.1281,-0.1206,-0.1171,-0.1144,-0.1114,-0.1084,-0.1111,-0.1109,-0.1109,-0.1109,-0.1109,-0.1109,-0.1109,-0.1076,-0.1041,-0.0908,-0.0606,-0.0034,0.0538,0.1008,0.1512,0.2018,0.2119,0.2153,0.2102,0.2044,0.1955,0.1819,0.1751,0.1704,0.1552,0.1322,0.1122,0.1066,0.1262,0.1346,0.1346,0.1543,0.1487,0.1375,0.1318,0.1206,0.1094,0.0869,0.0421,0.0,-0.0056,-0.0028,-0.0112,-0.0196,-0.0336,-0.0561,-0.0649,-0.0925,-0.0997,-0.0946,-0.0938,-0.097,-0.099,-0.1053,-0.1092,-0.1101,-0.1062,-0.1104,-0.1092,-0.1084,-0.1092,-0.1064,-0.1067,-0.107,-0.1106,-0.1109,-0.074,-0.0034,0.0638,0.0672,0.0539,0.1312,0.1981,0.0435,-0.0336,0.0202,0.0437,0.0907,0.1207,0.1577,0.1843,0.1759,0.2299,0.2952,0.3236,0.3449,0.2443,0.1005,0.0601,0.0,0.0231,0.0,0.0,-0.658,-0.6631,-0.6664,-0.661,-0.6515,-0.6429,-0.6285,-0.6041,-0.5879,-0.5533,-0.486,-0.3969,-0.3209,-0.2626,-0.1728,-0.1289,-0.1265,-0.1208,-0.1173,-0.1142,-0.1113,-0.1089,-0.1111,-0.1109,-0.1109,-0.1109,-0.1109,-0.1109,-0.1109,-0.1109,-0.1109,-0.1009,-0.0774,-0.0303,0.0303,0.0672,0.1176,0.1715,0.1884,0.1884,0.1879,0.1799,0.173,0.1643,0.1579,0.1479,0.124,0.1033,0.076,0.0605,0.0595,0.0618,0.0617,0.0505,0.0505,0.0617,0.0645,0.0701,0.0645,0.0449,-0.0028,-0.0505,-0.0505,-0.0505,-0.0561,-0.0561,-0.0589,-0.0786,-0.0898,-0.0911,-0.0947,-0.096,-0.0989,-0.1022,-0.1064,-0.1078,-0.1099,-0.1107,-0.1109,-0.1109,-0.1102,-0.1098,-0.1102,-0.1106,-0.1108,-0.1109,-0.1109,-0.1109,-0.1109,-0.0605,0.0067,0.0034,0.0,0.0808,0.1413,0.0336,-0.0907,-0.0605,-0.0235,0.0235,0.047,0.0739,0.0504,0.0265,0.1038,0.2082,0.2614,0.2793,0.1574,0.0,0.0,0.0,0.0,0.0,0.0,-0.643,-0.648,-0.6563,-0.6542,-0.6467,-0.6385,-0.6327,-0.6279,-0.6173,-0.5915,-0.547,-0.4341,-0.3519,-0.2859,-0.1958,-0.1284,-0.122,-0.1216,-0.1181,-0.1142,-0.1123,-0.1104,-0.1082,-0.1109,-0.1109,-0.1109,-0.1109,-0.1109,-0.1109,-0.1109,-0.1109,-0.1042,-0.0909,-0.0505,0.0067,0.0336,0.084,0.1176,0.1378,0.1378,0.1369,0.1308,0.1243,0.1216,0.1209,0.1046,0.0766,0.052,0.0334,0.0089,-0.0058,-0.0168,-0.0252,-0.0645,-0.0673,-0.028,-0.0168,0.0028,0.0168,0.0056,-0.0364,-0.0785,-0.0848,-0.0876,-0.0869,-0.0813,-0.0841,-0.0898,-0.0944,-0.0922,-0.0943,-0.0966,-0.1006,-0.1069,-0.1092,-0.1109,-0.1107,-0.1109,-0.1109,-0.1109,-0.1109,-0.1109,-0.1109,-0.1109,-0.1109,-0.1109,-0.1109,-0.1109,-0.1109,-0.1109,-0.0706,-0.0639,-0.037,0.0438,0.0673,0.0269,-0.0672,-0.0907,-0.0672,-0.0336,-0.0269,-0.0168,-0.0437,-0.0571,-0.0101,0.0875,0.1513,0.2017,0.1211,0.0,0.0,0.0,0.0,0.0,0.0,-0.6323,-0.6327,-0.6351,-0.634,-0.6351,-0.6436,-0.6412,-0.6323,-0.6402,-0.6113,-0.5536,-0.4338,-0.3519,-0.2781,-0.1804,-0.1333,-0.1283,-0.1263,-0.1195,-0.1193,-0.1135,-0.1108,-0.1113,-0.1109,-0.1109,-0.1109,-0.1109,-0.1109,-0.1109,-0.1109,-0.1109,-0.1076,-0.0909,-0.0573,-0.0202,0.0,0.0235,0.0571,0.0638,0.0672,0.0636,0.0589,0.0548,0.0543,0.0535,0.0467,0.025,0.0031,-0.0217,-0.0398,-0.064,-0.0762,-0.0813,-0.0841,-0.0897,-0.0813,-0.0757,-0.0645,-0.0338,-0.0368,-0.054,-0.0828,-0.0895,-0.0891,-0.0881,-0.0913,-0.0917,-0.09,-0.0974,-0.0975,-0.0979,-0.0994,-0.1007,-0.1016,-0.1065,-0.1091,-0.1105,-0.1109,-0.1109,-0.1109,-0.1109,-0.1109,-0.1109,-0.1109,-0.1109,-0.1109,-0.1109,-0.1109,-0.1109,-0.1109,-0.1109,-0.0975,-0.0874,-0.0168,0.0101,-0.0336,-0.0572,-0.1076,-0.0974,-0.0806,-0.0739,-0.0672,-0.084,-0.084,-0.0471,-0.0135,0.0572,0.0875,0.0706,0.0,0.0,0.0,0.0,0.0,0.0,-0.6419,-0.6422,-0.6422,-0.6371,-0.632,-0.645,-0.6477,-0.6443,-0.6484,-0.6238,-0.5574,-0.436,-0.3209,-0.2195,-0.1452,-0.1335,-0.1293,-0.1281,-0.1248,-0.1211,-0.115,-0.1121,-0.1118,-0.1109,-0.1109,-0.1111,-0.1109,-0.1109,-0.1109,-0.1109,-0.1109,-0.1076,-0.1009,-0.0774,-0.047,-0.0336,-0.0101,0.0168,0.0336,0.037,0.0201,0.0066,0.0033,0.0165,0.0163,0.0,-0.0194,-0.0324,-0.0546,-0.0733,-0.0963,-0.0962,-0.0917,-0.09,-0.0909,-0.095,-0.095,-0.0854,-0.0726,-0.0734,-0.0825,-0.0886,-0.0949,-0.0933,-0.092,-0.0956,-0.1024,-0.1032,-0.1053,-0.1067,-0.1055,-0.1033,-0.1022,-0.1024,-0.1039,-0.107,-0.1096,-0.1106,-0.1109,-0.1109,-0.1109,-0.1109,-0.1109,-0.1109,-0.1109,-0.1109,-0.1109,-0.1109,-0.1109,-0.1109,-0.1109,-0.1076,-0.1042,-0.084,-0.0706,-0.084,-0.0807,-0.1109,-0.1109,-0.0974,-0.1008,-0.1076,-0.1109,-0.0975,-0.064,-0.0337,-0.0067,0.0,0.0,0.0,0.0,0.0,0.0,0.0,0.0,-0.6495,-0.6525,-0.6528,-0.645,-0.6371,-0.6508,-0.6573,-0.6573,-0.658,-0.6343,-0.5599,-0.4349,-0.2859,-0.1727,-0.1414,-0.1375,-0.1297,-0.1297,-0.1264,-0.123,-0.1172,-0.1148,-0.1116,-0.1132,-0.1089,-0.1086,-0.1112,-0.111,-0.1109,-0.1109,-0.1109,-0.1109,-0.1076,-0.0941,-0.0739,-0.0638,-0.0538,-0.037,-0.0168,-0.0168,-0.0302,-0.047,-0.0436,-0.0369,-0.0302,-0.037,-0.0605,-0.067,-0.0828,-0.0954,-0.1056,-0.1054,-0.0968,-0.0924,-0.093,-0.0969,-0.1024,-0.0997,-0.0919,-0.0916,-0.0987,-0.1016,-0.1016,-0.0971,-0.1,-0.1065,-0.1108,-0.1093,-0.1098,-0.1104,-0.1097,-0.1052,-0.1048,-0.1035,-0.1023,-0.1054,-0.1082,-0.1099,-0.1109,-0.1109,-0.1109,-0.1109,-0.1109,-0.1109,-0.1109,-0.1109,-0.1109,-0.1109,-0.1109,-0.1109,-0.1109,-0.1109,-0.1076,-0.1076,-0.1076,-0.1076,-0.1076,-0.1109,-0.1109,-0.1109,-0.1109,-0.1109,-0.1109,-0.0942,-0.074,-0.0404,-0.0067,0.0,0.0,0.0,0.0,0.0,0.0,0.0,0.0,-0.6559,-0.6671,-0.6573,-0.6515,-0.6471,-0.662,-0.6685,-0.6695,-0.6827,-0.6459,-0.5666,-0.4235,-0.2937,-0.204,-0.1689,-0.1493,-0.1297,-0.1297,-0.1272,-0.1215,-0.1204,-0.1182,-0.1152,-0.1128,-0.1115,-0.111,-0.1095,-0.1116,-0.1109,-0.1109,-0.1109,-0.1109,-0.1109,-0.1076,-0.1008,-0.0941,-0.0941,-0.084,-0.0773,-0.0806,-0.0873,-0.0974,-0.0941,-0.0974,-0.0974,-0.1041,-0.1042,-0.1008,-0.1006,-0.1067,-0.1106,-0.1108,-0.1024,-0.0965,-0.0962,-0.1027,-0.1068,-0.1039,-0.1027,-0.1007,-0.0993,-0.0994,-0.1003,-0.102,-0.1065,-0.1086,-0.1109,-0.1109,-0.1109,-0.1109,-0.1108,-0.1102,-0.1084,-0.1075,-0.1061,-0.1075,-0.1097,-0.11,-0.1109,-0.1109,-0.1109,-0.1109,-0.1109,-0.1109,-0.1109,-0.1109,-0.1109,-0.1109,-0.1109,-0.1109,-0.1109,-0.1109,-0.1109,-0.1076,-0.1076,-0.1109,-0.1109,-0.1109,-0.1109,-0.1109,-0.1109,-0.1109,-0.1109,-0.0975,-0.0774,-0.0404,0.0,0.0,0.0,0.0,0.0,0.0,0.0,0.0,0.0,-0.6545,-0.6563,-0.6597,-0.6614,-0.6627,-0.6776,-0.6798,-0.6848,-0.6856,-0.6338,-0.5425,-0.4395,-0.3368,-0.247,-0.204,-0.1727,-0.1335,-0.1297,-0.1238,-0.1221,-0.1208,-0.1194,-0.1207,-0.1192,-0.114,-0.1125,-0.1108,-0.1091,-0.1111,-0.1113,-0.1109,-0.1109,-0.1109,-0.1109,-0.1109,-0.1109,-0.1109,-0.1109,-0.1109,-0.1109,-0.1109,-0.1109,-0.1109,-0.1109,-0.1109,-0.1109,-0.1076,-0.1109,-0.1109,-0.1109,-0.1109,-0.1109,-0.1109,-0.105,-0.1046,-0.1064,-0.1097,-0.1065,-0.1062,-0.1046,-0.1075,-0.1042,-0.105,-0.1092,-0.1109,-0.1109,-0.1109,-0.1109,-0.1109,-0.1109,-0.1109,-0.1109,-0.1104,-0.1108,-0.1109,-0.1109,-0.1109,-0.1109,-0.1109,-0.1109,-0.1109,-0.1109,-0.1109,-0.1109,-0.1109,-0.1109,-0.1109,-0.1109,-0.1109,-0.1109,-0.1109,-0.1109,-0.1109,-0.1109,-0.1109,-0.1109,-0.1109,-0.1109,-0.1109,-0.1109,-0.1109,-0.1109,-0.1076,-0.0975,-0.0774,-0.0404,0.0,0.0,0.0,0.0,0.0,0.0,0.0,0.0,0.0,-0.6501,-0.6549,-0.6654,-0.6729,-0.6783,-0.6842,-0.6953,-0.6947,-0.695,-0.6314,-0.5273,-0.4535,-0.3602,-0.2666,-0.2196,-0.1805,-0.1414,-0.1295,-0.1283,-0.1234,-0.1225,-0.1212,-0.1234,-0.122,-0.1172,-0.1113,-0.1134,-0.1121,-0.1093,-0.1089,-0.1084,-0.1113,-0.1109,-0.1109,-0.1109,-0.1109,-0.1109,-0.1109,-0.1109,-0.1109,-0.1109,-0.1109,-0.1109,-0.1109,-0.1109,-0.1109,-0.1109,-0.1109,-0.1109,-0.1109,-0.1109,-0.1109,-0.1109,-0.1109,-0.1109,-0.1109,-0.1109,-0.1109,-0.1109,-0.1109,-0.1109,-0.1101,-0.1104,-0.1106,-0.1109,-0.1109,-0.1109,-0.1109,-0.1109,-0.1109,-0.1109,-0.1109,-0.1109,-0.1109,-0.1109,-0.1109,-0.1109,-0.1109,-0.1109,-0.1109,-0.1109,-0.1109,-0.1109,-0.1109,-0.1109,-0.1109,-0.1109,-0.1109,-0.1109,-0.1109,-0.1109,-0.1109,-0.1109,-0.1109,-0.1109,-0.1109,-0.1109,-0.1109,-0.1109,-0.1109,-0.1109,-0.1109,-0.1076,-0.1042,-0.0774,-0.0404,0.0,0.0,0.0,0.0,0.0,0.0,0.0,0.0,0.0,-0.6474,-0.6685,-0.6698,-0.6783,-0.6862,-0.6883,-0.6964,-0.7051,-0.6991,-0.6414,-0.5325,-0.4358,-0.3331,-0.2511,-0.2041,-0.161,-0.1296,-0.1218,-0.1254,-0.1212,-0.1247,-0.1289,-0.1279,-0.1223,-0.1204,-0.1202,-0.1179,-0.1149,-0.1116,-0.1112,-0.11,-0.1082,-0.1109,-0.1109,-0.1109,-0.1109,-0.1109,-0.1109,-0.1109,-0.1109,-0.1109,-0.1109,-0.1109,-0.1109,-0.1109,-0.1109,-0.1109,-0.1109,-0.1109,-0.1109,-0.1109,-0.1109,-0.1109,-0.1109,-0.1109,-0.1109,-0.1109,-0.1109,-0.1109,-0.1109,-0.1109,-0.1109,-0.1109,-0.1109,-0.1109,-0.1109,-0.1109,-0.1109,-0.1109,-0.1109,-0.1109,-0.1109,-0.1109,-0.1109,-0.1109,-0.1109,-0.1109,-0.1109,-0.1109,-0.1109,-0.1109,-0.1109,-0.1109,-0.1109,-0.1109,-0.1109,-0.1109,-0.1109,-0.1109,-0.1109,-0.1109,-0.1109,-0.1109,-0.1109,-0.1109,-0.1109,-0.1109,-0.1109,-0.1109,-0.1109,-0.1109,-0.1109,-0.1076,-0.1076,-0.0774,-0.0405,0.0,0.0,0.0,0.0,0.0,0.0,0.0,0.0,0.0,-0.6412,-0.6596,-0.6658,-0.6787,-0.6889,-0.6987,-0.7055,-0.7011,-0.6599,-0.5984,-0.5154,-0.4192,-0.3132,-0.2313,-0.1804,-0.1374,-0.0944,-0.1022,-0.1022,-0.1061,-0.1179,-0.1296,-0.1291,-0.1284,-0.1269,-0.1215,-0.1196,-0.1169,-0.1085,-0.1092,-0.1106,-0.1082,-0.1118,-0.1109,-0.1109,-0.1109,-0.1109,-0.1109,-0.1109,-0.1109,-0.1109,-0.1109,-0.1109,-0.1109,-0.1109,-0.1109,-0.1109,-0.1109,-0.1109,-0.1109,-0.1109,-0.1109,-0.1109,-0.1109,-0.1109,-0.1109,-0.1109,-0.1109,-0.1109,-0.1109,-0.1109,-0.1109,-0.1109,-0.1109,-0.1109,-0.1109,-0.1109,-0.1109,-0.1109,-0.1109,-0.1109,-0.1109,-0.1109,-0.1109,-0.1109,-0.1109,-0.1109,-0.1109,-0.1109,-0.1109,-0.1109,-0.1109,-0.1143,-0.1109,-0.1109,-0.1109,-0.1109,-0.1109,-0.1109,-0.1109,-0.1109,-0.1109,-0.1109,-0.1109,-0.1109,-0.1109,-0.1109,-0.1109,-0.1109,-0.1109,-0.1109,-0.1109,-0.1008,-0.0941,-0.0674,0.0,0.0,0.0,0.0,0.0,0.0,0.0,0.0,0.0,0.0,-0.6381,-0.6518,-0.6539,-0.6617,-0.6843,-0.7034,-0.7095,-0.6963,-0.6327,-0.5611,-0.4821,-0.3905,-0.2855,-0.1901,-0.1417,-0.1147,-0.0635,-0.0709,-0.0904,-0.0904,-0.1061,-0.1218,-0.1258,-0.1296,-0.1285,-0.123,-0.1222,-0.1201,-0.1125,-0.1118,-0.1139,-0.1154,-0.1141,-0.1148,-0.1141,-0.113,-0.1109,-0.1109,-0.1109,-0.1109,-0.1109,-0.1109,-0.1109,-0.1109,-0.1109,-0.1109,-0.1109,-0.1109,-0.1109,-0.1109,-0.1109,-0.1109,-0.1109,-0.1109,-0.1109,-0.1109,-0.1109,-0.1109,-0.1109,-0.1109,-0.1109,-0.1109,-0.1109,-0.1109,-0.1109,-0.1109,-0.1109,-0.1109,-0.111,-0.1087,-0.1092,-0.1091,-0.1119,-0.112,-0.1123,-0.1123,-0.1117,-0.1118,-0.1186,-0.1185,-0.1312,-0.1312,-0.1176,-0.1109,-0.1109,-0.1109,-0.1109,-0.1109,-0.1109,-0.1109,-0.1109,-0.1109,-0.1109,-0.1109,-0.1109,-0.1109,-0.1109,-0.1109,-0.1109,-0.1109,-0.1109,-0.1109,-0.0975,-0.0774,-0.0438,0.0,0.0,0.0,0.0,0.0,0.0,0.0,0.0,0.0,0.0,-0.6378,-0.6454,-0.6277,-0.6363,-0.6606,-0.6893,-0.7051,-0.6993,-0.6198,-0.5302,-0.4395,-0.3364,-0.2274,-0.1336,-0.0995,-0.0758,-0.0565,-0.0596,-0.0671,-0.0825,-0.0904,-0.1061,-0.1218,-0.1296,-0.1293,-0.1295,-0.1288,-0.123,-0.121,-0.1187,-0.1173,-0.12,-0.1186,-0.1185,-0.1172,-0.1152,-0.113,-0.113,-0.1114,-0.112,-0.1127,-0.1125,-0.1129,-0.113,-0.1129,-0.109,-0.1088,-0.1084,-0.1113,-0.1111,-0.1109,-0.1109,-0.1109,-0.1109,-0.1109,-0.1109,-0.1109,-0.111,-0.1082,-0.1084,-0.1085,-0.1089,-0.1083,-0.1113,-0.1109,-0.1109,-0.1109,-0.1116,-0.1123,-0.1108,-0.1088,-0.1113,-0.1139,-0.1108,-0.1112,-0.1142,-0.1132,-0.1165,-0.127,-0.1402,-0.1691,-0.1651,-0.1312,-0.1176,-0.1116,-0.1109,-0.1109,-0.1109,-0.1109,-0.1109,-0.1109,-0.1109,-0.1109,-0.1109,-0.1109,-0.1109,-0.1109,-0.1109,-0.1109,-0.1109,-0.1109,-0.0908,-0.0504,-0.0235,-0.0101,0.0,0.0,0.0,0.0,0.0,0.0,0.0,0.0,0.0,0.0,-0.6203,-0.6087,-0.6152,-0.6182,-0.624,-0.6465,-0.6609,-0.6502,-0.5591,-0.4608,-0.3512,-0.2518,-0.154,-0.0416,-0.029,0.0,-0.0244,-0.0323,-0.0398,-0.0554,-0.0746,-0.0904,-0.1061,-0.1179,-0.1258,-0.1297,-0.1293,-0.1282,-0.1213,-0.1198,-0.1185,-0.1203,-0.1212,-0.1209,-0.1201,-0.1186,-0.118,-0.1165,-0.1106,-0.1108,-0.1162,-0.117,-0.117,-0.1168,-0.1165,-0.1123,-0.1111,-0.1103,-0.1095,-0.1114,-0.1111,-0.1109,-0.1109,-0.1109,-0.1109,-0.1109,-0.1111,-0.1083,-0.1102,-0.1108,-0.1113,-0.1119,-0.1113,-0.1093,-0.1084,-0.1115,-0.1116,-0.1126,-0.1147,-0.1136,-0.1145,-0.1139,-0.1177,-0.1187,-0.1196,-0.1205,-0.1234,-0.1235,-0.1374,-0.1694,-0.1949,-0.1659,-0.1351,-0.119,-0.1126,-0.1116,-0.1109,-0.1109,-0.1109,-0.1109,-0.1109,-0.1109,-0.1109,-0.1109,-0.1109,-0.1109,-0.1109,-0.1109,-0.1109,-0.1042,-0.0975,-0.0672,-0.0034,0.0269,0.0303,0.0,0.0,0.0,0.0,0.0,0.0,0.0,0.0,0.0,0.0,-0.6057,-0.5912,-0.5838,-0.5823,-0.5814,-0.6017,-0.6124,-0.5977,-0.5249,-0.4282,-0.3157,-0.2182,0.0,0.0,0.0,0.0,-0.0041,-0.0121,-0.0238,-0.0394,-0.0589,-0.0746,-0.0904,-0.1061,-0.1179,-0.1258,-0.1295,-0.1288,-0.1265,-0.1254,-0.1242,-0.1244,-0.124,-0.1239,-0.1241,-0.1242,-0.1241,-0.1222,-0.1164,-0.1151,-0.1195,-0.1212,-0.1174,-0.1206,-0.1201,-0.115,-0.1138,-0.1127,-0.1101,-0.109,-0.1087,-0.1109,-0.1109,-0.1109,-0.1109,-0.1111,-0.1091,-0.1104,-0.1088,-0.1136,-0.1154,-0.1165,-0.1115,-0.1144,-0.1126,-0.1153,-0.1148,-0.115,-0.1178,-0.1201,-0.1166,-0.117,-0.1223,-0.1239,-0.1297,-0.1318,-0.132,-0.132,-0.1571,-0.1914,-0.187,-0.1608,-0.1367,-0.1241,-0.1139,-0.1097,-0.1086,-0.1109,-0.1109,-0.1109,-0.1109,-0.1109,-0.1109,-0.1109,-0.111,-0.1078,-0.1043,-0.1043,-0.1076,-0.1009,-0.0875,-0.0101,0.084,0.0841,0.0572,0.0,0.0,0.0,0.0,0.0,0.0,0.0,0.0,0.0,0.0,-0.586,-0.5825,-0.5449,-0.5356,-0.5413,-0.5589,-0.565,-0.5542,-0.5026,-0.424,-0.3092,-0.2176,-0.1089,0.0,0.0,0.0,0.0,0.0,-0.0119,-0.0275,-0.0354,-0.0511,-0.0707,-0.0904,-0.1061,-0.1218,-0.1296,-0.1293,-0.1295,-0.1285,-0.1281,-0.1296,-0.129,-0.1284,-0.1281,-0.1281,-0.1279,-0.127,-0.1211,-0.1195,-0.1224,-0.1191,-0.1193,-0.1179,-0.1168,-0.1121,-0.1155,-0.1169,-0.1099,-0.1108,-0.1105,-0.1124,-0.111,-0.1125,-0.1123,-0.1129,-0.1115,-0.1134,-0.115,-0.1164,-0.1198,-0.1204,-0.1191,-0.1191,-0.1177,-0.1158,-0.1138,-0.1183,-0.1217,-0.119,-0.1193,-0.1202,-0.1255,-0.1343,-0.1398,-0.1525,-0.1602,-0.1716,-0.1988,-0.2273,-0.2313,-0.197,-0.1409,-0.1241,-0.1189,-0.1132,-0.1095,-0.1113,-0.1125,-0.1125,-0.1133,-0.113,-0.1114,-0.1117,-0.1089,-0.1055,-0.0978,-0.0976,-0.0976,-0.0706,-0.037,0.0639,0.1816,0.1345,0.0707,0.0303,0.0,0.0,0.0,0.0,0.0,0.0,0.0,0.0,0.0,-0.5709,-0.5449,-0.5303,-0.5221,-0.5243,-0.522,-0.517,-0.494,-0.411,-0.3471,-0.2839,-0.191,-0.0979,0.0,0.0,0.0,0.0,0.0,0.0,-0.0118,-0.0196,-0.0314,-0.0511,-0.0786,-0.0904,-0.1022,-0.114,-0.1297,-0.1297,-0.1297,-0.1297,-0.1297,-0.1297,-0.1297,-0.1297,-0.1297,-0.1296,-0.1295,-0.1285,-0.1272,-0.1269,-0.1273,-0.1277,-0.1271,-0.1263,-0.1209,-0.1246,-0.1248,-0.1216,-0.1201,-0.1189,-0.1157,-0.1114,-0.1156,-0.1177,-0.1182,-0.1153,-0.1166,-0.1182,-0.1196,-0.126,-0.1269,-0.1222,-0.1228,-0.12,-0.1157,-0.1146,-0.1172,-0.1208,-0.1215,-0.1221,-0.1272,-0.1281,-0.1407,-0.1533,-0.1688,-0.1844,-0.2143,-0.24,-0.2602,-0.2718,-0.2231,-0.1599,-0.129,-0.1238,-0.1197,-0.1139,-0.112,-0.1158,-0.1172,-0.1197,-0.1188,-0.1132,-0.1127,-0.1098,-0.1064,-0.0986,-0.0776,-0.0674,-0.0303,0.0168,0.1109,0.1985,0.1345,0.0774,0.0472,0.027,0.0,0.0,0.0,0.0,0.0,0.0,0.0,0.0,-0.5515,-0.5296,-0.5214,-0.5186,-0.5168,-0.5028,-0.4776,-0.4352,-0.3505,-0.2799,-0.2228,-0.1509,-0.0808,0.0,0.0,0.0,0.0,0.0,0.0,0.0,0.0,-0.0196,-0.0393,-0.0629,-0.0786,-0.0943,-0.1179,-0.1297,-0.1297,-0.1297,-0.1297,-0.1297,-0.1297,-0.1297,-0.1297,-0.1297,-0.1297,-0.1297,-0.1297,-0.1297,-0.1297,-0.1296,-0.1296,-0.1297,-0.1293,-0.1283,-0.1284,-0.1287,-0.1263,-0.123,-0.121,-0.1191,-0.1176,-0.1213,-0.1239,-0.1239,-0.1236,-0.1194,-0.121,-0.1225,-0.1276,-0.128,-0.1282,-0.1284,-0.1284,-0.1219,-0.1217,-0.127,-0.1274,-0.128,-0.1279,-0.1288,-0.129,-0.1374,-0.1571,-0.1727,-0.2157,-0.262,-0.2963,-0.3263,-0.3006,-0.2163,-0.163,-0.1319,-0.1265,-0.1209,-0.1149,-0.1163,-0.1194,-0.1215,-0.1241,-0.1242,-0.1184,-0.1135,-0.1089,-0.1059,-0.096,-0.0714,-0.0404,0.037,0.1008,0.1648,0.2018,0.1681,0.1278,0.0808,0.064,0.0505,0.0202,0.0,0.0,0.0,0.0,0.0,0.0,-0.5282,-0.526,-0.5198,-0.5162,-0.5098,-0.4782,-0.4375,-0.3883,-0.305,-0.2184,-0.1403,-0.1097,-0.0578,0.0,0.0,0.0,0.0,0.0,0.0,0.0,0.0,0.0,-0.0275,-0.0511,-0.0746,-0.0982,-0.1218,-0.1297,-0.1297,-0.1297,-0.1297,-0.1297,-0.1297,-0.1297,-0.1297,-0.1297,-0.1297,-0.1297,-0.1297,-0.1297,-0.1297,-0.1297,-0.1297,-0.1297,-0.1297,-0.1297,-0.1296,-0.1291,-0.1278,-0.1262,-0.1238,-0.1227,-0.1228,-0.1257,-0.1273,-0.1279,-0.1266,-0.1221,-0.1226,-0.128,-0.129,-0.1295,-0.1297,-0.1296,-0.1295,-0.1294,-0.1291,-0.1292,-0.1296,-0.1298,-0.1296,-0.1295,-0.1296,-0.1375,-0.161,-0.2041,-0.2588,-0.3018,-0.3333,-0.3645,-0.2942,-0.208,-0.1689,-0.1375,-0.1288,-0.1232,-0.1221,-0.1247,-0.1241,-0.1253,-0.1271,-0.1265,-0.1231,-0.1183,-0.1108,-0.106,-0.0966,-0.0578,-0.0135,0.0908,0.1748,0.2018,0.2288,0.2421,0.1985,0.1648,0.111,0.0808,0.0505,0.0236,0.0,0.0,0.0,0.0,0.0,-0.5207,-0.5057,-0.5042,-0.505,-0.4977,-0.4446,-0.3894,-0.3263,-0.2454,-0.1583,-0.0938,-0.0595,0.0,0.0,0.0,0.0,0.0,0.0,0.0,0.0,0.0,0.0,-0.0157,-0.0432,-0.0825,-0.11,-0.1258,-0.1297,-0.1297,-0.1297,-0.1297,-0.1297,-0.1297,-0.1297,-0.1297,-0.1297,-0.1297,-0.1297,-0.1297,-0.1297,-0.1297,-0.1297,-0.1297,-0.1297,-0.1297,-0.1297,-0.1297,-0.1297,-0.1293,-0.1288,-0.1279,-0.1272,-0.1275,-0.1284,-0.1293,-0.1296,-0.1284,-0.1284,-0.1286,-0.1291,-0.1297,-0.1297,-0.1297,-0.1297,-0.1296,-0.1296,-0.1295,-0.1296,-0.1299,-0.1301,-0.13,-0.1336,-0.1336,-0.1493,-0.1689,-0.2589,-0.3372,-0.3255,-0.3215,-0.3059,-0.255,-0.1924,-0.1493,-0.1297,-0.1296,-0.1285,-0.1284,-0.1274,-0.1272,-0.1286,-0.1297,-0.1281,-0.1263,-0.1206,-0.1171,-0.1084,-0.0937,-0.0512,0.0101,0.1076,0.1782,0.2085,0.2321,0.2857,0.2989,0.2753,0.2182,0.1277,0.1009,0.0744,0.0453,0.0,0.0,0.0,0.0]}]]